[[{"header":{"parameterUnit":"m.s-1","parameterCategory":1,"la1":31.0,"la2":29.5877,"lo1":-88.7671,"lo2":-86.6584,"dy":0.0162,"dx":0.0185,"nx":115,"ny":88,"refTime":"2026-04-15T12:00:00:Z","depth":0,"parameterNumber":2,"parameterNumberName":"U-component_of_WINDS"},"data":[0.0,0.0,0.0,0.0,0.0,0.0,0.0,0.0,0.0,0.0,0.0,0.0,0.0,0.0,0.0,0.0,0.0,0.0,0.0,0.0,0.0,0.0,0.0,0.0,0.0,0.0,0.0,0.0,0.0,0.0,0.0,0.0,0.0,0.0,0.0,0.0,0.0,0.0,0.0,0.0,0.0,0.0,0.0,0.0,0.0,0.0,0.0,0.0,0.0,0.0,0.0,0.0,0.0,0.0,0.0,0.0,0.0,0.0,0.0,0.0,0.0,0.0,0.0,0.0,0.0,0.0,0.0,0.0,0.0,0.0,0.0,0.0,0.0,0.0,0.0,0.0,0.0,0.0,0.0,0.0,0.0,0.0,0.0,0.0,0.0,0.0,0.0,0.0,0.0,0.0,0.0,0.0,0.0,0.0,0.0,0.0,0.0,0.0,0.0,0.0,0.0,0.0,0.0,0.0,0.0,0.0,0.0,0.0,0.0,0.0,0.0,0.0,0.0,0.0,0.0,0.0,0.0,0.0,0.0,0.0,0.0,0.0,0.0,0.0,0.0,0.0,0.0,0.0,0.0,0.0,0.0,0.0,0.0,0.0,0.0,0.0,0.0,0.0,0.0,0.0,0.0,0.0,0.0,0.0,0.0,0.0,0.0,0.0,0.0,0.0,0.0,0.0,0.0,0.0,0.0,0.0,0.0,0.0,0.0,0.0,0.0,0.0,0.0,0.0,0.0,0.0,0.0,0.0,0.0,0.0,0.0,0.0,0.0,0.0,0.0,0.0,0.0,0.0,0.0,0.0,0.0,0.0,0.0,0.0,0.0,0.0,0.0,0.0,0.0,0.0,0.0,0.0,0.0,0.0,0.0,0.0,0.0,0.0,0.0,0.0,0.0,0.0,0.0,0.0,0.0,0.0,0.0,0.0,0.0,0.0,0.0,0.0,0.0,0.0,0.0,0.0,0.0,0.0,0.0,0.0,0.0,0.0,0.0,0.0,0.0,0.0,0.0,0.0,0.0,0.0,0.0,0.0,0.0,0.0,0.0,0.0,0.0,0.0,0.0,0.0,0.0,0.0,0.0,0.0,0.0,0.0,0.0,0.0,0.0,0.0,0.0,0.0,0.0,0.0,0.0,0.0,0.0,0.0,0.0,0.0,0.0,0.0,0.0,0.0,0.0,0.0,0.0,0.0,0.0,0.0,0.0,0.0,0.0,0.0,0.0,0.0,0.0,0.0,0.0,0.0,0.0,0.0,0.0,0.0,0.0,0.0,0.0,0.0,0.0,0.0,0.0,0.0,0.0,0.0,0.0,0.0,0.0,0.0,0.0,0.0,0.0,0.0,0.0,0.0,0.0,0.0,0.0,0.0,0.0,0.0,0.0,0.0,0.0,0.0,0.0,0.0,0.0,0.0,0.0,0.0,0.0,0.0,0.0,0.0,0.0,0.0,0.0,0.0,0.0,0.0,0.0,0.0,0.0,0.0,0.0,0.0,0.0,0.0,0.0,0.0,0.0,0.0,0.0,0.0,0.0,0.0,0.0,0.0,0.0,0.0,0.0,0.0,0.0,0.0,0.0,0.0,0.0,0.0,0.0,0.0,0.0,0.0,0.0,0.0,0.0,0.0,0.0,0.0,0.0,0.0,0.0,0.0,0.0,0.0,0.0,0.0,0.0,0.0,0.0,0.0,0.0,0.0,0.0,0.0,0.0,0.0,0.0,0.0,0.0,0.0,0.0,0.0,0.0,0.0,0.0,0.0,0.0,0.0,0.0,0.0,0.0,0.0,0.0,0.0,0.0,0.0,0.0,0.0,0.0,0.0,0.0,0.0,0.0,0.0,0.0,0.0,0.0,0.0,0.0,0.0,0.0,0.0,0.0,0.0,0.0,0.0,0.0,0.0,0.0,0.0,0.0,0.0,0.0,0.0,0.0,0.0,0.0,0.0,0.0,0.0,0.0,0.0,0.0,0.0,0.0,0.0,0.0,0.0,0.0,0.0,0.0,0.0,0.0,0.0,0.0,0.0,0.0,0.0,0.0,0.0,0.0,0.0,0.0,0.0,0.0,0.0,0.0,0.0,0.0,0.0,0.0,0.0,0.0,0.0,0.0,0.0,0.0,0.0,0.0,0.0,0.0,0.0,0.0,0.0,0.0,0.0,0.0,0.0,0.0,0.0,0.0,0.0,0.0,0.0,0.0,0.0,0.0,0.0,0.0,0.0,0.0,0.0,0.0,0.0,0.0,0.0,0.0,0.0,0.0,0.0,0.0,0.0,0.0,0.0,0.0,0.0,0.0,0.0,0.0,0.0,0.0,0.0,0.0,0.0,0.0,0.0,0.0,0.0,0.0,0.0,0.0,0.0,0.0,0.0,0.0,0.0,0.0,0.0,0.0,0.0,0.0,0.0,0.0,0.0,0.0,0.0,0.0,0.0,0.0,0.0,0.0,0.0,0.0,0.0,0.0,0.0,0.0,0.0,0.0,0.0,0.0,0.0,0.0,0.0,0.0,0.0,0.0,0.0,0.0,0.0,0.0,0.0,0.0,0.0,0.0,0.0,0.0,0.0,0.0,0.0,0.0,0.0,0.0,0.0,0.0,0.0,0.0,0.0,0.0,0.0,0.0,0.0,0.0,0.0,0.0,0.0,0.0,0.0,0.0,0.0,0.0,0.0,0.0,0.0,0.0,0.0,0.0,0.0,0.0,0.0,0.0,0.0,0.0,0.0,0.0,0.0,0.0,0.0,0.0,0.0,0.0,0.0,0.0,0.0,0.0,0.0,0.0,0.0,0.0,0.0,0.0,0.0,0.0,0.0,0.0,0.0,0.0,0.0,0.0,0.0,0.0,0.0,0.0,0.0,0.0,0.0,0.0,0.0,0.0,0.0,0.0,0.0,0.0,0.0,0.0,0.0,0.0,0.0,0.0,0.0,0.0,0.0,0.0,0.0,0.0,0.0,0.0,0.0,0.0,0.0,0.0,0.0,0.0,0.0,0.0,0.0,0.0,0.0,0.0,0.0,0.0,0.0,0.0,0.0,0.0,0.0,0.0,0.0,0.0,0.0,0.0,0.0,0.0,0.0,0.0,0.0,0.0,0.0,0.0,0.0,0.0,0.0,0.0,0.0,0.0,0.0,0.0,0.0,0.0,0.0,0.0,0.0,0.0,0.0,0.0,0.0,0.0,0.0,0.0,0.0,0.0,0.0,0.0,0.0,0.0,0.0,0.0,0.0,0.0,0.0,0.0,0.0,0.0,0.0,0.0,0.0,0.0,0.0,0.0,0.0,0.0,0.0,0.0,0.0,0.0,0.0,0.0,0.0,0.0,0.0,0.0,0.0,0.0,0.0,0.0,0.0,0.0,0.0,0.0,0.0,0.0,0.0,0.0,0.0,0.0,0.0,0.0,0.0,0.0,0.0,0.0,0.0,0.0,0.0,0.0,0.0,0.0,0.0,0.0,0.0,0.0,0.0,0.0,0.0,0.0,0.0,0.0,0.0,0.0,0.0,0.0,0.0,0.0,0.0,0.0,0.0,0.0,0.0,0.0,0.0,0.0,0.0,0.0,0.0,0.0,0.0,0.0,0.0,0.0,0.0,0.0,0.0,0.0,0.0,0.0,0.0,0.0,0.0,0.0,0.0,0.0,0.0,0.0,0.0,0.0,0.0,0.0,0.0,0.0,0.0,0.0,0.0,0.0,0.0,0.0,0.0,0.0,0.0,0.0,0.0,0.0,0.0,0.0,0.0,0.0,0.0,0.0,0.0,0.0,0.0,0.0,0.0,0.0,0.0,0.0,0.0,0.0,0.0,0.0,0.0,0.0,0.0,0.0,0.0,0.0,0.0,0.0,0.0,0.0,0.0,0.0,0.0,0.0,0.0,0.0,0.0,0.0,0.0,0.0,0.0,0.0,0.0,0.0,0.0,0.0,0.0,0.0,0.0,0.0,0.0,0.0,0.0,0.0,0.0,0.0,0.0,0.0,0.0,0.0,0.0,0.0,0.0,0.0,0.0,0.0,0.0,0.0,0.0,0.0,0.0,0.0,0.0,0.0,0.0,0.0,0.0,0.0,0.0,0.0,0.0,0.0,0.0,0.0,0.0,0.0,0.0,0.0,0.0,0.0,0.0,0.0,0.0,0.0,0.0,0.0,0.0,0.0,0.0,0.0,0.0,0.0,0.0,0.0,0.0,0.0,0.0,0.0,0.0,0.0,0.0,0.0,0.0,0.0,0.0,0.0,0.0,0.0,0.0,0.0,0.0,0.0,0.0,0.0,0.0,0.0,0.0,-4.5304,0.0,0.0,0.0,0.0,0.0,0.0,0.0,0.0,0.0,0.0,0.0,0.0,0.0,0.0,0.0,0.0,0.0,0.0,0.0,0.0,0.0,0.0,0.0,0.0,0.0,0.0,0.0,0.0,0.0,0.0,0.0,0.0,0.0,0.0,0.0,0.0,0.0,0.0,0.0,0.0,0.0,0.0,0.0,0.0,0.0,0.0,0.0,0.0,0.0,0.0,0.0,0.0,0.0,0.0,0.0,0.0,0.0,0.0,0.0,0.0,0.0,0.0,0.0,0.0,0.0,0.0,0.0,0.0,0.0,0.0,0.0,0.0,0.0,0.0,0.0,0.0,0.0,0.0,0.0,0.0,0.0,0.0,0.0,0.0,0.0,0.0,0.0,0.0,0.0,0.0,0.0,0.0,0.0,0.0,0.0,0.0,0.0,0.0,0.0,0.0,0.0,0.0,0.0,0.0,0.0,0.0,0.0,0.0,0.0,0.0,-4.8798,-4.9135,-4.8266,-4.718,-4.5826,0.0,0.0,0.0,0.0,0.0,0.0,0.0,0.0,0.0,0.0,0.0,0.0,0.0,0.0,0.0,0.0,0.0,0.0,0.0,0.0,0.0,0.0,0.0,0.0,0.0,0.0,0.0,0.0,0.0,0.0,0.0,0.0,0.0,0.0,0.0,0.0,0.0,0.0,0.0,0.0,0.0,0.0,0.0,0.0,0.0,0.0,0.0,0.0,0.0,0.0,0.0,0.0,0.0,0.0,0.0,0.0,0.0,0.0,0.0,0.0,0.0,0.0,0.0,0.0,0.0,0.0,0.0,0.0,0.0,0.0,0.0,0.0,0.0,0.0,0.0,0.0,0.0,0.0,0.0,0.0,0.0,0.0,0.0,0.0,0.0,0.0,0.0,0.0,0.0,0.0,0.0,0.0,0.0,0.0,0.0,0.0,0.0,0.0,0.0,0.0,0.0,0.0,0.0,0.0,0.0,0.0,0.0,0.0,0.0,0.0,0.0,0.0,-4.9246,-4.7695,-4.5587,0.0,0.0,0.0,0.0,0.0,0.0,0.0,0.0,0.0,0.0,0.0,0.0,0.0,0.0,0.0,0.0,0.0,0.0,0.0,0.0,0.0,0.0,0.0,0.0,0.0,0.0,0.0,0.0,0.0,0.0,0.0,0.0,0.0,0.0,0.0,0.0,0.0,0.0,0.0,0.0,0.0,0.0,0.0,0.0,0.0,0.0,0.0,0.0,0.0,0.0,0.0,0.0,0.0,0.0,0.0,0.0,0.0,0.0,0.0,0.0,0.0,0.0,0.0,0.0,0.0,0.0,0.0,0.0,0.0,0.0,0.0,0.0,0.0,0.0,0.0,0.0,0.0,0.0,0.0,0.0,0.0,0.0,0.0,0.0,0.0,0.0,0.0,0.0,0.0,0.0,0.0,0.0,0.0,0.0,0.0,0.0,0.0,0.0,0.0,0.0,0.0,0.0,0.0,0.0,0.0,0.0,0.0,0.0,0.0,0.0,-5.0512,-5.1993,-5.0426,0.0,-4.4974,0.0,0.0,0.0,0.0,0.0,0.0,0.0,0.0,0.0,0.0,0.0,0.0,0.0,0.0,0.0,0.0,0.0,0.0,0.0,0.0,0.0,0.0,0.0,0.0,0.0,0.0,0.0,0.0,0.0,0.0,0.0,0.0,0.0,0.0,0.0,0.0,0.0,0.0,0.0,0.0,0.0,0.0,0.0,0.0,0.0,0.0,0.0,0.0,0.0,0.0,0.0,0.0,0.0,0.0,0.0,0.0,0.0,0.0,0.0,0.0,0.0,0.0,0.0,0.0,0.0,0.0,0.0,0.0,0.0,0.0,0.0,0.0,0.0,0.0,0.0,0.0,0.0,0.0,0.0,0.0,0.0,0.0,0.0,0.0,0.0,0.0,0.0,0.0,0.0,0.0,0.0,0.0,0.0,0.0,0.0,0.0,0.0,0.0,0.0,0.0,0.0,0.0,0.0,0.0,0.0,0.0,0.0,0.0,0.0,0.0,-5.1089,-5.2214,-5.0585,-4.8075,0.0,0.0,0.0,0.0,0.0,0.0,0.0,0.0,0.0,0.0,0.0,0.0,0.0,0.0,0.0,0.0,0.0,0.0,0.0,0.0,0.0,0.0,0.0,0.0,0.0,0.0,0.0,0.0,0.0,0.0,0.0,0.0,0.0,0.0,0.0,0.0,0.0,0.0,0.0,0.0,0.0,0.0,0.0,0.0,0.0,0.0,0.0,0.0,0.0,0.0,0.0,0.0,0.0,0.0,0.0,0.0,0.0,0.0,0.0,0.0,0.0,0.0,0.0,0.0,0.0,0.0,0.0,0.0,0.0,0.0,0.0,0.0,0.0,0.0,0.0,0.0,0.0,0.0,0.0,0.0,0.0,0.0,0.0,0.0,0.0,0.0,0.0,0.0,0.0,0.0,0.0,0.0,0.0,0.0,0.0,0.0,0.0,0.0,0.0,0.0,0.0,0.0,0.0,0.0,0.0,0.0,0.0,0.0,0.0,0.0,-5.1567,-5.1554,-5.1773,-5.0674,-4.8415,-4.4977,0.0,0.0,0.0,0.0,0.0,0.0,0.0,0.0,0.0,0.0,0.0,0.0,0.0,0.0,0.0,0.0,0.0,0.0,0.0,0.0,0.0,0.0,0.0,0.0,0.0,0.0,0.0,0.0,0.0,0.0,0.0,0.0,0.0,0.0,0.0,0.0,0.0,0.0,0.0,0.0,0.0,0.0,0.0,0.0,0.0,0.0,0.0,0.0,0.0,0.0,0.0,0.0,0.0,0.0,0.0,0.0,0.0,0.0,0.0,0.0,0.0,0.0,0.0,0.0,0.0,0.0,0.0,0.0,0.0,0.0,0.0,0.0,0.0,0.0,0.0,0.0,0.0,0.0,0.0,0.0,0.0,0.0,0.0,0.0,0.0,0.0,0.0,0.0,0.0,0.0,0.0,0.0,0.0,0.0,0.0,0.0,0.0,0.0,0.0,0.0,0.0,0.0,0.0,0.0,0.0,0.0,0.0,0.0,-5.3346,-5.268,-5.1823,-5.1041,-5.0879,-4.9239,0.0,0.0,0.0,0.0,0.0,0.0,0.0,0.0,0.0,0.0,0.0,0.0,0.0,0.0,0.0,0.0,0.0,0.0,0.0,0.0,0.0,0.0,0.0,0.0,0.0,0.0,0.0,0.0,0.0,0.0,0.0,0.0,0.0,0.0,0.0,0.0,0.0,0.0,0.0,0.0,0.0,0.0,0.0,0.0,0.0,0.0,0.0,0.0,0.0,0.0,0.0,0.0,0.0,0.0,0.0,0.0,0.0,0.0,0.0,0.0,0.0,0.0,0.0,0.0,0.0,0.0,0.0,0.0,0.0,0.0,0.0,0.0,0.0,0.0,0.0,0.0,0.0,0.0,0.0,0.0,0.0,0.0,0.0,0.0,0.0,0.0,0.0,0.0,0.0,0.0,0.0,0.0,0.0,0.0,0.0,0.0,0.0,0.0,0.0,0.0,0.0,0.0,0.0,0.0,0.0,0.0,0.0,0.0,0.0,-5.1152,-5.1883,-5.2063,-5.1718,-5.0712,-4.8767,0.0,0.0,0.0,0.0,0.0,0.0,0.0,0.0,0.0,0.0,0.0,0.0,0.0,0.0,0.0,0.0,0.0,0.0,0.0,0.0,0.0,0.0,0.0,0.0,0.0,0.0,0.0,0.0,0.0,0.0,0.0,0.0,0.0,0.0,0.0,0.0,0.0,0.0,0.0,0.0,0.0,0.0,0.0,0.0,0.0,0.0,0.0,0.0,0.0,0.0,0.0,0.0,0.0,0.0,0.0,0.0,0.0,0.0,0.0,0.0,0.0,0.0,0.0,0.0,0.0,0.0,0.0,0.0,0.0,0.0,0.0,0.0,0.0,0.0,0.0,0.0,0.0,0.0,0.0,0.0,0.0,0.0,0.0,0.0,0.0,0.0,0.0,0.0,0.0,0.0,0.0,0.0,0.0,0.0,0.0,0.0,0.0,0.0,0.0,0.0,0.0,0.0,0.0,0.0,0.0,0.0,0.0,0.0,0.0,-5.0136,0.0,-5.2066,-5.1738,-5.0422,-4.8566,0.0,0.0,0.0,0.0,0.0,0.0,0.0,0.0,0.0,0.0,0.0,0.0,0.0,0.0,0.0,0.0,0.0,0.0,0.0,0.0,0.0,0.0,0.0,0.0,0.0,0.0,0.0,0.0,0.0,0.0,0.0,0.0,0.0,0.0,0.0,0.0,0.0,0.0,0.0,0.0,0.0,0.0,0.0,0.0,0.0,0.0,0.0,0.0,0.0,0.0,0.0,0.0,0.0,0.0,0.0,0.0,0.0,0.0,0.0,0.0,0.0,0.0,0.0,0.0,0.0,0.0,0.0,0.0,0.0,0.0,0.0,0.0,0.0,0.0,0.0,0.0,0.0,0.0,0.0,0.0,0.0,0.0,0.0,0.0,0.0,0.0,0.0,0.0,0.0,0.0,0.0,0.0,0.0,0.0,0.0,0.0,0.0,0.0,0.0,0.0,0.0,0.0,0.0,0.0,0.0,0.0,0.0,0.0,-4.851,-5.0817,-5.1745,-5.1834,-5.0975,-5.0163,-4.8856,0.0,0.0,0.0,0.0,0.0,0.0,0.0,0.0,0.0,0.0,0.0,0.0,0.0,0.0,0.0,0.0,0.0,0.0,0.0,0.0,0.0,0.0,0.0,0.0,0.0,0.0,0.0,0.0,0.0,0.0,0.0,0.0,0.0,0.0,0.0,0.0,0.0,0.0,0.0,0.0,0.0,0.0,0.0,0.0,0.0,0.0,0.0,0.0,0.0,0.0,0.0,0.0,0.0,0.0,0.0,0.0,0.0,0.0,0.0,0.0,0.0,0.0,0.0,0.0,0.0,0.0,0.0,0.0,0.0,0.0,0.0,0.0,0.0,0.0,0.0,0.0,0.0,0.0,0.0,0.0,0.0,0.0,0.0,0.0,0.0,0.0,0.0,0.0,0.0,0.0,0.0,0.0,0.0,0.0,0.0,0.0,0.0,0.0,0.0,0.0,0.0,0.0,0.0,0.0,0.0,0.0,0.0,0.0,0.0,-5.0867,-5.1757,-5.2356,-5.2608,-5.07,-4.9084,0.0,0.0,0.0,0.0,0.0,0.0,0.0,0.0,0.0,0.0,0.0,0.0,0.0,0.0,0.0,0.0,0.0,0.0,0.0,0.0,0.0,0.0,0.0,0.0,0.0,0.0,0.0,0.0,0.0,0.0,0.0,0.0,0.0,0.0,0.0,0.0,0.0,0.0,0.0,0.0,0.0,0.0,0.0,0.0,0.0,0.0,0.0,0.0,0.0,0.0,0.0,0.0,0.0,0.0,0.0,0.0,0.0,0.0,0.0,0.0,0.0,0.0,0.0,0.0,0.0,0.0,0.0,0.0,0.0,0.0,0.0,0.0,0.0,0.0,0.0,0.0,0.0,0.0,0.0,0.0,0.0,0.0,0.0,0.0,0.0,0.0,0.0,0.0,0.0,0.0,0.0,0.0,0.0,0.0,0.0,0.0,0.0,0.0,0.0,0.0,0.0,0.0,0.0,0.0,0.0,0.0,0.0,0.0,0.0,-5.1834,-5.2395,-5.2945,-5.3478,-5.0963,-4.9319,-4.8718,0.0,0.0,0.0,0.0,0.0,0.0,0.0,0.0,0.0,0.0,0.0,0.0,0.0,0.0,0.0,0.0,0.0,0.0,0.0,0.0,0.0,0.0,0.0,0.0,0.0,0.0,0.0,0.0,0.0,0.0,0.0,0.0,0.0,0.0,0.0,0.0,0.0,0.0,0.0,0.0,0.0,0.0,0.0,0.0,0.0,0.0,0.0,0.0,0.0,0.0,0.0,0.0,0.0,0.0,0.0,0.0,0.0,0.0,0.0,0.0,0.0,0.0,0.0,0.0,0.0,0.0,0.0,0.0,0.0,0.0,0.0,0.0,0.0,0.0,0.0,0.0,0.0,0.0,0.0,0.0,0.0,0.0,0.0,0.0,0.0,0.0,0.0,0.0,0.0,0.0,0.0,0.0,0.0,0.0,0.0,0.0,0.0,0.0,0.0,0.0,0.0,0.0,0.0,0.0,0.0,0.0,0.0,0.0,-5.3478,-5.3594,-5.3691,-5.373,-5.1233,-4.9743,0.0,0.0,0.0,0.0,0.0,0.0,0.0,0.0,0.0,0.0,0.0,0.0,0.0,0.0,0.0,0.0,0.0,0.0,0.0,0.0,0.0,0.0,0.0,0.0,0.0,0.0,0.0,0.0,0.0,0.0,0.0,0.0,0.0,0.0,0.0,0.0,0.0,0.0,0.0,0.0,0.0,0.0,0.0,0.0,0.0,0.0,0.0,0.0,0.0,0.0,0.0,0.0,0.0,0.0,0.0,0.0,0.0,0.0,0.0,0.0,0.0,0.0,0.0,0.0,0.0,0.0,0.0,0.0,0.0,0.0,0.0,0.0,0.0,0.0,0.0,0.0,0.0,0.0,0.0,0.0,0.0,0.0,0.0,0.0,0.0,0.0,0.0,0.0,0.0,0.0,0.0,0.0,0.0,0.0,0.0,0.0,0.0,0.0,0.0,0.0,0.0,0.0,0.0,0.0,0.0,0.0,0.0,0.0,0.0,-5.344,-5.4701,-5.5631,-5.6161,-5.3741,-5.1757,0.0,0.0,0.0,0.0,0.0,0.0,0.0,0.0,0.0,0.0,0.0,0.0,0.0,0.0,0.0,0.0,0.0,0.0,0.0,0.0,0.0,0.0,0.0,0.0,0.0,0.0,0.0,0.0,0.0,0.0,0.0,0.0,0.0,0.0,0.0,0.0,0.0,0.0,0.0,0.0,0.0,0.0,0.0,0.0,0.0,0.0,0.0,0.0,0.0,0.0,0.0,0.0,0.0,0.0,0.0,0.0,0.0,0.0,0.0,0.0,0.0,0.0,0.0,0.0,0.0,0.0,0.0,0.0,0.0,0.0,0.0,0.0,0.0,0.0,0.0,0.0,0.0,0.0,0.0,0.0,0.0,0.0,0.0,0.0,0.0,0.0,0.0,0.0,0.0,0.0,0.0,0.0,0.0,0.0,0.0,0.0,0.0,0.0,0.0,0.0,0.0,0.0,0.0,0.0,0.0,0.0,0.0,0.0,-5.2821,-5.4542,-5.62,-5.7265,-5.769,-5.4882,-5.2647,0.0,0.0,0.0,0.0,0.0,0.0,0.0,0.0,0.0,0.0,0.0,0.0,0.0,0.0,0.0,0.0,0.0,0.0,0.0,0.0,0.0,0.0,0.0,0.0,0.0,0.0,0.0,0.0,0.0,0.0,0.0,0.0,0.0,0.0,0.0,0.0,0.0,0.0,0.0,0.0,0.0,0.0,0.0,0.0,0.0,0.0,0.0,0.0,0.0,0.0,0.0,0.0,0.0,0.0,0.0,0.0,0.0,0.0,0.0,0.0,0.0,0.0,0.0,0.0,0.0,0.0,0.0,0.0,0.0,0.0,0.0,0.0,0.0,0.0,0.0,0.0,0.0,0.0,0.0,0.0,0.0,0.0,0.0,0.0,0.0,0.0,0.0,0.0,0.0,0.0,0.0,0.0,0.0,0.0,0.0,0.0,0.0,0.0,0.0,0.0,0.0,0.0,0.0,0.0,0.0,0.0,0.0,0.0,-5.4175,-5.5849,-5.7408,-5.8269,-5.8287,-5.5239,-5.2933,0.0,0.0,0.0,0.0,0.0,0.0,0.0,0.0,0.0,0.0,0.0,0.0,0.0,0.0,0.0,0.0,0.0,0.0,0.0,0.0,0.0,0.0,0.0,0.0,0.0,0.0,0.0,0.0,0.0,0.0,0.0,0.0,0.0,0.0,0.0,0.0,0.0,0.0,0.0,0.0,0.0,0.0,0.0,0.0,0.0,0.0,0.0,0.0,0.0,0.0,0.0,0.0,0.0,0.0,0.0,0.0,0.0,0.0,0.0,0.0,0.0,0.0,0.0,0.0,0.0,0.0,0.0,0.0,0.0,0.0,0.0,0.0,0.0,0.0,0.0,0.0,0.0,0.0,0.0,0.0,0.0,0.0,0.0,0.0,0.0,0.0,0.0,0.0,0.0,0.0,0.0,0.0,0.0,0.0,0.0,0.0,0.0,0.0,0.0,0.0,0.0,0.0,0.0,0.0,0.0,0.0,0.0,0.0,-5.3323,-5.5006,-5.5961,-5.7072,-5.8344,-5.6357,-5.4086,0.0,0.0,0.0,0.0,0.0,0.0,0.0,0.0,0.0,0.0,0.0,0.0,0.0,0.0,0.0,0.0,0.0,0.0,0.0,0.0,0.0,0.0,0.0,0.0,0.0,0.0,0.0,0.0,0.0,0.0,0.0,0.0,0.0,0.0,0.0,0.0,0.0,0.0,0.0,0.0,0.0,0.0,0.0,0.0,0.0,0.0,0.0,0.0,-5.2434,0.0,0.0,0.0,0.0,0.0,0.0,0.0,0.0,0.0,0.0,0.0,0.0,0.0,0.0,0.0,0.0,0.0,0.0,0.0,0.0,0.0,0.0,0.0,0.0,0.0,0.0,0.0,0.0,0.0,0.0,0.0,0.0,0.0,0.0,0.0,0.0,0.0,0.0,0.0,0.0,0.0,0.0,0.0,0.0,0.0,0.0,0.0,0.0,0.0,0.0,0.0,0.0,0.0,0.0,0.0,0.0,0.0,0.0,0.0,-5.4445,-5.5374,-5.6493,-5.7322,-5.7766,-5.6876,-5.4951,0.0,0.0,0.0,0.0,0.0,0.0,0.0,0.0,0.0,0.0,0.0,0.0,0.0,0.0,0.0,0.0,0.0,0.0,0.0,0.0,0.0,0.0,0.0,0.0,0.0,0.0,0.0,0.0,0.0,0.0,0.0,0.0,0.0,0.0,0.0,0.0,0.0,0.0,0.0,0.0,0.0,0.0,0.0,0.0,0.0,0.0,0.0,0.0,0.0,0.0,0.0,0.0,0.0,0.0,0.0,0.0,0.0,0.0,0.0,0.0,0.0,0.0,0.0,0.0,0.0,0.0,0.0,0.0,0.0,0.0,0.0,0.0,0.0,0.0,0.0,0.0,0.0,0.0,0.0,0.0,0.0,0.0,0.0,0.0,0.0,0.0,0.0,0.0,0.0,0.0,0.0,0.0,0.0,0.0,0.0,0.0,0.0,0.0,0.0,0.0,0.0,0.0,0.0,0.0,0.0,0.0,0.0,-5.402,-5.5617,-5.6033,-5.7333,-5.7746,-5.7196,-5.693,-5.5351,-5.2325,0.0,0.0,0.0,0.0,0.0,0.0,0.0,0.0,0.0,0.0,0.0,0.0,0.0,0.0,0.0,0.0,0.0,0.0,0.0,0.0,0.0,0.0,0.0,0.0,0.0,0.0,0.0,0.0,0.0,0.0,0.0,0.0,0.0,0.0,0.0,0.0,0.0,0.0,-4.7901,-4.9975,0.0,0.0,0.0,0.0,0.0,0.0,0.0,0.0,-5.0567,0.0,0.0,0.0,0.0,0.0,0.0,0.0,0.0,0.0,0.0,0.0,0.0,0.0,0.0,0.0,0.0,0.0,0.0,0.0,0.0,0.0,0.0,0.0,0.0,0.0,0.0,0.0,0.0,0.0,0.0,0.0,0.0,0.0,0.0,0.0,0.0,0.0,0.0,0.0,0.0,0.0,0.0,0.0,0.0,0.0,0.0,0.0,0.0,0.0,0.0,0.0,0.0,0.0,0.0,0.0,0.0,-5.3014,-5.2917,-5.3848,-5.5931,-5.6194,-5.655,-5.7068,-5.6332,-5.4457,-5.1507,0.0,0.0,0.0,0.0,0.0,0.0,0.0,0.0,0.0,0.0,0.0,0.0,0.0,0.0,0.0,0.0,0.0,0.0,0.0,0.0,0.0,0.0,0.0,0.0,0.0,0.0,0.0,0.0,0.0,0.0,0.0,0.0,0.0,0.0,0.0,0.0,0.0,0.0,0.0,-5.2399,-5.3402,0.0,0.0,0.0,0.0,0.0,0.0,0.0,0.0,-4.9868,0.0,0.0,0.0,0.0,0.0,0.0,0.0,0.0,0.0,0.0,0.0,0.0,0.0,0.0,0.0,0.0,0.0,0.0,0.0,0.0,0.0,0.0,0.0,0.0,0.0,0.0,0.0,0.0,0.0,0.0,0.0,0.0,0.0,0.0,0.0,0.0,0.0,0.0,0.0,0.0,0.0,0.0,0.0,0.0,0.0,0.0,0.0,0.0,0.0,0.0,0.0,0.0,0.0,0.0,0.0,-5.2086,-5.3459,-5.4768,-5.598,-5.6792,-5.6955,-5.6422,-5.5562,-5.3633,0.0,0.0,0.0,0.0,0.0,0.0,0.0,0.0,0.0,0.0,0.0,0.0,0.0,0.0,0.0,0.0,0.0,0.0,0.0,0.0,0.0,0.0,0.0,0.0,0.0,0.0,0.0,0.0,0.0,0.0,0.0,0.0,0.0,0.0,0.0,0.0,0.0,0.0,0.0,0.0,-5.2996,-5.3831,-5.4677,0.0,0.0,0.0,0.0,0.0,0.0,-5.1044,-5.005,0.0,0.0,0.0,0.0,0.0,0.0,0.0,0.0,0.0,0.0,0.0,0.0,0.0,0.0,0.0,0.0,0.0,0.0,0.0,0.0,0.0,0.0,0.0,0.0,0.0,0.0,0.0,0.0,0.0,0.0,0.0,0.0,0.0,0.0,0.0,0.0,0.0,0.0,0.0,0.0,0.0,0.0,0.0,0.0,0.0,0.0,0.0,0.0,0.0,0.0,0.0,0.0,0.0,0.0,0.0,-5.0956,-5.3768,-5.5474,-5.6,-5.7062,-5.6955,-5.5565,-5.4654,-5.2744,0.0,0.0,0.0,0.0,0.0,0.0,0.0,0.0,0.0,0.0,0.0,0.0,0.0,0.0,0.0,0.0,0.0,0.0,0.0,0.0,0.0,0.0,0.0,0.0,0.0,0.0,0.0,0.0,0.0,0.0,0.0,0.0,0.0,0.0,0.0,0.0,0.0,0.0,0.0,0.0,0.0,-5.4542,-5.4542,-5.4097,0.0,0.0,0.0,0.0,-5.2207,-5.1391,0.0,0.0,0.0,0.0,0.0,0.0,0.0,0.0,0.0,0.0,0.0,0.0,0.0,0.0,0.0,0.0,0.0,0.0,0.0,0.0,0.0,0.0,0.0,0.0,0.0,0.0,0.0,0.0,0.0,0.0,0.0,0.0,0.0,0.0,0.0,0.0,0.0,0.0,0.0,0.0,0.0,0.0,0.0,0.0,0.0,0.0,0.0,0.0,0.0,0.0,0.0,0.0,0.0,0.0,0.0,0.0,-5.0821,-5.2028,-5.3688,-5.576,-5.5326,-5.4921,-5.4636,-5.3575,-5.1667,0.0,0.0,0.0,0.0,0.0,0.0,0.0,0.0,0.0,0.0,0.0,0.0,0.0,0.0,0.0,0.0,0.0,0.0,0.0,0.0,0.0,0.0,0.0,0.0,0.0,0.0,0.0,0.0,0.0,0.0,0.0,0.0,0.0,0.0,0.0,0.0,0.0,0.0,0.0,0.0,0.0,-5.6949,-5.4039,-5.4213,-5.402,0.0,0.0,-5.3481,-5.4159,-5.3685,0.0,0.0,0.0,0.0,0.0,0.0,0.0,0.0,0.0,0.0,0.0,0.0,0.0,0.0,0.0,0.0,0.0,0.0,0.0,0.0,0.0,0.0,0.0,0.0,0.0,0.0,0.0,0.0,0.0,0.0,0.0,0.0,0.0,0.0,0.0,0.0,0.0,0.0,0.0,0.0,0.0,0.0,0.0,0.0,0.0,0.0,0.0,0.0,0.0,0.0,0.0,0.0,0.0,0.0,0.0,-4.8624,-5.0183,-5.1481,-5.2889,-5.4342,-5.4063,-5.3841,-5.376,-5.1732,-5.0009,0.0,0.0,0.0,0.0,0.0,0.0,0.0,0.0,0.0,0.0,0.0,0.0,0.0,0.0,0.0,0.0,0.0,0.0,0.0,0.0,0.0,0.0,0.0,0.0,0.0,0.0,0.0,0.0,0.0,0.0,0.0,0.0,0.0,0.0,0.0,0.0,0.0,0.0,0.0,0.0,0.0,0.0,-5.4445,-5.4967,0.0,0.0,0.0,-5.3928,-5.3426,0.0,0.0,0.0,0.0,0.0,0.0,0.0,0.0,0.0,0.0,0.0,0.0,0.0,0.0,0.0,0.0,0.0,0.0,0.0,0.0,0.0,0.0,0.0,0.0,0.0,0.0,0.0,0.0,0.0,0.0,0.0,0.0,0.0,0.0,0.0,0.0,0.0,0.0,0.0,0.0,0.0,0.0,0.0,0.0,0.0,0.0,0.0,0.0,0.0,0.0,0.0,0.0,0.0,0.0,0.0,0.0,0.0,-4.9687,-5.1299,-5.2417,-5.2962,-5.2993,-5.2868,-5.2529,-5.0363,0.0,0.0,0.0,0.0,0.0,0.0,0.0,0.0,0.0,0.0,0.0,0.0,0.0,0.0,0.0,0.0,0.0,0.0,0.0,0.0,0.0,0.0,0.0,0.0,0.0,0.0,0.0,-4.1048,0.0,0.0,0.0,0.0,0.0,0.0,0.0,0.0,0.0,0.0,0.0,0.0,0.0,0.0,-5.4639,-5.4194,-5.52,-5.5763,0.0,0.0,-5.4408,-5.3308,-5.367,-5.2953,0.0,0.0,0.0,0.0,0.0,0.0,0.0,0.0,0.0,0.0,0.0,0.0,0.0,0.0,0.0,0.0,0.0,0.0,0.0,0.0,0.0,0.0,0.0,0.0,0.0,0.0,0.0,0.0,0.0,0.0,0.0,0.0,0.0,0.0,0.0,0.0,0.0,0.0,0.0,0.0,0.0,0.0,0.0,0.0,0.0,0.0,0.0,0.0,0.0,0.0,0.0,0.0,0.0,0.0,0.0,-4.9707,-5.1331,-5.2161,-5.2171,-5.2181,-5.175,-5.0894,-5.0123,-4.8643,0.0,0.0,0.0,0.0,0.0,0.0,0.0,0.0,0.0,0.0,0.0,0.0,0.0,0.0,0.0,0.0,0.0,0.0,0.0,0.0,0.0,0.0,0.0,0.0,0.0,0.0,0.0,0.0,0.0,0.0,0.0,0.0,0.0,0.0,0.0,0.0,0.0,0.0,0.0,0.0,0.0,-5.4213,-5.2589,-5.4445,-5.5975,0.0,0.0,-5.5301,-5.5115,-5.528,-5.4065,-5.0012,0.0,0.0,0.0,0.0,0.0,0.0,0.0,0.0,0.0,0.0,0.0,0.0,0.0,0.0,0.0,0.0,0.0,0.0,0.0,0.0,0.0,0.0,0.0,0.0,0.0,0.0,0.0,0.0,0.0,0.0,0.0,0.0,0.0,0.0,0.0,0.0,0.0,0.0,0.0,0.0,0.0,0.0,0.0,0.0,0.0,0.0,0.0,0.0,0.0,0.0,0.0,0.0,0.0,-4.6883,-4.8101,-4.9742,-5.0552,-5.0493,-5.0496,-5.0316,-4.9904,-4.8338,-4.7075,0.0,0.0,0.0,0.0,0.0,0.0,0.0,0.0,0.0,0.0,0.0,0.0,0.0,0.0,0.0,0.0,0.0,0.0,0.0,0.0,0.0,0.0,0.0,0.0,0.0,0.0,0.0,0.0,-4.3131,-4.3401,-4.4033,0.0,0.0,0.0,0.0,0.0,0.0,0.0,0.0,0.0,0.0,-5.3323,-5.373,-5.5045,0.0,0.0,-5.5182,-5.4527,-5.4278,-5.3728,-5.2198,-4.888,-4.782,0.0,0.0,0.0,0.0,0.0,0.0,0.0,0.0,0.0,0.0,0.0,0.0,0.0,0.0,0.0,0.0,0.0,0.0,0.0,0.0,0.0,0.0,0.0,0.0,0.0,0.0,0.0,0.0,0.0,0.0,0.0,0.0,0.0,0.0,0.0,0.0,0.0,0.0,0.0,0.0,0.0,0.0,0.0,0.0,0.0,0.0,0.0,0.0,0.0,0.0,0.0,0.0,-4.5877,-4.6697,-4.8373,-4.9068,-4.8775,-4.8994,-4.896,-4.8625,-4.73,-4.6314,0.0,0.0,0.0,0.0,0.0,0.0,0.0,0.0,0.0,0.0,0.0,0.0,0.0,0.0,0.0,0.0,0.0,0.0,0.0,0.0,0.0,0.0,0.0,0.0,0.0,0.0,0.0,0.0,-4.3827,-4.3827,-4.3827,0.0,0.0,0.0,0.0,0.0,0.0,0.0,0.0,0.0,0.0,-5.2627,-5.3846,-5.492,-5.5458,-5.5065,-5.4196,-5.3385,-5.2778,-5.2159,-5.0837,-4.8142,0.0,0.0,0.0,0.0,0.0,0.0,0.0,0.0,0.0,0.0,0.0,0.0,0.0,0.0,0.0,0.0,0.0,0.0,0.0,0.0,0.0,0.0,0.0,0.0,0.0,0.0,0.0,0.0,0.0,0.0,-4.5671,0.0,0.0,0.0,0.0,0.0,0.0,0.0,0.0,0.0,0.0,0.0,0.0,0.0,0.0,0.0,0.0,0.0,0.0,0.0,0.0,0.0,0.0,-4.5026,-4.5845,-4.7465,-4.7928,-4.7135,-4.7827,-4.7833,-4.7038,-4.738,-4.679,-4.4905,0.0,0.0,0.0,0.0,0.0,0.0,0.0,0.0,0.0,0.0,0.0,0.0,0.0,0.0,0.0,0.0,0.0,0.0,0.0,0.0,0.0,0.0,0.0,0.0,0.0,0.0,-4.2106,-4.2067,-4.2106,0.0,0.0,0.0,0.0,0.0,0.0,0.0,0.0,0.0,0.0,-5.0596,-5.219,-5.226,-5.3658,-5.4323,-5.3155,-5.2666,-5.2035,-5.0876,-5.1084,-5.0561,0.0,0.0,0.0,0.0,0.0,0.0,0.0,0.0,0.0,0.0,0.0,0.0,0.0,0.0,0.0,0.0,0.0,0.0,0.0,0.0,0.0,0.0,0.0,0.0,0.0,0.0,0.0,-4.6767,-4.6213,0.0,0.0,0.0,0.0,0.0,0.0,0.0,0.0,0.0,0.0,0.0,-4.5768,-4.4987,0.0,0.0,0.0,0.0,0.0,0.0,0.0,0.0,0.0,0.0,0.0,0.0,-4.4123,-4.4964,-4.6619,-4.7314,-4.694,-4.7193,-4.7197,-4.6913,-4.6347,-4.4809,-4.2259,0.0,0.0,0.0,0.0,0.0,0.0,0.0,0.0,0.0,0.0,0.0,0.0,0.0,0.0,0.0,0.0,0.0,0.0,0.0,0.0,0.0,0.0,0.0,0.0,0.0,-4.2628,0.0,0.0,0.0,0.0,0.0,0.0,0.0,0.0,0.0,0.0,0.0,-4.698,-4.901,-4.9997,-5.0673,-5.1073,-5.2541,-5.3161,0.0,0.0,0.0,0.0,0.0,0.0,0.0,0.0,0.0,0.0,0.0,0.0,0.0,0.0,-4.7516,-4.5639,-4.5064,-4.4785,-4.4525,0.0,0.0,0.0,0.0,0.0,0.0,0.0,0.0,0.0,0.0,0.0,0.0,0.0,0.0,-4.6817,0.0,-4.5653,0.0,0.0,0.0,0.0,0.0,0.0,0.0,0.0,-4.638,-4.6078,-4.5787,-4.5258,-4.4717,0.0,-4.4175,-4.373,0.0,0.0,0.0,0.0,0.0,0.0,0.0,0.0,-4.3253,-4.4095,-4.5464,-4.6275,-4.6458,-4.6444,-4.6448,-4.6451,-4.5548,-4.4034,-4.1863,-4.1161,-3.9561,0.0,0.0,0.0,0.0,0.0,0.0,0.0,0.0,0.0,0.0,0.0,0.0,0.0,0.0,0.0,0.0,0.0,0.0,0.0,0.0,0.0,0.0,0.0,-4.2841,0.0,0.0,0.0,0.0,0.0,0.0,0.0,0.0,0.0,-4.6902,-4.6864,-4.7313,-4.8932,-4.9658,-4.9926,-4.9634,0.0,0.0,0.0,0.0,0.0,0.0,0.0,-4.7256,-4.5937,-4.5732,-4.5788,-4.6067,-4.6773,-4.7367,-4.7664,0.0,0.0,-4.6401,-4.6122,-4.6048,-4.5769,-4.6141,-4.6513,-4.6513,-4.6559,-4.6366,0.0,0.0,0.0,0.0,0.0,0.0,0.0,0.0,-4.7578,-4.7159,0.0,-4.5409,0.0,0.0,0.0,0.0,0.0,-4.6639,0.0,0.0,-4.667,-4.6631,-4.5884,-4.5807,-4.5787,-4.5807,-4.5768,-4.5355,-4.4497,-4.2879,0.0,0.0,0.0,0.0,0.0,0.0,-4.2415,-4.324,-4.4001,-4.4766,-4.5565,-4.5541,-4.5518,-4.549,-4.5039,-4.4369,-4.3542,-4.2294,-4.0853,-3.9166,-3.8324,0.0,0.0,0.0,0.0,0.0,0.0,0.0,0.0,0.0,0.0,0.0,0.0,0.0,0.0,0.0,0.0,0.0,0.0,0.0,0.0,-4.3247,0.0,0.0,0.0,0.0,0.0,0.0,0.0,0.0,0.0,0.0,-4.6876,-4.7727,-4.8253,-4.8074,0.0,0.0,0.0,0.0,-4.9265,-4.7384,-4.7,-4.6608,-4.5518,-4.6605,-4.7311,-4.6494,0.0,0.0,-4.772,-4.6995,-4.6773,-4.7516,-4.7646,-4.7664,-4.7608,-4.7553,-4.7367,-4.6643,-4.6475,-4.6513,-4.6513,-4.6541,-4.6366,-4.832,0.0,0.0,0.0,0.0,-4.6955,-4.7288,-4.7777,-4.7443,-4.6925,-4.6313,-4.5828,0.0,0.0,0.0,0.0,0.0,0.0,-4.6361,-4.6689,-4.6348,-4.6361,-4.6716,-4.6097,-4.5807,-4.5807,-4.5807,-4.5374,-4.4574,-4.3479,-4.2628,-4.199,0.0,0.0,0.0,0.0,-4.2131,-4.2394,-4.3159,-4.3643,-4.3848,-4.3843,-4.3811,-4.3797,-4.4038,-4.3789,-4.298,-4.2404,-4.1329,-3.975,-3.8275,0.0,0.0,0.0,0.0,0.0,0.0,0.0,0.0,0.0,0.0,0.0,0.0,0.0,0.0,0.0,0.0,0.0,0.0,0.0,-4.1474,-4.2028,-4.1699,0.0,0.0,0.0,0.0,0.0,0.0,0.0,0.0,0.0,-4.6747,-4.6557,-4.654,0.0,0.0,-4.7182,-4.581,-4.7428,-4.8126,-4.6236,-4.6807,0.0,0.0,-4.5677,-4.5695,-4.4859,-4.5621,-4.6252,-4.603,-4.6271,-4.6568,-4.681,-4.6847,-4.6828,-4.6865,-4.733,-4.7367,-4.6717,-4.6513,-4.6513,-4.6513,-4.6527,-4.6434,-4.7871,-4.6289,-4.6289,-4.6504,-4.6797,-4.6772,-4.7254,-4.8013,-4.7565,-4.7057,-4.6532,-4.6158,-4.5198,-4.3846,-4.4369,0.0,0.0,0.0,-4.6078,-4.6573,-4.6058,-4.6078,-4.6535,-4.6058,-4.5807,-4.5787,-4.5471,-4.5084,-4.4581,-4.3363,-4.2531,-4.199,0.0,0.0,-4.0797,-4.128,-4.1693,-4.1995,-4.2458,-4.2855,-4.3119,-4.3127,-4.3103,-4.311,-4.3321,-4.3204,-4.2717,-4.2137,-4.137,-4.0396,-3.8746,-3.7666,0.0,0.0,0.0,0.0,0.0,0.0,0.0,0.0,0.0,0.0,0.0,-3.8605,-3.7767,0.0,0.0,0.0,-4.0075,-4.1139,-4.0835,-4.1506,0.0,0.0,0.0,0.0,0.0,0.0,0.0,-4.5838,-4.5916,-4.5904,-4.6236,-4.5754,-4.5659,-4.6423,-4.6429,-4.595,-4.4827,0.0,-4.6692,-4.523,-4.5714,-4.59,-4.4934,-4.5064,-4.5212,-4.5045,-4.5417,-4.5769,-4.5788,-4.6197,-4.6494,-4.6513,-4.6513,-4.6382,-4.6085,-4.642,-4.6735,-4.655,-4.6513,-4.6513,-4.6513,-4.6513,-4.642,-4.7832,-4.6308,-4.6289,-4.6758,-4.748,-4.75,-4.793,-4.8613,-4.7762,-4.7377,-4.7262,-4.64,-4.5531,-4.4711,-4.4697,0.0,-4.5807,-4.5807,-4.5807,-4.5807,-4.5807,-4.5807,-4.5807,-4.5749,-4.5703,-4.5691,-4.4891,-4.4427,-4.4207,-4.2744,-4.1912,-4.1777,-4.1145,-4.0797,-4.0797,-4.0816,-4.1164,-4.1893,-4.1899,-4.2265,-4.2973,-4.2926,-4.2888,-4.2888,-4.2726,-4.2632,-4.2622,-4.1675,-4.1149,-4.1092,-3.9568,-3.8287,-3.7489,0.0,0.0,0.0,0.0,0.0,0.0,0.0,0.0,0.0,0.0,0.0,0.0,0.0,0.0,0.0,-4.0346,0.0,-4.0855,-4.1467,0.0,0.0,0.0,-4.0835,-4.0893,-4.2338,-4.3634,-4.4497,0.0,0.0,-4.5516,-4.5323,-4.5401,-4.593,-4.5982,-4.5621,-4.4636,-4.5117,-4.5219,-4.4468,-4.4224,-4.4098,-4.3986,-4.4413,-4.4968,-4.5528,-4.6104,-4.5881,-4.5844,-4.59,-4.6048,-4.59,-4.6067,-4.5807,-4.5082,-4.4915,-4.5247,-4.5825,-4.6141,-4.6234,-4.6048,-4.6011,-4.5732,-4.7285,-4.6308,-4.6289,-4.6426,-4.6601,-4.6601,-4.6738,-4.6894,-4.6679,-4.6552,-4.6481,-4.6236,-4.5967,-4.5662,-4.5564,-4.5633,-4.5807,-4.5807,-4.5807,-4.5807,-4.5807,-4.5807,-4.5761,-4.5162,-4.4891,-4.4833,-4.402,-4.2937,-4.1757,-4.1912,-4.1358,-4.0178,-4.0565,-4.0797,-4.0797,-4.0797,-4.0893,-4.1081,-4.1094,-4.1152,-4.1299,-4.1219,-4.1198,-4.1198,-4.1771,-4.2088,-4.2088,-4.1801,-4.1623,-4.1604,-4.0035,-3.9034,-3.8804,-3.6807,0.0,0.0,0.0,0.0,0.0,0.0,0.0,0.0,0.0,-3.6574,-3.511,0.0,-3.7212,0.0,-3.8953,-4.0274,-4.0752,-4.0971,0.0,0.0,-4.0681,-4.1048,-4.1641,-4.2647,-4.3653,-4.4497,-4.5297,-4.573,-4.5516,-4.5323,-4.5173,-4.514,-4.4983,-4.4772,-4.4538,-4.508,-4.5219,-4.4509,-4.4615,-4.4525,-4.3318,-4.2705,-4.2612,-4.2723,-4.2779,-4.276,-4.2775,-4.276,-4.276,-4.276,-4.2779,-4.2667,-4.2575,-4.2482,-4.2556,-4.2816,-4.3726,-4.4395,-4.3819,-4.3689,-4.3448,-4.709,-4.6289,-4.6289,-4.6289,-4.6289,-4.6289,-4.6289,-4.6289,-4.6289,-4.6265,-4.6202,-4.6182,-4.6115,-4.6026,-4.5914,-4.588,-4.5873,-4.5834,-4.5613,-4.5278,-4.5258,-4.5045,-4.4659,-4.4233,-4.402,-4.3975,-4.2783,-4.1719,-4.0835,-4.0855,-4.041,-3.9539,-4.0371,-4.0603,-4.0274,-4.0603,-4.0603,-4.0216,-3.9843,-3.9618,-3.9599,-3.9554,-3.9515,-3.9554,-3.9957,-4.0205,-4.0205,-4.0183,-4.0169,-4.013,-3.9266,-3.8586,-3.8175,-3.6511,-3.5392,0.0,0.0,0.0,0.0,0.0,0.0,0.0,0.0,0.0,0.0,0.0,-3.7232,-3.7986,-3.9288,-4.0274,-4.0758,-4.0797,-4.0797,-4.0797,-4.0797,-4.1119,-4.1912,-4.2361,-4.2965,-4.3917,-4.4312,-4.465,-4.4872,-4.4843,-4.4763,-4.4773,-4.4399,-4.4199,-4.4472,-4.4809,-4.4718,-4.3907,-4.4013,-4.3791,-4.246,-4.1906,-4.1605,-4.1605,-4.1605,-4.1605,-4.1605,-4.1605,-4.1605,-4.1605,-4.1605,-4.1605,-4.1605,-4.1605,-4.1605,-4.1702,-4.2296,-4.2686,-4.2352,-4.2277,-4.2092,-4.6973,-4.6308,-4.6289,-4.6289,-4.6289,-4.6289,-4.6289,-4.6289,-4.6289,-4.6266,-4.6207,-4.6134,-4.6118,-4.6095,-4.5993,-4.598,-4.595,-4.5764,-4.5278,-4.4594,-4.4478,-4.4033,-4.3285,-4.3092,-4.2976,-4.2918,-4.1274,-4.0462,-4.0423,-3.9713,-3.9327,-3.9365,-4.0094,-4.0081,-3.9404,-4.0081,-4.01,-3.9346,-3.8586,-3.8212,-3.8212,-3.8208,-3.8215,-3.8195,-3.8138,-3.8119,-3.8119,-3.8112,-3.8086,-3.8086,-3.8112,-3.7771,-3.7013,-3.6215,-3.5372,0.0,-3.3697,0.0,0.0,0.0,0.0,0.0,0.0,0.0,0.0,-3.6632,-3.787,-3.9385,-4.0294,-4.0797,-4.0797,-4.0797,-4.0797,-4.0797,-4.0797,-4.1087,-4.1738,-4.1784,-4.2101,-4.3021,-4.3042,-4.3286,-4.3951,-4.3993,-4.4116,-4.4311,-4.3846,-4.3585,-4.4046,-4.4074,-4.3732,-4.2931,-4.2696,-4.2292,-4.1634,-4.1326,-4.1181,-4.12,-4.1144,-4.1274,-4.1181,-4.12,-4.1219,-4.1219,-4.1163,-4.12,-4.1256,-4.1219,-4.1237,-4.1163,-4.1219,-4.1311,-4.1438,-4.1441,-4.1404,-4.6445,-4.6308,-4.6289,-4.6289,-4.6289,-4.6289,-4.6289,-4.6289,-4.6289,-4.6289,-4.6267,-4.615,-4.6118,-4.6087,-4.5914,-4.5848,-4.5809,-4.5137,-4.4729,-4.4581,-4.3885,-4.3453,-4.3227,-4.1912,-4.128,-4.1164,-3.9533,-3.8702,-3.8682,-3.8528,-3.845,-3.845,-3.8624,-3.8605,-3.845,0.0,0.0,0.0,-3.8295,-3.8212,-3.8212,-3.8212,-3.8206,-3.8206,-3.8176,0.0,-3.8177,-3.8125,-3.8086,-3.8086,-3.8138,0.0,0.0,0.0,0.0,0.0,0.0,0.0,0.0,0.0,0.0,0.0,-3.4568,-3.4781,-3.5665,-3.7721,-3.9152,-3.9481,-4.0294,-4.0797,-4.0797,-4.0797,-4.0797,-4.0797,-4.0797,-4.0874,-4.1048,-4.1538,-4.2041,-4.2215,-4.2676,-4.3036,-4.3162,-4.2948,-4.284,-4.3092,-4.2772,-4.2609,-4.2709,-4.2585,-4.2336,-4.2089,-4.1512,-4.0943,-4.0728,-4.0128,-3.9747,-3.9565,-3.9565,-3.9602,-3.9621,-3.9584,-3.9565,-3.9565,-3.9584,-3.9584,-3.9602,-3.9565,-3.964,-3.9584,-3.9602,-3.977,-4.0471,-4.0606,-4.0401,-4.6289,0.0,-4.6289,-4.6289,0.0,-4.6289,-4.6289,-4.6289,-4.6289,-4.6289,-4.6289,-4.6216,-4.6202,-4.6179,-4.5566,-4.5302,-4.5258,-4.4356,-4.373,-4.3305,-4.286,-4.2222,-4.139,-4.0565,-3.992,-3.9456,-3.8179,-3.7555,-3.7555,-3.7555,-3.756,-3.7555,-3.798,-3.798,-3.756,-3.7174,-3.7154,-3.756,-3.7174,-3.6961,-3.6961,-3.6961,-3.6961,-3.6961,0.0,0.0,0.0,0.0,0.0,0.0,0.0,0.0,0.0,0.0,0.0,-3.5723,-3.5267,-3.4823,-3.4422,-3.4389,-3.4582,-3.5013,-3.5414,-3.582,-3.6265,-3.7483,-3.8392,-3.8824,-3.9262,-3.9688,-4.012,-4.0139,-4.0352,-4.0739,-4.0797,-4.0797,-4.0829,-4.108,-4.1298,-4.1403,-4.1615,-4.1881,-4.2305,-4.2198,-4.2209,-4.247,-4.2144,-4.1825,-4.1768,-4.193,-4.1952,-4.1389,-4.0539,-3.9973,-3.9935,-3.9629,-3.9215,-3.9137,-3.8826,-3.8584,-3.8507,-3.8172,-3.7912,-3.7912,-3.7912,-3.8024,-3.8432,-3.8507,-3.8637,-3.899,-3.9101,-3.9212,-3.9677,-3.9751,-3.964,-4.6289,-4.6289,-4.6289,-4.6289,-4.6289,-4.6289,-4.6289,-4.6289,0.0,0.0,0.0,-4.6289,-4.619,-4.5975,-4.518,-4.4722,-4.4497,-4.3527,-4.2699,-4.2002,-4.1848,-4.1067,-3.9733,-3.9404,-3.8914,-3.8174,-3.7174,-3.6767,-3.6903,-3.6767,-3.6767,-3.6942,-3.7477,-3.74,-3.6671,-3.6033,-3.5955,-3.6419,-3.5955,-3.5704,-3.5704,-3.5704,-3.5704,-3.5704,-3.5704,-3.5704,-3.5704,-3.5704,-3.5704,-3.5704,-3.5704,-3.5704,-3.5704,-3.5704,-3.5704,-3.5704,-3.5704,-3.5704,-3.5704,-3.5704,-3.5704,-3.5704,-3.6323,-3.6748,-3.6884,-3.7038,-3.7419,-3.8135,-3.8212,-3.8502,-3.921,-3.9268,-3.9559,-4.0274,-4.0468,-4.0565,-4.0578,-4.0602,-4.0677,-4.0739,-4.0689,-4.0746,-4.1381,-4.1456,-4.1594,-4.1873,-4.1502,-4.1131,-4.1019,-4.1411,-4.1476,-4.0697,-4.0002,-3.9476,-3.9225,-3.9143,-3.9066,-3.8665,-3.8199,-3.78,-3.7636,-3.7177,-3.6768,-3.6848,-3.6718,-3.7002,-3.7541,-3.7689,-3.7912,-3.8544,-3.8674,-3.8674,-3.8674,-3.8674,-3.8674,-4.6289,-4.6289,-4.6289,-4.6289,-4.6289,-4.6289,-4.6289,-4.6289,-4.6289,-4.6289,-4.6289,-4.624,-4.5799,-4.5095,-4.4902,-4.44,-4.363,-4.2699,-4.2218,0.0,-4.131,-4.0835,-4.0545,-3.9088,-3.8315,-3.8077,-3.6632,-3.6226,-3.6767,-3.6207,-3.6207,-3.6742,-3.6342,-3.5994,-3.5878,-3.5767,-3.5394,-3.4781,-3.538,-3.5704,-3.5704,-3.5704,-3.5704,-3.5704,-3.5684,-3.5704,-3.5704,-3.5704,-3.5704,-3.5704,-3.5704,-3.5704,-3.5704,-3.5665,-3.5704,-3.5704,-3.5704,-3.5704,-3.5704,-3.5704,-3.5704,-3.5704,-3.582,-3.6149,-3.6845,-3.7599,-3.8077,-3.8193,-3.8115,-3.8232,-3.8373,-3.8367,-3.845,-3.8644,-3.9243,-3.9694,-3.9694,-4.0294,-4.0707,-4.0732,-4.0612,-4.0523,-4.07,-4.0594,-4.06,-4.0712,-4.0603,-4.032,-4.0221,-4.0288,-4.0336,-4.0081,-3.9857,-3.9371,-3.8521,-3.8296,-3.7953,-3.7324,-3.7088,-3.6858,-3.6819,-3.6614,-3.6477,-3.6662,-3.6532,-3.6649,-3.6848,-3.6885,-3.6983,-3.7169,-3.7243,-3.7201,-3.7219,-3.7182,-3.7312,-4.5586,-4.5605,-4.5605,-4.5859,-4.6289,-4.6289,-4.6289,-4.623,-4.5801,-4.5586,-4.5605,-4.5544,-4.5072,-4.4231,-4.3675,-4.3224,-4.2812,-4.1909,-4.1502,-4.1459,-4.1095,-4.0416,-3.9474,-3.8632,-3.7773,-3.6852,-3.6098,-3.5878,-3.6168,-3.5858,-3.5878,-3.6168,-3.5414,-3.5007,-3.4974,-3.4524,-3.4098,-3.3726,-3.4543,-3.4775,-3.4325,-3.4287,-3.4311,-3.4306,-3.4737,-3.4993,-3.4993,-3.5458,-3.5472,-3.5013,-3.4993,-3.4781,-3.4331,-3.4292,-3.4287,-3.4311,-3.4737,-3.4993,-3.4993,-3.5433,-3.5704,-3.5704,-3.5704,-3.5839,-3.6226,-3.6613,-3.6845,-3.6845,-3.6845,-3.7038,-3.7419,-3.7497,-3.7671,-3.8154,-3.8586,-3.8779,-3.8876,-3.9559,-4.0081,-4.0113,-4.043,-4.0631,-4.0504,-4.0425,-4.033,-4.0328,-3.9968,-3.9659,-3.9608,-3.8942,-3.8599,-3.894,-3.8999,-3.8376,-3.7225,-3.6892,-3.6489,-3.5686,-3.5128,-3.5043,-3.5206,-3.512,-3.4996,-3.5268,-3.5349,-3.5553,-3.5919,-3.6049,-3.6203,-3.6649,-3.6718,-3.6718,-3.6719,-3.6478,-3.6454,-4.4804,-4.5019,-4.5019,-4.5508,-4.6289,-4.6289,-4.6211,-4.5937,-4.5293,-4.4766,-4.4473,-4.4609,-4.4219,-4.334,-4.2454,-4.2036,-4.1915,-4.1137,-4.0839,-4.0992,-4.0805,-3.9997,-3.8727,-3.8291,-3.7308,-3.6091,-3.5833,-3.5742,-3.5723,-3.5723,-3.5611,-3.5354,-3.4559,-3.4098,-3.4104,-3.3436,-3.301,-3.2875,-3.3479,-3.3596,-3.3126,-3.3107,-3.3107,-3.3165,-3.375,-3.4098,-3.4162,-3.4756,-3.4795,-3.4156,-3.4098,-3.3789,-3.3165,-3.3107,-3.3107,-3.3165,-3.3731,-3.4214,-3.4432,-3.5226,-3.5704,-3.5704,-3.5704,-3.5704,-3.5704,-3.5704,-3.5704,-3.5704,-3.5781,-3.5994,-3.6516,-3.6632,-3.6903,-3.7555,-3.7806,-3.7909,-3.7986,-3.8669,-3.921,-3.9288,-3.9984,-4.0424,-4.0297,-4.0087,-3.9738,-3.9284,-3.8933,-3.8748,-3.8832,-3.7829,-3.7463,-3.7611,-3.7736,-3.6968,-3.563,-3.53,-3.4956,-3.4244,-3.3706,-3.3821,-3.41,-3.3797,-3.3618,-3.4257,-3.4338,-3.4611,-3.512,-3.5262,-3.5485,-3.5913,-3.5988,-3.6093,-3.6056,-3.5751,-3.5681,-4.4223,-4.4959,-4.4961,-4.5508,-4.623,-4.6269,-4.582,-4.5137,-4.5019,-4.4082,-4.2851,-4.3457,-4.3301,-4.248,-4.1641,-4.1289,-4.1191,-4.0336,-4.0322,-4.0885,-4.0218,-3.9737,-3.9315,-3.7962,-3.7141,-3.6809,-3.6161,-3.5781,-3.5781,-3.5749,-3.5392,-3.4582,-3.3684,-3.3209,-3.3209,-3.3112,-3.2701,-3.1947,-3.1985,-3.2372,-3.3068,-3.3107,-3.3107,-3.3107,-3.3165,-3.3223,-3.3242,-3.33,-3.33,-3.3223,-3.3242,-3.3165,-3.3068,-3.3088,-3.3088,-3.3068,-3.3146,-3.3532,-3.435,-3.5206,-3.567,-3.5704,-3.5704,-3.5704,-3.5704,-3.5704,-3.5704,-3.5704,-3.5704,-3.5742,-3.5806,-3.5858,-3.5955,-3.6149,-3.6651,-3.7013,-3.7135,-3.7793,-3.8315,-3.8309,-3.8998,-3.9591,-3.9335,-3.88,-3.8074,-3.7447,-3.7204,-3.7274,-3.7755,-3.7444,-3.6941,-3.6532,-3.5963,-3.5011,-3.4014,-3.3644,-3.3684,-3.3513,-3.3398,-3.3505,-3.3825,-3.4083,-3.4338,-3.3743,-3.4157,-3.4202,-3.4381,-3.4486,-3.4475,-3.4675,-3.4743,-3.4654,-3.4629,-3.4659,-3.4958,-4.2927,-4.3322,-4.3923,-4.4702,-4.5488,-4.5547,-4.5039,-4.4219,-4.3672,-4.3047,-4.2344,-4.1738,-4.125,-4.0898,-4.0566,-4.0176,-3.9668,-3.9783,-3.9742,-3.9683,-3.9733,-3.9278,-3.8242,-3.756,-3.6907,-3.6393,-3.598,-3.5791,-3.5713,-3.5282,-3.484,-3.4387,-3.3147,-3.2453,-3.2414,-3.1948,-3.1504,-3.1174,-3.1111,-3.1258,-3.156,-3.1612,-3.1618,-3.1681,-3.2082,-3.2333,-3.2391,-3.2817,-3.2856,-3.2391,-3.2333,-3.2101,-3.1637,-3.1623,-3.1642,-3.1657,-3.2082,-3.2938,-3.4297,-3.4742,-3.5148,-3.5665,-3.5704,-3.5704,-3.5704,-3.5704,-3.5704,-3.5704,-3.5704,-3.5704,-3.5704,-3.5704,-3.5704,-3.5742,-3.6013,-3.6207,-3.6207,-3.6922,-3.7265,-3.6884,-3.7444,-3.7773,-3.7328,-3.6942,-3.6764,-3.6613,-3.6408,-3.6312,-3.699,-3.6355,-3.557,-3.511,-3.4366,-3.3639,-3.3071,-3.3362,-3.3128,-3.2383,-3.2015,-3.225,-3.2906,-3.2524,-3.2353,-3.2921,-3.3145,-3.337,-3.3609,-3.3265,-3.306,-3.3433,-3.3728,-3.3739,-3.3739,-3.4147,-3.4637,-4.1885,-4.2233,-4.3139,-4.3954,-4.4605,-4.4626,-4.4139,-4.3301,-4.2441,-4.1953,-4.1562,-4.0176,-3.9394,-3.9219,-3.9199,-3.8926,-3.8691,-3.9023,-3.8984,-3.8633,-3.9043,-3.8496,-3.7344,-3.6987,-3.653,-3.6021,-3.5905,-3.5736,-3.544,-3.4627,-3.4075,-3.3663,-3.2367,-3.1658,-3.1581,-3.0979,-3.0709,-3.0704,-3.0647,-3.0623,-3.0656,-3.063,-3.0613,-3.066,-3.1154,-3.1483,-3.1487,-3.2082,-3.214,-3.1521,-3.1468,-3.1217,-3.0656,-3.0617,-3.0617,-3.0675,-3.1347,-3.243,-3.3944,-3.4258,-3.4781,-3.5568,-3.5704,-3.5704,-3.5704,-3.5704,-3.5704,-3.5704,-3.5704,-3.5704,-3.5704,-3.5704,-3.5704,-3.5704,-3.5704,-3.5704,-3.5762,-3.611,-3.5974,-3.5491,-3.5897,-3.5897,-3.5201,-3.5007,-3.5137,-3.5499,-3.5292,-3.5433,-3.6207,-3.5577,-3.482,-3.4615,-3.4095,-3.3462,-3.2862,-3.302,-3.2746,-3.2395,-3.1948,-3.1944,-3.2249,-3.175,-3.1268,-3.2596,-3.2354,-3.2403,-3.2938,-3.2572,-3.258,-3.2991,-3.3125,-3.3101,-3.3382,-3.3886,-3.4253,-4.1285,-4.2181,-4.3031,-4.3478,-4.3665,-4.3654,-4.3186,-4.2322,-4.1582,-4.0801,-4.0019,-3.9082,-3.8223,-3.7539,-3.7539,-3.7851,-3.8379,-3.7832,-3.7891,-3.834,-3.7832,-3.7402,-3.7246,-3.6465,-3.6055,-3.5996,-3.5976,-3.5566,-3.4805,-3.3896,-3.3027,-3.2224,-3.132,-3.0791,-3.0834,-3.0778,-3.0691,-3.0717,-3.0711,-3.0706,-3.0704,-3.0701,-3.0662,-3.0615,-3.066,-3.0708,-3.0699,-3.0718,-3.0714,-3.0675,-3.0694,-3.0656,-3.0617,-3.0602,-3.0602,-3.0675,-3.1333,-3.2164,-3.3093,-3.3891,-3.4689,-3.5458,-3.5637,-3.569,-3.5599,-3.5657,-3.5715,-3.5709,-3.5632,-3.5612,-3.5612,-3.5651,-3.5651,-3.5607,-3.5646,-3.5626,-3.5593,-3.4911,-3.4568,-3.4374,-3.4355,-3.4118,-3.3358,-3.3204,-3.3281,-3.3416,-3.33,-3.3861,-3.5317,-3.5593,-3.5466,-3.5499,-3.5328,-3.4915,-3.3199,-3.3109,-3.3329,-3.289,-3.2485,-3.2535,-3.2956,-3.3118,-3.2567,-3.226,-3.2354,-3.2416,-3.2518,-3.2826,-3.3248,-3.3256,-3.2487,-3.2422,-3.2656,-3.3154,-3.3513,-4.1171,-4.2042,-4.2368,-4.2557,-4.2643,-4.265,-4.1905,-4.0675,-4.0367,-3.9792,-3.9001,-3.8143,-3.7596,-3.7283,-3.6697,-3.664,-3.6953,-3.7168,-3.7187,-3.7031,-3.7168,-3.7012,-3.6465,-3.6113,-3.6016,-3.6016,-3.6016,-3.5566,-3.4687,-3.3827,-3.2986,-3.2146,-3.1263,-3.0831,-3.0831,-3.083,-3.083,-3.0829,-3.0798,-3.0765,-3.0765,-3.0704,-3.0691,-3.0681,-3.0668,-3.0642,-3.0611,-3.0611,-3.0606,-3.0602,-3.0612,-3.0606,-3.0606,-3.0615,-3.06,-3.0643,-3.0871,-3.1413,-3.227,-3.3141,-3.3761,-3.4129,-3.5137,-3.5427,-3.5156,-3.5388,-3.5698,-3.5601,-3.5121,-3.4884,-3.4995,-3.5352,-3.5477,-3.4974,-3.4858,-3.4659,-3.4132,-3.3726,-3.3378,-3.2822,-3.2338,-3.199,-3.2237,-3.1831,-3.1719,-3.2159,-3.2275,-3.3093,-3.4355,-3.4858,-3.5071,-3.5549,-3.5665,-3.5256,-3.4079,-3.3812,-3.3736,-3.3089,-3.2607,-3.2091,-3.2168,-3.1607,-3.0997,-3.092,-3.1374,-3.1732,-3.1572,-3.1786,-3.2444,-3.1992,-3.1278,-3.1166,-3.1719,-3.1907,-3.2274,-4.0887,-4.1461,-4.1513,-4.1404,-4.1247,-4.1222,-4.0474,-3.9249,-3.8945,-3.8567,-3.803,-3.7232,-3.6864,-3.6772,-3.6245,-3.6012,-3.6074,-3.6621,-3.6543,-3.6093,-3.662,-3.6562,-3.6093,-3.6015,-3.6015,-3.5957,-3.5683,-3.5019,-3.3906,-3.3281,-3.2578,-3.1757,-3.1171,-3.0917,-3.0917,-3.0918,-3.0918,-3.0898,-3.0857,-3.0833,-3.0833,-3.0784,-3.0776,-3.078,-3.0777,-3.0556,-3.0255,-3.0486,-3.0312,-2.9927,-3.0051,-3.0203,-3.0223,-3.0486,-3.0634,-3.061,-3.0621,-3.0993,-3.1792,-3.2452,-3.2917,-3.3203,-3.4153,-3.4618,-3.4168,-3.4579,-3.4836,-3.4754,-3.4434,-3.4018,-3.4187,-3.4768,-3.4921,-3.4181,-3.3963,-3.375,-3.3184,-3.285,-3.2449,-3.1927,-3.1236,-3.112,-3.1526,-3.1057,-3.112,-3.1695,-3.1797,-3.2435,-3.3596,-3.4258,-3.4549,-3.5168,-3.551,-3.524,-3.4362,-3.3862,-3.3592,-3.297,-3.2274,-3.1731,-3.12,-3.0452,-2.9895,-2.9811,-2.9961,-3.0376,-3.0646,-3.08,-3.0575,-3.0208,-2.9673,-2.9382,-2.9927,-3.0415,-3.079,-4.0516,-4.0569,-4.0516,-4.0156,-3.9661,-3.9561,-3.902,-3.823,-3.7493,-3.7241,-3.7074,-3.6315,-3.6079,-3.6024,-3.6004,-3.5989,-3.6008,-3.6107,-3.6108,-3.6031,-3.6089,-3.6089,-3.6011,-3.6011,-3.5933,-3.5836,-3.5112,-3.3864,-3.2401,-3.2263,-3.1833,-3.109,-3.0973,-3.0915,-3.0914,-3.0916,-3.0916,-3.0915,-3.0897,-3.0897,-3.0914,-3.0897,-3.0839,-3.0799,-3.0779,-3.033,-2.947,-3.025,-2.9989,-2.8651,-2.9063,-2.9401,-2.9616,-3.0236,-3.0659,-3.0626,-3.0622,-3.1025,-3.1708,-3.1945,-3.2395,-3.2805,-3.3208,-3.3425,-3.327,-3.3348,-3.3464,-3.3483,-3.3382,-3.3246,-3.3339,-3.3916,-3.4105,-3.3305,-3.3247,-3.3209,-3.2894,-3.2295,-3.1811,-3.1676,-3.1101,-3.0984,-3.1386,-3.1101,-3.0965,-3.156,-3.1811,-3.2217,-3.3281,-3.3905,-3.4278,-3.4568,-3.4795,-3.4659,-3.4176,-3.3687,-3.3262,-3.2787,-3.2076,-3.1465,-3.1028,-3.0398,-2.9665,-2.9433,-2.9276,-2.9642,-2.9712,-2.976,-2.9219,-2.8797,-2.8197,-2.7983,-2.8462,-2.9026,-2.9251,-4.0496,-4.0439,-3.99,-3.9557,-3.9241,-3.8696,-3.8028,-3.7341,-3.7022,-3.6651,-3.6195,-3.5891,-3.5788,-3.5816,-3.589,-3.5927,-3.5947,-3.597,-3.6004,-3.6009,-3.601,-3.5991,-3.5991,-3.5991,-3.5678,-3.517,-3.4858,-3.3804,-3.2379,-3.2086,-3.1676,-3.1051,-3.0914,-3.0914,-3.0914,-3.0915,-3.0914,-3.0914,-3.0914,-3.0914,-3.0914,-3.0914,-3.062,-3.009,-2.9992,-2.9566,-2.8769,-2.9996,-3.0137,-2.8998,-2.9294,-2.9471,-2.9606,-3.029,-3.0734,-3.0724,-3.0739,-3.076,-3.1095,-3.1614,-3.177,-3.1813,-3.2559,-3.2885,-3.2551,-3.2885,-3.3176,-3.3231,-3.3199,-3.2997,-3.2589,-3.3057,-3.3422,-3.3137,-3.3113,-3.2798,-3.2227,-3.1487,-3.1313,-3.1599,-3.1081,-3.1023,-3.1429,-3.1101,-3.0926,-3.156,-3.1753,-3.2217,-3.3479,-3.3499,-3.3828,-3.4292,-3.4214,-3.3847,-3.3189,-3.2623,-3.2198,-3.1831,-3.1308,-3.081,-3.0487,-3.0047,-2.9385,-2.8741,-2.863,-2.8579,-2.8685,-2.8498,-2.797,-2.7867,-2.77,-2.7583,-2.7541,-2.7693,-2.7945,-4.0323,-4.0015,-3.9515,-3.8892,-3.8315,-3.7719,-3.7094,-3.6459,-3.6388,-3.6104,-3.5708,-3.5669,-3.5668,-3.5702,-3.5794,-3.5814,-3.5817,-3.5855,-3.5908,-3.5953,-3.5984,-3.5849,-3.5498,-3.5146,-3.4796,-3.4231,-3.3879,-3.3019,-3.1732,-3.1613,-3.1359,-3.0929,-3.085,-3.085,-3.0851,-3.0892,-3.0892,-3.0871,-3.0892,-3.0891,-3.0812,-3.0558,-3.0283,-3.0026,-2.9752,-2.9497,-2.928,-3.0271,-3.0078,-2.8841,-2.8568,-2.8685,-2.9035,-2.9816,-3.0458,-3.0744,-3.0799,-3.0791,-3.081,-3.1235,-3.1363,-3.1061,-3.1754,-3.2141,-3.1749,-3.2146,-3.2399,-3.2746,-3.2749,-3.2652,-3.2575,-3.285,-3.3158,-3.314,-3.2817,-3.2285,-3.1477,-3.0911,-3.1032,-3.1419,-3.1124,-3.1115,-3.142,-3.1144,-3.083,-3.125,-3.1366,-3.1541,-3.2667,-3.2725,-3.3093,-3.3402,-3.3397,-3.2856,-3.2082,-3.1565,-3.1101,-3.0733,-3.0346,-2.9921,-2.9549,-2.9119,-2.8545,-2.7451,-2.7015,-2.6851,-2.6899,-2.696,-2.6702,-2.6884,-2.6972,-2.6511,-2.6208,-2.643,-2.6601,-4.0073,-3.94,-3.9246,-3.8315,-3.7019,-3.675,-3.6257,-3.5622,-3.5571,-3.5586,-3.5585,-3.5596,-3.5625,-3.5683,-3.57,-3.5709,-3.5713,-3.5733,-3.5797,-3.5872,-3.5867,-3.5534,-3.4648,-3.4005,-3.3617,-3.3229,-3.2621,-3.1801,-3.1044,-3.0982,-3.08,-3.0803,-3.0803,-3.0801,-3.0804,-3.0866,-3.0865,-3.0823,-3.0788,-3.069,-3.0607,-2.9905,-2.9807,-3.0353,-2.9788,-2.9729,-3.0294,-3.0492,-2.9575,-2.7506,-2.7316,-2.7594,-2.8242,-2.9023,-2.996,-3.0714,-3.0786,-3.0786,-3.0784,-3.0881,-3.0877,-3.0833,-3.0908,-3.08,-3.0965,-3.1057,-3.131,-3.1892,-3.2146,-3.2464,-3.295,-3.3327,-3.3293,-3.3017,-3.2449,-3.1672,-3.08,-3.0621,-3.0927,-3.1396,-3.1136,-3.089,-3.1583,-3.1008,-3.0786,-3.0858,-3.0936,-3.1211,-3.1482,-3.2005,-3.1879,-3.2111,-3.2508,-3.2077,-3.1386,-3.1289,-3.0747,-2.9708,-2.95,-2.9345,-2.8765,-2.8257,-2.7638,-2.6529,-2.5876,-2.5561,-2.5488,-2.5832,-2.586,-2.5868,-2.5615,-2.505,-2.5113,-2.5537,-2.5814,-4.0381,-4.0073,-3.8873,-3.8065,-3.7488,-3.6385,-3.5731,-3.55,-3.55,-3.5508,-3.5522,-3.5534,-3.5528,-3.5565,-3.5618,-3.563,-3.5645,-3.5683,-3.5702,-3.5749,-3.5767,-3.4981,-3.3955,-3.3494,-3.3027,-3.2502,-3.2169,-3.1642,-3.0861,-3.0801,-3.0781,-3.08,-3.0781,-3.0761,-3.0801,-3.0744,-3.0822,-3.0704,-3.0179,-2.9945,-2.9788,-2.9123,-2.8732,-2.8869,-2.881,-2.9142,-2.9826,-2.9923,-2.9377,-2.8088,-2.7309,-2.7389,-2.8293,-2.9113,-2.9936,-3.0621,-3.0798,-3.08,-3.08,-3.0799,-3.0797,-3.0783,-3.0786,-3.08,-3.08,-3.0774,-3.0887,-3.1334,-3.2104,-3.2764,-3.2746,-3.3442,-3.3522,-3.2505,-3.2003,-3.1542,-3.0878,-3.0633,-3.0722,-3.0858,-3.0718,-3.0791,-3.0849,-3.0864,-3.0802,-3.1248,-3.1441,-3.1558,-3.1669,-3.1631,-3.1622,-3.1553,-3.1654,-3.1258,-3.0924,-3.0901,-3.0292,-2.8962,-2.8707,-2.8997,-2.8281,-2.7542,-2.6745,-2.5792,-2.5732,-2.5495,-2.5428,-2.5582,-2.5332,-2.5253,-2.5149,-2.5056,-2.4936,-2.517,-2.5521,-4.0304,-3.99,-3.8565,-3.7796,-3.7315,-3.6038,-3.55,-3.55,-3.55,-3.55,-3.55,-3.55,-3.55,-3.5494,-3.5547,-3.5565,-3.5558,-3.5596,-3.563,-3.5533,-3.4947,-3.4367,-3.3733,-3.3005,-3.2176,-3.209,-3.1719,-3.1289,-3.0859,-3.08,-3.0626,-3.0411,-3.0644,-3.0449,-2.9707,-3.0138,-3.0099,-2.9728,-2.9279,-2.9064,-2.8986,-2.8576,-2.8635,-2.8732,-2.8869,-2.9259,-2.9943,-2.9807,-2.9046,-2.803,-2.7621,-2.7932,-2.8773,-2.93,-2.9962,-3.0723,-3.08,-3.0788,-3.0795,-3.0797,-3.08,-3.0801,-3.08,-3.08,-3.08,-3.0798,-3.0853,-3.1496,-3.2309,-3.2636,-3.2773,-3.324,-3.284,-3.1765,-3.1456,-3.1232,-3.0726,-3.0665,-3.0638,-3.0634,-3.0645,-3.0661,-3.0641,-3.0633,-3.0838,-3.1149,-3.1183,-3.1435,-3.1687,-3.1556,-3.1366,-3.1254,-3.1153,-3.0892,-3.0768,-3.0744,-3.0395,-2.9061,-2.8287,-2.8554,-2.7802,-2.697,-2.6289,-2.5666,-2.5569,-2.5507,-2.5468,-2.5455,-2.5434,-2.5351,-2.5253,-2.5171,-2.5078,-2.4993,-2.5302,-4.0092,-3.9354,-3.8507,-3.7623,-3.6865,-3.6,-3.5615,-3.55,-3.55,-3.55,-3.55,-3.55,-3.55,-3.55,-3.5501,-3.5488,-3.5488,-3.5502,-3.5554,-3.5126,-3.4294,-3.3565,-3.3861,-3.194,-3.138,-3.162,-3.1084,-3.0869,-3.0771,-3.0774,-3.0448,-3.0157,-3.047,-2.9863,-2.922,-2.9358,-2.9103,-2.8674,-2.8752,-2.8615,-2.8518,-2.838,-2.8674,-2.9358,-2.9689,-2.9884,-3.0235,-3.0002,-2.9084,-2.7406,-2.7952,-2.8615,-2.9417,-2.9592,-3.0001,-3.0606,-3.08,-3.0801,-3.0801,-3.0784,-3.0803,-3.0787,-3.0786,-3.08,-3.0789,-3.0798,-3.1035,-3.1582,-3.2026,-3.2434,-3.2763,-3.2544,-3.1898,-3.1154,-3.0878,-3.079,-3.0731,-3.0695,-3.0711,-3.0704,-3.0706,-3.0699,-3.068,-3.0649,-3.0633,-3.0886,-3.0921,-3.1057,-3.1212,-3.1076,-3.094,-3.0839,-3.0738,-3.0676,-3.0629,-3.0625,-3.016,-2.9381,-2.8477,-2.8102,-2.7319,-2.6556,-2.5995,-2.5588,-2.5534,-2.5515,-2.5507,-2.5496,-2.5488,-2.5456,-2.5372,-2.5312,-2.5264,-2.5154,-2.5317,-4.0419,-4.0169,-3.9354,-3.8527,-3.7661,-3.6827,-3.6058,-3.55,-3.55,-3.55,-3.55,-3.55,-3.55,-3.55,-3.55,-3.55,-3.55,-3.55,-3.5508,-3.5271,-3.3762,-3.3133,-3.3,-3.1452,-3.0801,-3.092,-3.0778,-3.0667,-3.0715,-3.0726,-3.0661,-3.0484,-3.0055,-2.967,-2.9375,-2.9338,-2.9162,-2.8557,-2.8908,-2.883,-2.836,-2.8321,-2.8713,-2.9553,-3.0138,-3.0216,-3.004,-3.0313,-3.004,-2.9221,-2.8694,-2.8908,-2.9514,-2.967,-3.004,-3.0587,-3.08,-3.08,-3.08,-3.08,-3.08,-3.08,-3.08,-3.08,-3.08,-3.0785,-3.0867,-3.12,-3.1672,-3.2106,-3.2264,-3.2207,-3.164,-3.1014,-3.0793,-3.0801,-3.0785,-3.076,-3.0741,-3.0716,-3.0703,-3.0703,-3.0701,-3.0697,-3.0671,-3.0683,-3.068,-3.068,-3.0676,-3.0672,-3.0668,-3.0665,-3.0665,-3.0642,-3.0653,-3.063,-3.032,-2.9912,-2.914,-2.8329,-2.7508,-2.6718,-2.6354,-2.5927,-2.5524,-2.5517,-2.551,-2.5513,-2.5506,-2.5487,-2.5479,-2.5418,-2.5333,-2.5274,-2.5515,-4.0496,-4.0362,-3.92,-3.843,-3.7853,-3.6673,-3.5904,-3.5538,-3.55,-3.55,-3.55,-3.55,-3.55,-3.55,-3.55,-3.55,-3.55,-3.55,-3.55,-3.5103,-3.3782,-3.2947,-3.259,-3.1434,-3.0522,-3.0595,-3.0616,-3.0623,-3.0645,-3.0614,-3.0428,-3.0185,-3.0049,-2.9645,-2.9166,-2.9369,-2.9103,-2.8518,-2.8713,-2.8732,-2.836,-2.8302,-2.8713,-2.9456,-3.0021,-3.0118,-3.0274,-3.0547,-3.0548,-3.0157,-2.9728,-2.9629,-3.004,-3.0157,-3.0392,-3.0683,-3.08,-3.08,-3.08,-3.08,-3.08,-3.08,-3.08,-3.08,-3.08,-3.08,-3.08,-3.0878,-3.1172,-3.1486,-3.1486,-3.1473,-3.1167,-3.0973,-3.08,-3.0801,-3.08,-3.0794,-3.0777,-3.0758,-3.0753,-3.0745,-3.075,-3.0728,-3.0714,-3.0712,-3.0684,-3.0681,-3.0687,-3.0683,-3.0687,-3.0683,-3.0687,-3.0687,-3.0699,-3.0656,-3.0556,-3.0323,-3.0016,-2.9278,-2.8569,-2.7766,-2.6986,-2.6362,-2.5657,-2.5511,-2.5508,-2.5515,-2.5518,-2.5508,-2.5478,-2.5444,-2.5546,-2.5774,-2.6105,-4.0372,-4.0219,-3.8889,-3.8139,-3.7623,-3.6469,-3.5808,-3.55,-3.55,-3.55,-3.55,-3.55,-3.55,-3.55,-3.55,-3.55,-3.55,-3.5481,-3.5462,-3.4923,-3.3641,-3.2859,-3.2319,-3.1226,-3.0456,-3.0568,-3.056,-3.0552,-3.0571,-3.054,-3.0337,-2.9765,-3.0044,-2.9696,-2.8868,-2.9078,-2.9153,-2.8429,-2.8827,-2.8863,-2.8703,-2.8721,-2.9248,-2.9687,-2.9931,-3.0225,-3.0558,-3.0757,-3.0761,-3.0799,-3.0799,-3.0799,-3.0798,-3.08,-3.08,-3.08,-3.08,-3.08,-3.08,-3.08,-3.08,-3.08,-3.08,-3.08,-3.08,-3.08,-3.08,-3.08,-3.0917,-3.0917,-3.082,-3.0921,-3.0881,-3.0783,-3.0801,-3.08,-3.0788,-3.0801,-3.0796,-3.0787,-3.0785,-3.0782,-3.0776,-3.0765,-3.0755,-3.0726,-3.0717,-3.0701,-3.0703,-3.072,-3.0713,-3.0704,-3.071,-3.0704,-3.071,-3.069,-3.0613,-3.0554,-3.0457,-2.9968,-2.9363,-2.8718,-2.778,-2.645,-2.5803,-2.5661,-2.5564,-2.5551,-2.5551,-2.5522,-2.5522,-2.5499,-2.5829,-2.6294,-2.669,-3.9756,-3.9519,-3.9738,-3.8739,-3.7147,-3.7346,-3.6661,-3.5615,-3.55,-3.55,-3.55,-3.55,-3.55,-3.55,-3.55,-3.55,-3.55,-3.5404,-3.5058,-3.443,-3.3314,-3.2583,-3.1872,-3.0981,-3.0439,-3.0411,-3.0444,-3.0472,-3.051,-3.0509,-3.0395,-3.0245,-2.9897,-2.9357,-2.9337,-2.9362,-2.9254,-2.8846,-2.9491,-2.9804,-2.9513,-2.9682,-2.9942,-3.0192,-3.0175,-3.0427,-3.0632,-3.0768,-3.0799,-3.0795,-3.0795,-3.0789,-3.0785,-3.0792,-3.0796,-3.0799,-3.0799,-3.0798,-3.0799,-3.0799,-3.08,-3.08,-3.08,-3.0839,-3.0839,-3.08,-3.08,-3.08,-3.08,-3.08,-3.08,-3.08,-3.08,-3.08,-3.08,-3.08,-3.0784,-3.0792,-3.0799,-3.0801,-3.08,-3.0799,-3.0797,-3.0793,-3.0768,-3.0761,-3.0756,-3.0749,-3.0749,-3.0741,-3.0745,-3.0733,-3.0691,-3.07,-3.0701,-3.0701,-3.0662,-3.0665,-3.0545,-3.0263,-2.9754,-2.9447,-2.8547,-2.7162,-2.6168,-2.5783,-2.5686,-2.5609,-2.5586,-2.5564,-2.557,-2.5573,-2.5877,-2.6259,-2.7078,-3.9696,-3.9518,-3.9079,-3.8233,-3.7225,-3.6798,-3.6269,-3.5577,-3.55,-3.55,-3.55,-3.55,-3.55,-3.55,-3.55,-3.55,-3.5385,-3.4968,-3.4603,-3.3968,-3.291,-3.2141,-3.1577,-3.0757,-3.0475,-3.0392,-3.0386,-3.0385,-3.0463,-3.0455,-3.0447,-3.0409,-3.0068,-2.9919,-2.9939,-3.0021,-2.9796,-2.9691,-3.02,-3.0519,-3.0019,-3.0152,-2.9972,-2.9969,-3.005,-3.0217,-3.0655,-3.0637,-3.0677,-3.0704,-3.0672,-3.0689,-3.0723,-3.0754,-3.0749,-3.0783,-3.0789,-3.0791,-3.0791,-3.0809,-3.0985,-3.1375,-3.1106,-3.1089,-3.1206,-3.1149,-3.082,-3.08,-3.08,-3.08,-3.08,-3.08,-3.08,-3.08,-3.08,-3.08,-3.08,-3.08,-3.0789,-3.0795,-3.0797,-3.0798,-3.0799,-3.08,-3.08,-3.0799,-3.0797,-3.0793,-3.0787,-3.0785,-3.0765,-3.075,-3.0735,-3.0737,-3.0725,-3.0712,-3.0725,-3.0719,-3.0671,-3.039,-3.0147,-2.9826,-2.8994,-2.7809,-2.6977,-2.6254,-2.5718,-2.5595,-2.5598,-2.5601,-2.5598,-2.5637,-2.5834,-2.6281,-2.7097,-3.935,-3.9182,-3.7985,-3.7327,-3.6967,-3.6132,-3.5619,-3.5512,-3.55,-3.55,-3.55,-3.55,-3.55,-3.55,-3.5442,-3.5327,-3.5019,-3.4314,-3.4045,-3.3308,-3.2359,-3.1667,-3.1212,-3.0777,-3.0323,-3.0349,-3.0343,-3.0337,-3.0379,-3.0398,-3.0367,-3.0369,-3.0422,-3.0452,-3.039,-3.0391,-3.0548,-3.0564,-3.0563,-3.0563,-3.0366,-2.9912,-2.9508,-2.9497,-2.9512,-2.9959,-3.0519,-3.057,-3.0567,-3.0597,-3.0582,-3.0564,-3.0642,-3.0672,-3.0697,-3.074,-3.0784,-3.0798,-3.0799,-3.0799,-3.1055,-3.1464,-3.1118,-3.1258,-3.1394,-3.1105,-3.0795,-3.0796,-3.0799,-3.0799,-3.0799,-3.0799,-3.08,-3.08,-3.08,-3.08,-3.08,-3.08,-3.08,-3.0784,-3.08,-3.0784,-3.079,-3.0792,-3.0797,-3.0798,-3.08,-3.08,-3.0801,-3.08,-3.0779,-3.0792,-3.0783,-3.0777,-3.0764,-3.0745,-3.0741,-3.0737,-3.0747,-3.0602,-3.0414,-3.0189,-2.9208,-2.8276,-2.7732,-2.7023,-2.6304,-2.5604,-2.5601,-2.5601,-2.5601,-2.5659,-2.5776,-2.6245,-2.7003,-3.7847,-3.7578,-3.7148,-3.641,-3.5694,-3.5948,-3.5883,-3.5491,-3.546,-3.55,-3.5453,-3.5474,-3.5448,-3.5397,-3.5423,-3.4615,-3.3833,-3.368,-3.3282,-3.2289,-3.17,-3.1124,-3.0599,-3.042,-3.0305,-3.0311,-3.0312,-3.0311,-3.0311,-3.0318,-3.0331,-3.0324,-3.0336,-3.0317,-3.0359,-3.0416,-3.0428,-3.0448,-3.0479,-3.0479,-3.0419,-3.0232,-3.0135,-3.0127,-3.0163,-3.025,-3.0424,-3.0461,-3.0492,-3.0507,-3.0507,-3.0494,-3.0513,-3.0524,-3.0528,-3.0599,-3.0684,-3.0798,-3.0769,-3.0761,-3.0917,-3.1187,-3.0907,-3.0876,-3.0978,-3.1017,-3.0785,-3.0801,-3.0789,-3.0794,-3.0794,-3.0798,-3.08,-3.0799,-3.0798,-3.0799,-3.0799,-3.0795,-3.0796,-3.0796,-3.0795,-3.0796,-3.0801,-3.0801,-3.0803,-3.0784,-3.0786,-3.079,-3.0793,-3.0797,-3.0799,-3.0801,-3.08,-3.0798,-3.0794,-3.0767,-3.0778,-3.0776,-3.0765,-3.0776,-3.0632,-3.0336,-2.959,-2.8769,-2.8227,-2.7307,-2.6147,-2.5603,-2.5596,-2.5601,-2.5601,-2.5601,-2.5621,-2.6226,-2.6808,-3.7209,-3.7436,-3.6545,-3.5886,-3.545,-3.5428,-3.5267,-3.5119,-3.5163,-3.5223,-3.5231,-3.5273,-3.504,-3.4706,-3.4709,-3.4083,-3.3096,-3.2853,-3.2404,-3.1591,-3.1136,-3.0676,-3.0407,-3.0273,-3.0266,-3.0292,-3.026,-3.0227,-3.0254,-3.0292,-3.0312,-3.0312,-3.0312,-3.0299,-3.0305,-3.0329,-3.0354,-3.0358,-3.0367,-3.0373,-3.034,-3.0324,-3.0312,-3.0312,-3.0292,-3.0327,-3.0378,-3.0325,-3.0351,-3.037,-3.0359,-3.0361,-3.0389,-3.0411,-3.0407,-3.053,-3.0583,-3.0616,-3.062,-3.0623,-3.0847,-3.1109,-3.1017,-3.0782,-3.0788,-3.0796,-3.0796,-3.0799,-3.0803,-3.0783,-3.0783,-3.0788,-3.0788,-3.0789,-3.0792,-3.0791,-3.0791,-3.0789,-3.0788,-3.0788,-3.0789,-3.0791,-3.0794,-3.0796,-3.0798,-3.0799,-3.08,-3.0783,-3.0785,-3.0787,-3.0791,-3.0793,-3.0797,-3.0798,-3.08,-3.0781,-3.0779,-3.0776,-3.0783,-3.0778,-3.0778,-3.041,-2.9737,-2.8995,-2.8283,-2.7236,-2.5953,-2.5604,-2.5607,-2.5613,-2.5601,-2.5668,-2.5732,-2.5743,-2.6345,-3.6767,-3.7188,-3.5782,-3.5211,-3.5238,-3.4771,-3.4643,-3.4743,-3.486,-3.4925,-3.4935,-3.4924,-3.4445,-3.377,-3.3781,-3.3386,-3.2115,-3.177,-3.1463,-3.1085,-3.0676,-3.0369,-3.0272,-3.0233,-3.0233,-3.0266,-3.0239,-3.0213,-3.0226,-3.0246,-3.026,-3.0286,-3.026,-3.0279,-3.0286,-3.0273,-3.0279,-3.0279,-3.0286,-3.0286,-3.0292,-3.0286,-3.0286,-3.0253,-3.0253,-3.0235,-3.0323,-3.0286,-3.0254,-3.026,-3.0254,-3.0254,-3.0286,-3.0304,-3.0315,-3.0378,-3.0427,-3.0427,-3.0457,-3.054,-3.0859,-3.1056,-3.111,-3.0665,-3.0689,-3.0716,-3.0716,-3.07,-3.0689,-3.0718,-3.0756,-3.0759,-3.0771,-3.0774,-3.0801,-3.0799,-3.0799,-3.0799,-3.0801,-3.0783,-3.0785,-3.0803,-3.0786,-3.0791,-3.0794,-3.0795,-3.0795,-3.0796,-3.0796,-3.0798,-3.0798,-3.0801,-3.0786,-3.079,-3.0791,-3.0795,-3.0799,-3.08,-3.0799,-3.0798,-3.08,-3.0527,-2.998,-2.9219,-2.8398,-2.7243,-2.6029,-2.5798,-2.56,-2.5615,-2.5639,-2.5814,-2.5884,-2.5837,-2.5835,-3.6336,-3.6258,-3.4705,-3.4204,-3.4407,-3.4284,-3.4401,-3.4612,-3.4684,-3.4723,-3.4714,-3.4649,-3.3885,-3.2958,-3.3082,-3.2449,-3.0392,-3.1204,-3.0981,-3.0565,-3.0252,-3.0226,-3.0232,-3.0225,-3.0218,-3.0225,-3.0211,-3.0211,-3.0211,-3.0225,-3.0225,-3.0218,-3.0232,-3.0218,-3.0225,-3.0232,-3.0232,-3.0232,-3.0232,-3.0225,-3.0225,-3.0225,-3.0225,-3.0225,-3.0218,-3.0218,-3.0213,-3.0218,-3.0218,-3.0214,-3.0206,-3.0211,-3.0233,-3.0233,-3.0247,-3.026,-3.0273,-3.0292,-3.0299,-3.0392,-3.0516,-3.0574,-3.0568,-3.0533,-3.0564,-3.0527,-3.0533,-3.0567,-3.0564,-3.0602,-3.0672,-3.07,-3.07,-3.0728,-3.0756,-3.0784,-3.0786,-3.0792,-3.0794,-3.0798,-3.0796,-3.0792,-3.079,-3.0796,-3.0785,-3.0786,-3.0788,-3.0788,-3.0788,-3.0788,-3.0788,-3.0789,-3.0796,-3.0798,-3.0796,-3.0801,-3.0788,-3.0789,-3.0794,-3.0793,-3.0787,-3.0451,-3.0201,-2.936,-2.8487,-2.7279,-2.6385,-2.6381,-2.6244,-2.5788,-2.5777,-2.6295,-2.6439,-2.642,-2.6069,-3.6593,-3.6831,-3.4747,-3.3908,-3.3986,-3.3961,-3.4024,-3.416,-3.4302,-3.4424,-3.4458,-3.4513,-3.393,-3.3055,-3.2534,-3.203,-3.0657,-3.0434,-3.0319,-3.0211,-3.0111,-3.0211,-3.0204,-3.0197,-3.0204,-3.0197,-3.0204,-3.0204,-3.0211,-3.019,-3.0204,-3.0204,-3.0204,-3.0204,-3.0204,-3.0204,-3.0204,-3.0204,-3.0204,-3.0204,-3.0204,-3.0204,-3.0204,-3.0204,-3.0204,-3.0204,-3.0211,-3.0211,-3.0204,-3.0204,-3.0204,-3.0204,-3.0204,-3.0204,-3.0204,-3.0204,-3.0204,-3.0204,-3.0204,-3.0286,-3.0334,-3.037,-3.0381,-3.0402,-3.0467,-3.0492,-3.0496,-3.0486,-3.0477,-3.0524,-3.0554,-3.0579,-3.0587,-3.0649,-3.0681,-3.073,-3.0765,-3.0772,-3.0802,-3.0802,-3.08,-3.0795,-3.0793,-3.0795,-3.0786,-3.0796,-3.0798,-3.0799,-3.0798,-3.0799,-3.0798,-3.0798,-3.0786,-3.0788,-3.0786,-3.0786,-3.0789,-3.0788,-3.0788,-3.0786,-3.0785,-3.0758,-3.039,-2.9526,-2.8783,-2.7955,-2.7404,-2.7223,-2.6894,-2.6435,-2.6628,-2.7164,-2.7162,-2.6917,-2.6391,-3.685,-3.6905,-3.5,-3.4156,-3.4137,-3.3899,-3.3807,-3.3847,-3.4011,-3.4111,-3.4161,-3.4253,-3.3687,-3.2747,-3.2254,-3.1382,-3.0471,-3.0043,-2.9885,-2.9875,-2.9992,-3.0106,-3.0113,-3.0106,-3.0091,-3.0106,-3.0042,-3.0019,-3.0098,-3.0113,-3.0142,-3.019,-3.0204,-3.0204,-3.0204,-3.0204,-3.0204,-3.0204,-3.0204,-3.0204,-3.0204,-3.0204,-3.0204,-3.0204,-3.0204,-3.0204,-3.0204,-3.0204,-3.0204,-3.0204,-3.0204,-3.0204,-3.0204,-3.0204,-3.0204,-3.0204,-3.0204,-3.0204,-3.0204,-3.0218,-3.0233,-3.0273,-3.0273,-3.0321,-3.0378,-3.0425,-3.0386,-3.0378,-3.0389,-3.0416,-3.0437,-3.0443,-3.0491,-3.0544,-3.0568,-3.0605,-3.0675,-3.0714,-3.0752,-3.0801,-3.0801,-3.0784,-3.0784,-3.0784,-3.0786,-3.0778,-3.08,-3.0802,-3.0784,-3.0786,-3.0788,-3.079,-3.0794,-3.0796,-3.0796,-3.0799,-3.0803,-3.0801,-3.0799,-3.0796,-3.079,-3.0802,-3.0505,-2.9648,-2.9039,-2.8641,-2.8353,-2.8069,-2.7577,-2.7047,-2.7464,-2.7951,-2.7207,-2.688,-2.6448,-3.7015,-3.6248,-3.5316,-3.4912,-3.4802,-3.4105,-3.3807,-3.3807,-3.3834,-3.386,-3.3887,-3.3876,-3.3066,-3.1968,-3.1818,-3.1005,-2.9953,-2.9673,-2.9673,-2.9813,-2.9859,-2.9907,-2.9972,-2.9991,-2.9924,-2.9883,-2.9813,-2.9794,-2.9905,-2.9945,-3.0026,-3.0135,-3.0164,-3.0204,-3.0204,-3.0204,-3.0204,-3.0204,-3.0204,-3.0204,-3.0204,-3.0204,-3.0204,-3.0204,-3.0204,-3.0204,-3.0204,-3.0204,-3.0204,-3.0204,-3.0204,-3.0204,-3.0204,-3.0204,-3.0204,-3.0204,-3.0204,-3.0204,-3.0204,-3.0204,-3.0225,-3.0219,-3.0221,-3.0253,-3.0245,-3.0245,-3.0253,-3.028,-3.0266,-3.026,-3.0285,-3.0319,-3.0386,-3.0443,-3.0472,-3.0518,-3.0579,-3.0632,-3.0672,-3.071,-3.0762,-3.0799,-3.0796,-3.0796,-3.0772,-3.0774,-3.0779,-3.0784,-3.0786,-3.0791,-3.0795,-3.0798,-3.0802,-3.0802,-3.0784,-3.0792,-3.0796,-3.0794,-3.079,-3.0784,-3.08,-3.0793,-3.036,-2.9713,-2.9535,-2.936,-2.9119,-2.8845,-2.8505,-2.8242,-2.8335,-2.8424,-2.7583,-2.7034,-2.6837,-3.6853,-3.6909,-3.5018,-3.4509,-3.4839,-3.4156,-3.3807,-3.3807,-3.3807,-3.3807,-3.3807,-3.3807,-3.3275,-3.2359,-3.1624,-3.0959,-3.0072,-2.9452,-2.9536,-3.0124,-2.9917,-3.0142,-3.0179,-2.9906,-2.9717,-2.9689,-2.9626,-2.9579,-2.9707,-2.9769,-2.9897,-3.0011,-3.0094,-3.0204,-3.0204,-3.0204,-3.0204,-3.0204,-3.0204,-3.0204,-3.0204,-3.0204,-3.0204,-3.0204,-3.0204,-3.0204,-3.0204,-3.0204,-3.0204,-3.0204,-3.0204,-3.0204,-3.0204,-3.0204,-3.0204,-3.0204,-3.0204,-3.0204,-3.0204,-3.0204,-3.0204,-3.0204,-3.0204,-3.0204,-3.0204,-3.0204,-3.0204,-3.0204,-3.0204,-3.0226,-3.0227,-3.0241,-3.0305,-3.0337,-3.0381,-3.0433,-3.0491,-3.0537,-3.0559,-3.0587,-3.0621,-3.0719,-3.0756,-3.0701,-3.0669,-3.071,-3.0719,-3.0764,-3.0774,-3.0779,-3.0786,-3.0786,-3.0789,-3.0789,-3.0791,-3.08,-3.0802,-3.0798,-3.0795,-3.0789,-3.0784,-3.0784,-3.0667,-3.0256,-3.0197,-3.0139,-2.9741,-2.9464,-2.9627,-2.9605,-2.9531,-2.9159,-2.8454,-2.8022,-2.7825,-3.667,-3.6431,-3.4908,-3.4325,-3.4491,-3.4009,-3.3807,-3.3807,-3.3807,-3.3807,-3.3807,-3.3807,-3.3348,-3.2632,-3.2045,-3.1378,-3.0625,-3.027,-2.9824,-3.0409,-3.0131,-3.0063,-2.998,-2.9822,-2.956,-2.9484,-2.9435,-2.9405,-2.9504,-2.9626,-2.9779,-2.9897,-2.9961,-3.0057,-3.0128,-3.0204,-3.0204,-3.0204,-3.0204,-3.0204,-3.0204,-3.0204,-3.0204,-3.0204,-3.0204,-3.0204,-3.0204,-3.0204,-3.0204,-3.0204,-3.0204,-3.0204,-3.0204,-3.0204,-3.0204,-3.0204,-3.0204,-3.0204,-3.0204,-3.0204,-3.0204,-3.0204,-3.0204,-3.0204,-3.0204,-3.0204,-3.0204,-3.0204,-3.0204,-3.0211,-3.0211,-3.0204,-3.0226,-3.0273,-3.0291,-3.035,-3.0386,-3.0418,-3.0472,-3.0477,-3.0533,-3.063,-3.0691,-3.0622,-3.055,-3.0611,-3.0648,-3.0682,-3.0728,-3.0731,-3.0759,-3.0767,-3.0772,-3.0779,-3.0782,-3.0786,-3.0786,-3.0801,-3.0801,-3.0801,-3.0801,-3.0801,-3.0801,-3.0801,-3.0606,-3.0412,-3.0182,-3.0063,-3.0159,-3.0323,-3.0424,-2.9951,-2.9296,-2.8672,-2.8144,-3.6486,-3.5114,-3.4986,-3.4491,-3.388,-3.3825,-3.3807,-3.3807,-3.3807,-3.3807,-3.3807,-3.3807,-3.3366,-3.2711,-3.2546,-3.2045,-3.1292,-3.1146,-3.0809,-3.0385,-3.0169,-2.9956,-2.9654,-2.9413,-2.932,-2.9228,-2.9192,-2.9214,-2.9301,-2.9395,-2.958,-2.977,-2.9742,-2.9872,-3.0019,-3.0098,-3.0128,-3.0183,-3.0204,-3.0204,-3.0204,-3.0204,-3.0197,-3.0197,-3.019,-3.019,-3.0197,-3.0197,-3.0185,-3.0185,-3.0204,-3.0204,-3.0204,-3.0204,-3.0204,-3.0204,-3.0204,-3.0204,-3.0204,-3.0204,-3.0204,-3.0204,-3.0204,-3.0204,-3.0204,-3.0204,-3.0204,-3.0204,-3.0204,-3.0204,-3.0204,-3.0204,-3.0211,-3.0219,-3.0219,-3.026,-3.0291,-3.0319,-3.0378,-3.0411,-3.0442,-3.0496,-3.0537,-3.0496,-3.0432,-3.0467,-3.0491,-3.0509,-3.0552,-3.0625,-3.0658,-3.0716,-3.0748,-3.0769,-3.0772,-3.0769,-3.0801,-3.0801,-3.0801,-3.0801,-3.0801,-3.0801,-3.0801,-3.0801,-3.0801,-3.0665,-3.0453,-3.0472,-3.0633,-3.0795,-3.0788,-3.0203,-2.9366,-2.8295,-2.7692,-3.6009,-3.4968,-3.438,-3.4009,-3.3825,-3.3807,-3.3807,-3.3807,-3.3807,-3.3807,-3.3807,-3.3807,-3.3385,-3.2638,-3.2583,-3.21,-3.1476,-3.0944,-3.0919,-3.0588,-3.0065,-2.9856,-2.9628,-2.9381,-2.9174,-2.9089,-2.9044,-2.9051,-2.9115,-2.9195,-2.9405,-2.9645,-2.958,-2.9681,-2.9751,-2.9777,-2.9953,-3.0106,-3.0142,-3.0169,-3.0183,-3.0164,-3.0157,-3.015,-3.0142,-3.0142,-3.0142,-3.0142,-3.013,-3.0197,-3.0204,-3.0204,-3.0204,-3.0204,-3.0204,-3.0204,-3.0204,-3.0204,-3.0204,-3.0204,-3.0204,-3.0204,-3.0204,-3.0204,-3.0204,-3.0204,-3.0204,-3.0204,-3.0204,-3.0204,-3.0204,-3.0204,-3.0204,-3.0204,-3.0204,-3.0219,-3.0241,-3.0254,-3.0298,-3.0304,-3.034,-3.0367,-3.0411,-3.0364,-3.0298,-3.0321,-3.0331,-3.0353,-3.0402,-3.0458,-3.0548,-3.0633,-3.0658,-3.0678,-3.07,-3.07,-3.0764,-3.0801,-3.0774,-3.0774,-3.0801,-3.0801,-3.0801,-3.0801,-3.0801,-3.0801,-3.0743,-3.0801,-3.0801,-3.0801,-3.0735,-3.0129,-2.9422,-2.8491,-2.7991,-3.5279,-3.4509,-3.4027,-3.3807,-3.3807,-3.3807,-3.3807,-3.3807,-3.3807,-3.3807,-3.3807,-3.3807,-3.3532,-3.3109,-3.2779,-3.2339,-3.1898,-3.1182,-3.0852,-3.0393,-2.9867,-2.9671,-2.9512,-2.9299,-2.9072,-2.8987,-2.8987,-2.8998,-2.9021,-2.9104,-2.9291,-2.9455,-2.9425,-2.9456,-2.9533,-2.9589,-2.9653,-2.9828,-2.9945,-3.0011,-3.0023,-3.0045,-3.0038,-3.0072,-3.0072,-3.0072,-3.0072,-3.0072,-3.0113,-3.0142,-3.0161,-3.0161,-3.0161,-3.0161,-3.0161,-3.0161,-3.0161,-3.015,-3.015,-3.0161,-3.015,-3.0157,-3.0157,-3.0161,-3.0176,-3.0183,-3.0197,-3.0204,-3.0204,-3.0204,-3.0204,-3.0204,-3.0204,-3.0204,-3.0204,-3.0204,-3.0211,-3.0211,-3.0218,-3.0218,-3.024,-3.028,-3.0267,-3.0206,-3.0178,-3.0227,-3.0228,-3.0215,-3.0273,-3.0348,-3.0443,-3.0537,-3.0563,-3.0587,-3.061,-3.0632,-3.0652,-3.0691,-3.07,-3.0706,-3.0767,-3.0777,-3.0774,-3.0777,-3.0801,-3.0799,-3.0772,-3.0799,-3.0801,-3.0799,-3.0718,-3.0267,-2.9772,-2.9189,-2.8928,-3.4546,-3.3825,-3.3807,-3.3807,-3.3807,-3.3807,-3.3807,-3.3807,-3.3807,-3.3752,-3.3678,-3.3678,-3.3513,-3.2999,-3.2577,-3.2357,-3.188,-3.1292,-3.0632,-3.021,-2.9898,-2.9604,-2.9225,-2.8987,-2.8987,-2.8987,-2.8975,-2.897,-2.8952,-2.901,-2.9093,-2.9259,-2.9115,-2.9141,-2.9336,-2.9293,-2.9316,-2.9455,-2.9533,-2.9579,-2.9731,-2.9801,-2.9834,-2.9964,-2.998,-3.0007,-3.003,-3.0038,-3.0072,-3.0061,-3.0053,-3.0072,-3.0122,-3.011,-3.011,-3.011,-3.0117,-3.0106,-3.0094,-3.0106,-3.0106,-3.0106,-3.0091,-3.0098,-3.0132,-3.0154,-3.0169,-3.0176,-3.0169,-3.0169,-3.0169,-3.0169,-3.0169,-3.0169,-3.0169,-3.0169,-3.0169,-3.0169,-3.0169,-3.0169,-3.0183,-3.0194,-3.0187,-3.0154,-3.0147,-3.0157,-3.0157,-3.0128,-3.0152,-3.0228,-3.0296,-3.0422,-3.0457,-3.0458,-3.0486,-3.0513,-3.0528,-3.0572,-3.0591,-3.0605,-3.0628,-3.0688,-3.0767,-3.0762,-3.0753,-3.0762,-3.0764,-3.0767,-3.0767,-3.0784,-3.0647,-3.0404,-3.0022,-2.9674,-2.9451,-3.4509,-3.3807,-3.3807,-3.3807,-3.3807,-3.3807,-3.3807,-3.3807,-3.3807,-3.344,-3.2968,-3.2871,-3.2577,-3.2118,-3.1861,-3.1678,-3.1513,-3.0907,-3.0448,-2.9971,-2.9659,-2.9372,-2.9042,-2.8994,-2.8987,-2.8964,-2.8959,-2.8923,-2.8888,-2.887,-2.8858,-2.894,-2.8876,-2.898,-2.9052,-2.898,-2.9019,-2.9108,-2.9119,-2.9254,-2.9467,-2.9523,-2.9579,-2.9551,-2.9533,-2.9672,-2.9681,-2.9616,-2.9794,-2.9972,-2.9861,-2.9921,-3.0087,-3.0087,-3.0095,-3.0095,-3.0068,-3.0076,-3.0076,-3.0076,-3.0076,-3.0083,-3.0095,-3.0102,-3.0102,-3.0117,-3.0125,-3.0125,-3.0113,-3.0113,-3.0113,-3.0113,-3.0113,-3.0113,-3.0113,-3.0113,-3.0113,-3.0113,-3.0113,-3.0113,-3.0113,-3.0113,-3.0113,-3.0125,-3.0117,-3.0117,-3.0117,-3.0091,-3.0102,-3.0138,-3.014,-3.0228,-3.0303,-3.0339,-3.0367,-3.0381,-3.0404,-3.0419,-3.0443,-3.0476,-3.0509,-3.056,-3.0625,-3.0688,-3.0714,-3.0698,-3.0707,-3.0722,-3.0722,-3.0739,-3.0728,-3.0522,-3.0525,-3.0275,-2.9937,-3.4197,-3.3825,-3.3807,-3.3807,-3.3807,-3.3807,-3.3807,-3.3807,-3.3807,-3.3128,-3.2247,-3.2357,-3.2155,-3.1347,-3.1054,-3.087,-3.0723,-3.0044,-2.9702,-2.9445,-2.9335,-2.9115,-2.9005,-2.8982,-2.8952,-2.894,-2.8881,-2.8834,-2.8804,-2.8816,-2.8816,-2.8804,-2.8804,-2.8804,-2.8804,-2.8804,-2.8804,-2.8828,-2.8804,-2.8938,-2.9193,-2.9214,-2.9307,-2.9256,-2.9318,-2.9407,-2.9407,-2.9377,-2.9494,-2.9653,-2.957,-2.9653,-2.9796,-2.9839,-2.9905,-2.9964,-2.9988,-3.0022,-3.0022,-3.0014,-3.0014,-3.0014,-3.0014,-2.9972,-2.998,-2.9996,-3.0053,-3.0061,-3.011,-3.011,-3.011,-3.011,-3.011,-3.011,-3.011,-3.011,-3.011,-3.011,-3.011,-3.011,-3.011,-3.011,-3.0083,-3.0061,-3.0072,-3.0087,-3.008,-3.0038,-3.0057,-3.0065,-3.0053,-3.0064,-3.0154,-3.0214,-3.0227,-3.0254,-3.0266,-3.0288,-3.0309,-3.0353,-3.0404,-3.0453,-3.0491,-3.0542,-3.0591,-3.0595,-3.061,-3.0648,-3.0691,-3.0711,-3.0724,-3.0697,-3.0736,-3.0716,-3.0411,-3.3812,-3.3807,-3.3807,-3.3807,-3.3807,-3.3807,-3.3807,-3.3788,-3.366,-3.2797,-3.1617,-3.2008,-3.177,-3.1054,-3.0448,-3.021,-2.9898,-2.9464,-2.9152,-2.9085,-2.9037,-2.8982,-2.894,-2.8899,-2.8893,-2.8858,-2.881,-2.8785,-2.8767,-2.8767,-2.8767,-2.8773,-2.8773,-2.8792,-2.8773,-2.8761,-2.8749,-2.8749,-2.8737,-2.8724,-2.8797,-2.8862,-2.9023,-2.9137,-2.9191,-2.922,-2.9241,-2.922,-2.9201,-2.9306,-2.9365,-2.9455,-2.9504,-2.9579,-2.9662,-2.9725,-2.9742,-2.9777,-2.983,-2.9796,-2.9822,-2.9839,-2.9847,-2.9839,-2.983,-2.9847,-2.9907,-2.994,-2.9964,-3.0046,-3.0046,-3.0046,-3.0046,-3.0046,-3.0046,-3.0046,-3.0046,-3.0046,-3.0046,-3.0046,-3.0053,-3.0053,-3.0046,-3.0014,-3.0014,-3.0049,-3.0022,-2.9999,-2.9983,-2.9964,-2.9972,-2.9988,-3.0042,-3.0083,-3.011,-3.0142,-3.0181,-3.0162,-3.0196,-3.0247,-3.0314,-3.0314,-3.0337,-3.0386,-3.0428,-3.0453,-3.0519,-3.0565,-3.0614,-3.0653,-3.0701,-3.0711,-3.0678,-3.0678,-3.0701,-3.3753,-3.3807,-3.3807,-3.3807,-3.3807,-3.3807,-3.3807,-3.3697,-3.3109,-3.2247,-3.1488,-3.0723,-3.0198,-2.9482,-2.9335,-2.9269,-2.9337,-2.9019,-2.9023,-2.9005,-2.8929,-2.8929,-2.8905,-2.8839,-2.8798,-2.8761,-2.8706,-2.87,-2.8687,-2.8662,-2.8637,-2.865,-2.865,-2.865,-2.8637,-2.865,-2.8662,-2.8662,-2.8662,-2.865,-2.8662,-2.8706,-2.8706,-2.8755,-2.8731,-2.8857,-2.8927,-2.8809,-2.8989,-2.9177,-2.9272,-2.9293,-2.9334,-2.9346,-2.9425,-2.9494,-2.9494,-2.9494,-2.9514,-2.9532,-2.9551,-2.9532,-2.9523,-2.9504,-2.9504,-2.9494,-2.9542,-2.958,-2.9653,-2.9847,-2.9872,-2.9872,-2.9872,-2.9872,-2.9872,-2.9872,-2.9872,-2.988,-2.988,-2.9888,-2.9924,-2.994,-2.9956,-2.994,-2.994,-2.9948,-2.9956,-2.9932,-2.9932,-2.9924,-2.9897,-2.9932,-2.9948,-3.0014,-3.0068,-3.0087,-3.0094,-3.0072,-3.0053,-3.0114,-3.0148,-3.0154,-3.0188,-3.0235,-3.0292,-3.0342,-3.04,-3.0451,-3.0467,-3.0525,-3.0649,-3.0687,-3.0642,-3.0626,-3.0626]},{"header":{"parameterUnit":"m.s-1","parameterCategory":1,"la1":31.0,"la2":29.5877,"lo1":-88.7671,"lo2":-86.6584,"dy":0.0162,"dx":0.0185,"nx":115,"ny":88,"refTime":"2026-04-15T12:00:00:Z","depth":0,"parameterNumber":3,"parameterNumberName":"V-component_of_WINDS"},"data":[0.0,0.0,0.0,0.0,0.0,0.0,0.0,0.0,0.0,0.0,0.0,0.0,0.0,0.0,0.0,0.0,0.0,0.0,0.0,0.0,0.0,0.0,0.0,0.0,0.0,0.0,0.0,0.0,0.0,0.0,0.0,0.0,0.0,0.0,0.0,0.0,0.0,0.0,0.0,0.0,0.0,0.0,0.0,0.0,0.0,0.0,0.0,0.0,0.0,0.0,0.0,0.0,0.0,0.0,0.0,0.0,0.0,0.0,0.0,0.0,0.0,0.0,0.0,0.0,0.0,0.0,0.0,0.0,0.0,0.0,0.0,0.0,0.0,0.0,0.0,0.0,0.0,0.0,0.0,0.0,0.0,0.0,0.0,0.0,0.0,0.0,0.0,0.0,0.0,0.0,0.0,0.0,0.0,0.0,0.0,0.0,0.0,0.0,0.0,0.0,0.0,0.0,0.0,0.0,0.0,0.0,0.0,0.0,0.0,0.0,0.0,0.0,0.0,0.0,0.0,0.0,0.0,0.0,0.0,0.0,0.0,0.0,0.0,0.0,0.0,0.0,0.0,0.0,0.0,0.0,0.0,0.0,0.0,0.0,0.0,0.0,0.0,0.0,0.0,0.0,0.0,0.0,0.0,0.0,0.0,0.0,0.0,0.0,0.0,0.0,0.0,0.0,0.0,0.0,0.0,0.0,0.0,0.0,0.0,0.0,0.0,0.0,0.0,0.0,0.0,0.0,0.0,0.0,0.0,0.0,0.0,0.0,0.0,0.0,0.0,0.0,0.0,0.0,0.0,0.0,0.0,0.0,0.0,0.0,0.0,0.0,0.0,0.0,0.0,0.0,0.0,0.0,0.0,0.0,0.0,0.0,0.0,0.0,0.0,0.0,0.0,0.0,0.0,0.0,0.0,0.0,0.0,0.0,0.0,0.0,0.0,0.0,0.0,0.0,0.0,0.0,0.0,0.0,0.0,0.0,0.0,0.0,0.0,0.0,0.0,0.0,0.0,0.0,0.0,0.0,0.0,0.0,0.0,0.0,0.0,0.0,0.0,0.0,0.0,0.0,0.0,0.0,0.0,0.0,0.0,0.0,0.0,0.0,0.0,0.0,0.0,0.0,0.0,0.0,0.0,0.0,0.0,0.0,0.0,0.0,0.0,0.0,0.0,0.0,0.0,0.0,0.0,0.0,0.0,0.0,0.0,0.0,0.0,0.0,0.0,0.0,0.0,0.0,0.0,0.0,0.0,0.0,0.0,0.0,0.0,0.0,0.0,0.0,0.0,0.0,0.0,0.0,0.0,0.0,0.0,0.0,0.0,0.0,0.0,0.0,0.0,0.0,0.0,0.0,0.0,0.0,0.0,0.0,0.0,0.0,0.0,0.0,0.0,0.0,0.0,0.0,0.0,0.0,0.0,0.0,0.0,0.0,0.0,0.0,0.0,0.0,0.0,0.0,0.0,0.0,0.0,0.0,0.0,0.0,0.0,0.0,0.0,0.0,0.0,0.0,0.0,0.0,0.0,0.0,0.0,0.0,0.0,0.0,0.0,0.0,0.0,0.0,0.0,0.0,0.0,0.0,0.0,0.0,0.0,0.0,0.0,0.0,0.0,0.0,0.0,0.0,0.0,0.0,0.0,0.0,0.0,0.0,0.0,0.0,0.0,0.0,0.0,0.0,0.0,0.0,0.0,0.0,0.0,0.0,0.0,0.0,0.0,0.0,0.0,0.0,0.0,0.0,0.0,0.0,0.0,0.0,0.0,0.0,0.0,0.0,0.0,0.0,0.0,0.0,0.0,0.0,0.0,0.0,0.0,0.0,0.0,0.0,0.0,0.0,0.0,0.0,0.0,0.0,0.0,0.0,0.0,0.0,0.0,0.0,0.0,0.0,0.0,0.0,0.0,0.0,0.0,0.0,0.0,0.0,0.0,0.0,0.0,0.0,0.0,0.0,0.0,0.0,0.0,0.0,0.0,0.0,0.0,0.0,0.0,0.0,0.0,0.0,0.0,0.0,0.0,0.0,0.0,0.0,0.0,0.0,0.0,0.0,0.0,0.0,0.0,0.0,0.0,0.0,0.0,0.0,0.0,0.0,0.0,0.0,0.0,0.0,0.0,0.0,0.0,0.0,0.0,0.0,0.0,0.0,0.0,0.0,0.0,0.0,0.0,0.0,0.0,0.0,0.0,0.0,0.0,0.0,0.0,0.0,0.0,0.0,0.0,0.0,0.0,0.0,0.0,0.0,0.0,0.0,0.0,0.0,0.0,0.0,0.0,0.0,0.0,0.0,0.0,0.0,0.0,0.0,0.0,0.0,0.0,0.0,0.0,0.0,0.0,0.0,0.0,0.0,0.0,0.0,0.0,0.0,0.0,0.0,0.0,0.0,0.0,0.0,0.0,0.0,0.0,0.0,0.0,0.0,0.0,0.0,0.0,0.0,0.0,0.0,0.0,0.0,0.0,0.0,0.0,0.0,0.0,0.0,0.0,0.0,0.0,0.0,0.0,0.0,0.0,0.0,0.0,0.0,0.0,0.0,0.0,0.0,0.0,0.0,0.0,0.0,0.0,0.0,0.0,0.0,0.0,0.0,0.0,0.0,0.0,0.0,0.0,0.0,0.0,0.0,0.0,0.0,0.0,0.0,0.0,0.0,0.0,0.0,0.0,0.0,0.0,0.0,0.0,0.0,0.0,0.0,0.0,0.0,0.0,0.0,0.0,0.0,0.0,0.0,0.0,0.0,0.0,0.0,0.0,0.0,0.0,0.0,0.0,0.0,0.0,0.0,0.0,0.0,0.0,0.0,0.0,0.0,0.0,0.0,0.0,0.0,0.0,0.0,0.0,0.0,0.0,0.0,0.0,0.0,0.0,0.0,0.0,0.0,0.0,0.0,0.0,0.0,0.0,0.0,0.0,0.0,0.0,0.0,0.0,0.0,0.0,0.0,0.0,0.0,0.0,0.0,0.0,0.0,0.0,0.0,0.0,0.0,0.0,0.0,0.0,0.0,0.0,0.0,0.0,0.0,0.0,0.0,0.0,0.0,0.0,0.0,0.0,0.0,0.0,0.0,0.0,0.0,0.0,0.0,0.0,0.0,0.0,0.0,0.0,0.0,0.0,0.0,0.0,0.0,0.0,0.0,0.0,0.0,0.0,0.0,0.0,0.0,0.0,0.0,0.0,0.0,0.0,0.0,0.0,0.0,0.0,0.0,0.0,0.0,0.0,0.0,0.0,0.0,0.0,0.0,0.0,0.0,0.0,0.0,0.0,0.0,0.0,0.0,0.0,0.0,0.0,0.0,0.0,0.0,0.0,0.0,0.0,0.0,0.0,0.0,0.0,0.0,0.0,0.0,0.0,0.0,0.0,0.0,0.0,0.0,0.0,0.0,0.0,0.0,0.0,0.0,0.0,0.0,0.0,0.0,0.0,0.0,0.0,0.0,0.0,0.0,0.0,0.0,0.0,0.0,0.0,0.0,0.0,0.0,0.0,0.0,0.0,0.0,0.0,0.0,0.0,0.0,0.0,0.0,0.0,0.0,0.0,0.0,0.0,0.0,0.0,0.0,0.0,0.0,0.0,0.0,0.0,0.0,0.0,0.0,0.0,0.0,0.0,0.0,0.0,0.0,0.0,0.0,0.0,0.0,0.0,0.0,0.0,0.0,0.0,0.0,0.0,0.0,0.0,0.0,0.0,0.0,0.0,0.0,0.0,0.0,0.0,0.0,0.0,0.0,0.0,0.0,0.0,0.0,0.0,0.0,0.0,0.0,0.0,0.0,0.0,0.0,0.0,0.0,0.0,0.0,0.0,0.0,0.0,0.0,0.0,0.0,0.0,0.0,0.0,0.0,0.0,0.0,0.0,0.0,0.0,0.0,0.0,0.0,0.0,0.0,0.0,0.0,0.0,0.0,0.0,0.0,0.0,0.0,0.0,0.0,0.0,0.0,0.0,0.0,0.0,0.0,0.0,0.0,0.0,0.0,0.0,0.0,0.0,0.0,0.0,0.0,0.0,0.0,0.0,0.0,0.0,0.0,0.0,0.0,0.0,0.0,0.0,0.0,0.0,0.0,0.0,0.0,0.0,0.0,0.0,0.0,0.0,0.0,0.0,0.0,0.0,0.0,0.0,0.0,0.0,0.0,0.0,0.0,0.0,0.0,0.0,0.0,0.0,0.0,0.0,0.0,0.0,0.0,0.0,0.0,0.0,0.0,0.0,0.0,0.0,0.0,0.0,0.0,0.0,0.0,0.0,0.0,0.0,0.0,0.0,0.0,0.0,0.0,-0.6317,0.0,0.0,0.0,0.0,0.0,0.0,0.0,0.0,0.0,0.0,0.0,0.0,0.0,0.0,0.0,0.0,0.0,0.0,0.0,0.0,0.0,0.0,0.0,0.0,0.0,0.0,0.0,0.0,0.0,0.0,0.0,0.0,0.0,0.0,0.0,0.0,0.0,0.0,0.0,0.0,0.0,0.0,0.0,0.0,0.0,0.0,0.0,0.0,0.0,0.0,0.0,0.0,0.0,0.0,0.0,0.0,0.0,0.0,0.0,0.0,0.0,0.0,0.0,0.0,0.0,0.0,0.0,0.0,0.0,0.0,0.0,0.0,0.0,0.0,0.0,0.0,0.0,0.0,0.0,0.0,0.0,0.0,0.0,0.0,0.0,0.0,0.0,0.0,0.0,0.0,0.0,0.0,0.0,0.0,0.0,0.0,0.0,0.0,0.0,0.0,0.0,0.0,0.0,0.0,0.0,0.0,0.0,0.0,0.0,0.0,-0.5452,-0.6251,-0.6569,-0.6578,-0.6389,0.0,0.0,0.0,0.0,0.0,0.0,0.0,0.0,0.0,0.0,0.0,0.0,0.0,0.0,0.0,0.0,0.0,0.0,0.0,0.0,0.0,0.0,0.0,0.0,0.0,0.0,0.0,0.0,0.0,0.0,0.0,0.0,0.0,0.0,0.0,0.0,0.0,0.0,0.0,0.0,0.0,0.0,0.0,0.0,0.0,0.0,0.0,0.0,0.0,0.0,0.0,0.0,0.0,0.0,0.0,0.0,0.0,0.0,0.0,0.0,0.0,0.0,0.0,0.0,0.0,0.0,0.0,0.0,0.0,0.0,0.0,0.0,0.0,0.0,0.0,0.0,0.0,0.0,0.0,0.0,0.0,0.0,0.0,0.0,0.0,0.0,0.0,0.0,0.0,0.0,0.0,0.0,0.0,0.0,0.0,0.0,0.0,0.0,0.0,0.0,0.0,0.0,0.0,0.0,0.0,0.0,0.0,0.0,0.0,0.0,0.0,0.0,-0.6757,-0.6703,-0.6407,0.0,0.0,0.0,0.0,0.0,0.0,0.0,0.0,0.0,0.0,0.0,0.0,0.0,0.0,0.0,0.0,0.0,0.0,0.0,0.0,0.0,0.0,0.0,0.0,0.0,0.0,0.0,0.0,0.0,0.0,0.0,0.0,0.0,0.0,0.0,0.0,0.0,0.0,0.0,0.0,0.0,0.0,0.0,0.0,0.0,0.0,0.0,0.0,0.0,0.0,0.0,0.0,0.0,0.0,0.0,0.0,0.0,0.0,0.0,0.0,0.0,0.0,0.0,0.0,0.0,0.0,0.0,0.0,0.0,0.0,0.0,0.0,0.0,0.0,0.0,0.0,0.0,0.0,0.0,0.0,0.0,0.0,0.0,0.0,0.0,0.0,0.0,0.0,0.0,0.0,0.0,0.0,0.0,0.0,0.0,0.0,0.0,0.0,0.0,0.0,0.0,0.0,0.0,0.0,0.0,0.0,0.0,0.0,0.0,0.0,-0.6258,-0.6845,-0.6919,0.0,-0.6421,0.0,0.0,0.0,0.0,0.0,0.0,0.0,0.0,0.0,0.0,0.0,0.0,0.0,0.0,0.0,0.0,0.0,0.0,0.0,0.0,0.0,0.0,0.0,0.0,0.0,0.0,0.0,0.0,0.0,0.0,0.0,0.0,0.0,0.0,0.0,0.0,0.0,0.0,0.0,0.0,0.0,0.0,0.0,0.0,0.0,0.0,0.0,0.0,0.0,0.0,0.0,0.0,0.0,0.0,0.0,0.0,0.0,0.0,0.0,0.0,0.0,0.0,0.0,0.0,0.0,0.0,0.0,0.0,0.0,0.0,0.0,0.0,0.0,0.0,0.0,0.0,0.0,0.0,0.0,0.0,0.0,0.0,0.0,0.0,0.0,0.0,0.0,0.0,0.0,0.0,0.0,0.0,0.0,0.0,0.0,0.0,0.0,0.0,0.0,0.0,0.0,0.0,0.0,0.0,0.0,0.0,0.0,0.0,0.0,0.0,-0.5877,-0.7106,-0.7053,-0.681,0.0,0.0,0.0,0.0,0.0,0.0,0.0,0.0,0.0,0.0,0.0,0.0,0.0,0.0,0.0,0.0,0.0,0.0,0.0,0.0,0.0,0.0,0.0,0.0,0.0,0.0,0.0,0.0,0.0,0.0,0.0,0.0,0.0,0.0,0.0,0.0,0.0,0.0,0.0,0.0,0.0,0.0,0.0,0.0,0.0,0.0,0.0,0.0,0.0,0.0,0.0,0.0,0.0,0.0,0.0,0.0,0.0,0.0,0.0,0.0,0.0,0.0,0.0,0.0,0.0,0.0,0.0,0.0,0.0,0.0,0.0,0.0,0.0,0.0,0.0,0.0,0.0,0.0,0.0,0.0,0.0,0.0,0.0,0.0,0.0,0.0,0.0,0.0,0.0,0.0,0.0,0.0,0.0,0.0,0.0,0.0,0.0,0.0,0.0,0.0,0.0,0.0,0.0,0.0,0.0,0.0,0.0,0.0,0.0,0.0,-0.5079,-0.5931,-0.7161,-0.7122,-0.6912,-0.6672,0.0,0.0,0.0,0.0,0.0,0.0,0.0,0.0,0.0,0.0,0.0,0.0,0.0,0.0,0.0,0.0,0.0,0.0,0.0,0.0,0.0,0.0,0.0,0.0,0.0,0.0,0.0,0.0,0.0,0.0,0.0,0.0,0.0,0.0,0.0,0.0,0.0,0.0,0.0,0.0,0.0,0.0,0.0,0.0,0.0,0.0,0.0,0.0,0.0,0.0,0.0,0.0,0.0,0.0,0.0,0.0,0.0,0.0,0.0,0.0,0.0,0.0,0.0,0.0,0.0,0.0,0.0,0.0,0.0,0.0,0.0,0.0,0.0,0.0,0.0,0.0,0.0,0.0,0.0,0.0,0.0,0.0,0.0,0.0,0.0,0.0,0.0,0.0,0.0,0.0,0.0,0.0,0.0,0.0,0.0,0.0,0.0,0.0,0.0,0.0,0.0,0.0,0.0,0.0,0.0,0.0,0.0,0.0,-0.4726,-0.606,-0.6938,-0.7173,-0.7207,-0.7084,0.0,0.0,0.0,0.0,0.0,0.0,0.0,0.0,0.0,0.0,0.0,0.0,0.0,0.0,0.0,0.0,0.0,0.0,0.0,0.0,0.0,0.0,0.0,0.0,0.0,0.0,0.0,0.0,0.0,0.0,0.0,0.0,0.0,0.0,0.0,0.0,0.0,0.0,0.0,0.0,0.0,0.0,0.0,0.0,0.0,0.0,0.0,0.0,0.0,0.0,0.0,0.0,0.0,0.0,0.0,0.0,0.0,0.0,0.0,0.0,0.0,0.0,0.0,0.0,0.0,0.0,0.0,0.0,0.0,0.0,0.0,0.0,0.0,0.0,0.0,0.0,0.0,0.0,0.0,0.0,0.0,0.0,0.0,0.0,0.0,0.0,0.0,0.0,0.0,0.0,0.0,0.0,0.0,0.0,0.0,0.0,0.0,0.0,0.0,0.0,0.0,0.0,0.0,0.0,0.0,0.0,0.0,0.0,0.0,-0.47,-0.6313,-0.7201,-0.7269,-0.7127,-0.7071,0.0,0.0,0.0,0.0,0.0,0.0,0.0,0.0,0.0,0.0,0.0,0.0,0.0,0.0,0.0,0.0,0.0,0.0,0.0,0.0,0.0,0.0,0.0,0.0,0.0,0.0,0.0,0.0,0.0,0.0,0.0,0.0,0.0,0.0,0.0,0.0,0.0,0.0,0.0,0.0,0.0,0.0,0.0,0.0,0.0,0.0,0.0,0.0,0.0,0.0,0.0,0.0,0.0,0.0,0.0,0.0,0.0,0.0,0.0,0.0,0.0,0.0,0.0,0.0,0.0,0.0,0.0,0.0,0.0,0.0,0.0,0.0,0.0,0.0,0.0,0.0,0.0,0.0,0.0,0.0,0.0,0.0,0.0,0.0,0.0,0.0,0.0,0.0,0.0,0.0,0.0,0.0,0.0,0.0,0.0,0.0,0.0,0.0,0.0,0.0,0.0,0.0,0.0,0.0,0.0,0.0,0.0,0.0,0.0,-0.5435,0.0,-0.7317,-0.7271,-0.7086,-0.7096,0.0,0.0,0.0,0.0,0.0,0.0,0.0,0.0,0.0,0.0,0.0,0.0,0.0,0.0,0.0,0.0,0.0,0.0,0.0,0.0,0.0,0.0,0.0,0.0,0.0,0.0,0.0,0.0,0.0,0.0,0.0,0.0,0.0,0.0,0.0,0.0,0.0,0.0,0.0,0.0,0.0,0.0,0.0,0.0,0.0,0.0,0.0,0.0,0.0,0.0,0.0,0.0,0.0,0.0,0.0,0.0,0.0,0.0,0.0,0.0,0.0,0.0,0.0,0.0,0.0,0.0,0.0,0.0,0.0,0.0,0.0,0.0,0.0,0.0,0.0,0.0,0.0,0.0,0.0,0.0,0.0,0.0,0.0,0.0,0.0,0.0,0.0,0.0,0.0,0.0,0.0,0.0,0.0,0.0,0.0,0.0,0.0,0.0,0.0,0.0,0.0,0.0,0.0,0.0,0.0,0.0,0.0,0.0,-0.5206,-0.7085,-0.7215,-0.7285,-0.7221,-0.7106,-0.7138,0.0,0.0,0.0,0.0,0.0,0.0,0.0,0.0,0.0,0.0,0.0,0.0,0.0,0.0,0.0,0.0,0.0,0.0,0.0,0.0,0.0,0.0,0.0,0.0,0.0,0.0,0.0,0.0,0.0,0.0,0.0,0.0,0.0,0.0,0.0,0.0,0.0,0.0,0.0,0.0,0.0,0.0,0.0,0.0,0.0,0.0,0.0,0.0,0.0,0.0,0.0,0.0,0.0,0.0,0.0,0.0,0.0,0.0,0.0,0.0,0.0,0.0,0.0,0.0,0.0,0.0,0.0,0.0,0.0,0.0,0.0,0.0,0.0,0.0,0.0,0.0,0.0,0.0,0.0,0.0,0.0,0.0,0.0,0.0,0.0,0.0,0.0,0.0,0.0,0.0,0.0,0.0,0.0,0.0,0.0,0.0,0.0,0.0,0.0,0.0,0.0,0.0,0.0,0.0,0.0,0.0,0.0,0.0,0.0,-0.7149,-0.7274,-0.7358,-0.7394,-0.7351,-0.7336,0.0,0.0,0.0,0.0,0.0,0.0,0.0,0.0,0.0,0.0,0.0,0.0,0.0,0.0,0.0,0.0,0.0,0.0,0.0,0.0,0.0,0.0,0.0,0.0,0.0,0.0,0.0,0.0,0.0,0.0,0.0,0.0,0.0,0.0,0.0,0.0,0.0,0.0,0.0,0.0,0.0,0.0,0.0,0.0,0.0,0.0,0.0,0.0,0.0,0.0,0.0,0.0,0.0,0.0,0.0,0.0,0.0,0.0,0.0,0.0,0.0,0.0,0.0,0.0,0.0,0.0,0.0,0.0,0.0,0.0,0.0,0.0,0.0,0.0,0.0,0.0,0.0,0.0,0.0,0.0,0.0,0.0,0.0,0.0,0.0,0.0,0.0,0.0,0.0,0.0,0.0,0.0,0.0,0.0,0.0,0.0,0.0,0.0,0.0,0.0,0.0,0.0,0.0,0.0,0.0,0.0,0.0,0.0,0.0,-0.7285,-0.7364,-0.7382,-0.7516,-0.7446,-0.7481,-0.7662,0.0,0.0,0.0,0.0,0.0,0.0,0.0,0.0,0.0,0.0,0.0,0.0,0.0,0.0,0.0,0.0,0.0,0.0,0.0,0.0,0.0,0.0,0.0,0.0,0.0,0.0,0.0,0.0,0.0,0.0,0.0,0.0,0.0,0.0,0.0,0.0,0.0,0.0,0.0,0.0,0.0,0.0,0.0,0.0,0.0,0.0,0.0,0.0,0.0,0.0,0.0,0.0,0.0,0.0,0.0,0.0,0.0,0.0,0.0,0.0,0.0,0.0,0.0,0.0,0.0,0.0,0.0,0.0,0.0,0.0,0.0,0.0,0.0,0.0,0.0,0.0,0.0,0.0,0.0,0.0,0.0,0.0,0.0,0.0,0.0,0.0,0.0,0.0,0.0,0.0,0.0,0.0,0.0,0.0,0.0,0.0,0.0,0.0,0.0,0.0,0.0,0.0,0.0,0.0,0.0,0.0,0.0,0.0,-0.7516,-0.7532,-0.7546,-0.7551,-0.7486,-0.7545,0.0,0.0,0.0,0.0,0.0,0.0,0.0,0.0,0.0,0.0,0.0,0.0,0.0,0.0,0.0,0.0,0.0,0.0,0.0,0.0,0.0,0.0,0.0,0.0,0.0,0.0,0.0,0.0,0.0,0.0,0.0,0.0,0.0,0.0,0.0,0.0,0.0,0.0,0.0,0.0,0.0,0.0,0.0,0.0,0.0,0.0,0.0,0.0,0.0,0.0,0.0,0.0,0.0,0.0,0.0,0.0,0.0,0.0,0.0,0.0,0.0,0.0,0.0,0.0,0.0,0.0,0.0,0.0,0.0,0.0,0.0,0.0,0.0,0.0,0.0,0.0,0.0,0.0,0.0,0.0,0.0,0.0,0.0,0.0,0.0,0.0,0.0,0.0,0.0,0.0,0.0,0.0,0.0,0.0,0.0,0.0,0.0,0.0,0.0,0.0,0.0,0.0,0.0,0.0,0.0,0.0,0.0,0.0,0.0,-0.751,-0.7931,-0.819,-0.8206,-0.8151,-0.8198,0.0,0.0,0.0,0.0,0.0,0.0,0.0,0.0,0.0,0.0,0.0,0.0,0.0,0.0,0.0,0.0,0.0,0.0,0.0,0.0,0.0,0.0,0.0,0.0,0.0,0.0,0.0,0.0,0.0,0.0,0.0,0.0,0.0,0.0,0.0,0.0,0.0,0.0,0.0,0.0,0.0,0.0,0.0,0.0,0.0,0.0,0.0,0.0,0.0,0.0,0.0,0.0,0.0,0.0,0.0,0.0,0.0,0.0,0.0,0.0,0.0,0.0,0.0,0.0,0.0,0.0,0.0,0.0,0.0,0.0,0.0,0.0,0.0,0.0,0.0,0.0,0.0,0.0,0.0,0.0,0.0,0.0,0.0,0.0,0.0,0.0,0.0,0.0,0.0,0.0,0.0,0.0,0.0,0.0,0.0,0.0,0.0,0.0,0.0,0.0,0.0,0.0,0.0,0.0,0.0,0.0,0.0,0.0,-0.7423,-0.7665,-0.8211,-0.8622,-0.8815,-0.8692,-0.881,0.0,0.0,0.0,0.0,0.0,0.0,0.0,0.0,0.0,0.0,0.0,0.0,0.0,0.0,0.0,0.0,0.0,0.0,0.0,0.0,0.0,0.0,0.0,0.0,0.0,0.0,0.0,0.0,0.0,0.0,0.0,0.0,0.0,0.0,0.0,0.0,0.0,0.0,0.0,0.0,0.0,0.0,0.0,0.0,0.0,0.0,0.0,0.0,0.0,0.0,0.0,0.0,0.0,0.0,0.0,0.0,0.0,0.0,0.0,0.0,0.0,0.0,0.0,0.0,0.0,0.0,0.0,0.0,0.0,0.0,0.0,0.0,0.0,0.0,0.0,0.0,0.0,0.0,0.0,0.0,0.0,0.0,0.0,0.0,0.0,0.0,0.0,0.0,0.0,0.0,0.0,0.0,0.0,0.0,0.0,0.0,0.0,0.0,0.0,0.0,0.0,0.0,0.0,0.0,0.0,0.0,0.0,0.0,-0.7614,-0.7911,-0.8452,-0.8903,-0.9297,-0.9058,-0.9334,0.0,0.0,0.0,0.0,0.0,0.0,0.0,0.0,0.0,0.0,0.0,0.0,0.0,0.0,0.0,0.0,0.0,0.0,0.0,0.0,0.0,0.0,0.0,0.0,0.0,0.0,0.0,0.0,0.0,0.0,0.0,0.0,0.0,0.0,0.0,0.0,0.0,0.0,0.0,0.0,0.0,0.0,0.0,0.0,0.0,0.0,0.0,0.0,0.0,0.0,0.0,0.0,0.0,0.0,0.0,0.0,0.0,0.0,0.0,0.0,0.0,0.0,0.0,0.0,0.0,0.0,0.0,0.0,0.0,0.0,0.0,0.0,0.0,0.0,0.0,0.0,0.0,0.0,0.0,0.0,0.0,0.0,0.0,0.0,0.0,0.0,0.0,0.0,0.0,0.0,0.0,0.0,0.0,0.0,0.0,0.0,0.0,0.0,0.0,0.0,0.0,0.0,0.0,0.0,0.0,0.0,0.0,0.0,-0.7494,-0.7731,-0.8488,-0.8975,-0.9306,-0.9241,-0.9658,0.0,0.0,0.0,0.0,0.0,0.0,0.0,0.0,0.0,0.0,0.0,0.0,0.0,0.0,0.0,0.0,0.0,0.0,0.0,0.0,0.0,0.0,0.0,0.0,0.0,0.0,0.0,0.0,0.0,0.0,0.0,0.0,0.0,0.0,0.0,0.0,0.0,0.0,0.0,0.0,0.0,0.0,0.0,0.0,0.0,0.0,0.0,0.0,-0.7369,0.0,0.0,0.0,0.0,0.0,0.0,0.0,0.0,0.0,0.0,0.0,0.0,0.0,0.0,0.0,0.0,0.0,0.0,0.0,0.0,0.0,0.0,0.0,0.0,0.0,0.0,0.0,0.0,0.0,0.0,0.0,0.0,0.0,0.0,0.0,0.0,0.0,0.0,0.0,0.0,0.0,0.0,0.0,0.0,0.0,0.0,0.0,0.0,0.0,0.0,0.0,0.0,0.0,0.0,0.0,0.0,0.0,0.0,0.0,-0.7652,-0.7782,-0.8632,-0.9143,-0.9214,-0.9454,-1.0247,0.0,0.0,0.0,0.0,0.0,0.0,0.0,0.0,0.0,0.0,0.0,0.0,0.0,0.0,0.0,0.0,0.0,0.0,0.0,0.0,0.0,0.0,0.0,0.0,0.0,0.0,0.0,0.0,0.0,0.0,0.0,0.0,0.0,0.0,0.0,0.0,0.0,0.0,0.0,0.0,0.0,0.0,0.0,0.0,0.0,0.0,0.0,0.0,0.0,0.0,0.0,0.0,0.0,0.0,0.0,0.0,0.0,0.0,0.0,0.0,0.0,0.0,0.0,0.0,0.0,0.0,0.0,0.0,0.0,0.0,0.0,0.0,0.0,0.0,0.0,0.0,0.0,0.0,0.0,0.0,0.0,0.0,0.0,0.0,0.0,0.0,0.0,0.0,0.0,0.0,0.0,0.0,0.0,0.0,0.0,0.0,0.0,0.0,0.0,0.0,0.0,0.0,0.0,0.0,0.0,0.0,0.0,-0.7592,-0.7878,-0.8,-0.8824,-0.9211,-0.9187,-0.9718,-1.0759,-1.2381,0.0,0.0,0.0,0.0,0.0,0.0,0.0,0.0,0.0,0.0,0.0,0.0,0.0,0.0,0.0,0.0,0.0,0.0,0.0,0.0,0.0,0.0,0.0,0.0,0.0,0.0,0.0,0.0,0.0,0.0,0.0,0.0,0.0,0.0,0.0,0.0,0.0,0.0,-0.5563,-0.6302,0.0,0.0,0.0,0.0,0.0,0.0,0.0,0.0,-0.8916,0.0,0.0,0.0,0.0,0.0,0.0,0.0,0.0,0.0,0.0,0.0,0.0,0.0,0.0,0.0,0.0,0.0,0.0,0.0,0.0,0.0,0.0,0.0,0.0,0.0,0.0,0.0,0.0,0.0,0.0,0.0,0.0,0.0,0.0,0.0,0.0,0.0,0.0,0.0,0.0,0.0,0.0,0.0,0.0,0.0,0.0,0.0,0.0,0.0,0.0,0.0,0.0,0.0,0.0,0.0,0.0,-0.7451,-0.7437,-0.7688,-0.8297,-0.8775,-0.9146,-0.9486,-0.9743,-1.0647,-1.2188,0.0,0.0,0.0,0.0,0.0,0.0,0.0,0.0,0.0,0.0,0.0,0.0,0.0,0.0,0.0,0.0,0.0,0.0,0.0,0.0,0.0,0.0,0.0,0.0,0.0,0.0,0.0,0.0,0.0,0.0,0.0,0.0,0.0,0.0,0.0,0.0,0.0,0.0,0.0,-0.6898,-0.7208,0.0,0.0,0.0,0.0,0.0,0.0,0.0,0.0,-1.0941,0.0,0.0,0.0,0.0,0.0,0.0,0.0,0.0,0.0,0.0,0.0,0.0,0.0,0.0,0.0,0.0,0.0,0.0,0.0,0.0,0.0,0.0,0.0,0.0,0.0,0.0,0.0,0.0,0.0,0.0,0.0,0.0,0.0,0.0,0.0,0.0,0.0,0.0,0.0,0.0,0.0,0.0,0.0,0.0,0.0,0.0,0.0,0.0,0.0,0.0,0.0,0.0,0.0,0.0,0.0,-0.732,-0.7513,-0.788,-0.8366,-0.8868,-0.9212,-0.9442,-0.961,-1.0486,0.0,0.0,0.0,0.0,0.0,0.0,0.0,0.0,0.0,0.0,0.0,0.0,0.0,0.0,0.0,0.0,0.0,0.0,0.0,0.0,0.0,0.0,0.0,0.0,0.0,0.0,0.0,0.0,0.0,0.0,0.0,0.0,0.0,0.0,0.0,0.0,0.0,0.0,0.0,0.0,-0.7154,-0.7386,-0.7684,0.0,0.0,0.0,0.0,0.0,0.0,-1.0385,-1.1728,0.0,0.0,0.0,0.0,0.0,0.0,0.0,0.0,0.0,0.0,0.0,0.0,0.0,0.0,0.0,0.0,0.0,0.0,0.0,0.0,0.0,0.0,0.0,0.0,0.0,0.0,0.0,0.0,0.0,0.0,0.0,0.0,0.0,0.0,0.0,0.0,0.0,0.0,0.0,0.0,0.0,0.0,0.0,0.0,0.0,0.0,0.0,0.0,0.0,0.0,0.0,0.0,0.0,0.0,0.0,-0.7218,-0.7557,-0.8043,-0.8494,-0.891,-0.9212,-0.9361,-0.9698,-1.0551,0.0,0.0,0.0,0.0,0.0,0.0,0.0,0.0,0.0,0.0,0.0,0.0,0.0,0.0,0.0,0.0,0.0,0.0,0.0,0.0,0.0,0.0,0.0,0.0,0.0,0.0,0.0,0.0,0.0,0.0,0.0,0.0,0.0,0.0,0.0,0.0,0.0,0.0,0.0,0.0,0.0,-0.7665,-0.7665,-0.7603,0.0,0.0,0.0,0.0,-0.9617,-1.0923,0.0,0.0,0.0,0.0,0.0,0.0,0.0,0.0,0.0,0.0,0.0,0.0,0.0,0.0,0.0,0.0,0.0,0.0,0.0,0.0,0.0,0.0,0.0,0.0,0.0,0.0,0.0,0.0,0.0,0.0,0.0,0.0,0.0,0.0,0.0,0.0,0.0,0.0,0.0,0.0,0.0,0.0,0.0,0.0,0.0,0.0,0.0,0.0,0.0,0.0,0.0,0.0,0.0,0.0,0.0,0.0,-0.7199,-0.7312,-0.7844,-0.8769,-0.8763,-0.8944,-0.9572,-1.0475,-1.1218,0.0,0.0,0.0,0.0,0.0,0.0,0.0,0.0,0.0,0.0,0.0,0.0,0.0,0.0,0.0,0.0,0.0,0.0,0.0,0.0,0.0,0.0,0.0,0.0,0.0,0.0,0.0,0.0,0.0,0.0,0.0,0.0,0.0,0.0,0.0,0.0,0.0,0.0,0.0,0.0,0.0,-0.794,-0.7595,-0.7619,-0.7592,0.0,0.0,-0.8172,-0.876,-1.0922,0.0,0.0,0.0,0.0,0.0,0.0,0.0,0.0,0.0,0.0,0.0,0.0,0.0,0.0,0.0,0.0,0.0,0.0,0.0,0.0,0.0,0.0,0.0,0.0,0.0,0.0,0.0,0.0,0.0,0.0,0.0,0.0,0.0,0.0,0.0,0.0,0.0,0.0,0.0,0.0,0.0,0.0,0.0,0.0,0.0,0.0,0.0,0.0,0.0,0.0,0.0,0.0,0.0,0.0,0.0,-0.6834,-0.7109,-0.7407,-0.7904,-0.8607,-0.8744,-0.901,-0.9479,-1.0232,-1.103,0.0,0.0,0.0,0.0,0.0,0.0,0.0,0.0,0.0,0.0,0.0,0.0,0.0,0.0,0.0,0.0,0.0,0.0,0.0,0.0,0.0,0.0,0.0,0.0,0.0,0.0,0.0,0.0,0.0,0.0,0.0,0.0,0.0,0.0,0.0,0.0,0.0,0.0,0.0,0.0,0.0,0.0,-0.7652,-0.7725,0.0,0.0,0.0,-0.8964,-1.0627,0.0,0.0,0.0,0.0,0.0,0.0,0.0,0.0,0.0,0.0,0.0,0.0,0.0,0.0,0.0,0.0,0.0,0.0,0.0,0.0,0.0,0.0,0.0,0.0,0.0,0.0,0.0,0.0,0.0,0.0,0.0,0.0,0.0,0.0,0.0,0.0,0.0,0.0,0.0,0.0,0.0,0.0,0.0,0.0,0.0,0.0,0.0,0.0,0.0,0.0,0.0,0.0,0.0,0.0,0.0,0.0,0.0,-0.6983,-0.7438,-0.7892,-0.8329,-0.863,-0.8906,-0.9262,-1.0304,0.0,0.0,0.0,0.0,0.0,0.0,0.0,0.0,0.0,0.0,0.0,0.0,0.0,0.0,0.0,0.0,0.0,0.0,0.0,0.0,0.0,0.0,0.0,0.0,0.0,0.0,0.0,-0.5723,0.0,0.0,0.0,0.0,0.0,0.0,0.0,0.0,0.0,0.0,0.0,0.0,0.0,0.0,-0.7679,-0.7616,-0.7758,-0.7961,0.0,0.0,-0.9961,-1.194,-1.3133,-1.4127,0.0,0.0,0.0,0.0,0.0,0.0,0.0,0.0,0.0,0.0,0.0,0.0,0.0,0.0,0.0,0.0,0.0,0.0,0.0,0.0,0.0,0.0,0.0,0.0,0.0,0.0,0.0,0.0,0.0,0.0,0.0,0.0,0.0,0.0,0.0,0.0,0.0,0.0,0.0,0.0,0.0,0.0,0.0,0.0,0.0,0.0,0.0,0.0,0.0,0.0,0.0,0.0,0.0,0.0,0.0,-0.6986,-0.7214,-0.7621,-0.8205,-0.8265,-0.8486,-0.8974,-1.1055,-1.1903,0.0,0.0,0.0,0.0,0.0,0.0,0.0,0.0,0.0,0.0,0.0,0.0,0.0,0.0,0.0,0.0,0.0,0.0,0.0,0.0,0.0,0.0,0.0,0.0,0.0,0.0,0.0,0.0,0.0,0.0,0.0,0.0,0.0,0.0,0.0,0.0,0.0,0.0,0.0,0.0,0.0,-0.7619,-0.7391,-0.7652,-0.7991,0.0,0.0,-1.0812,-1.1339,-1.3783,-1.5312,-1.4282,0.0,0.0,0.0,0.0,0.0,0.0,0.0,0.0,0.0,0.0,0.0,0.0,0.0,0.0,0.0,0.0,0.0,0.0,0.0,0.0,0.0,0.0,0.0,0.0,0.0,0.0,0.0,0.0,0.0,0.0,0.0,0.0,0.0,0.0,0.0,0.0,0.0,0.0,0.0,0.0,0.0,0.0,0.0,0.0,0.0,0.0,0.0,0.0,0.0,0.0,0.0,0.0,0.0,-0.6589,-0.676,-0.7157,-0.7555,-0.7941,-0.8167,-0.842,-0.8743,-1.0716,-1.1574,0.0,0.0,0.0,0.0,0.0,0.0,0.0,0.0,0.0,0.0,0.0,0.0,0.0,0.0,0.0,0.0,0.0,0.0,0.0,0.0,0.0,0.0,0.0,0.0,0.0,0.0,0.0,0.0,-0.6062,-0.61,-0.6237,0.0,0.0,0.0,0.0,0.0,0.0,0.0,0.0,0.0,0.0,-0.7494,-0.7551,-0.7736,0.0,0.0,-0.9854,-1.1094,-1.2344,-1.402,-1.5091,-1.4944,-1.5192,0.0,0.0,0.0,0.0,0.0,0.0,0.0,0.0,0.0,0.0,0.0,0.0,0.0,0.0,0.0,0.0,0.0,0.0,0.0,0.0,0.0,0.0,0.0,0.0,0.0,0.0,0.0,0.0,0.0,0.0,0.0,0.0,0.0,0.0,0.0,0.0,0.0,0.0,0.0,0.0,0.0,0.0,0.0,0.0,0.0,0.0,0.0,0.0,0.0,0.0,0.0,0.0,-0.6448,-0.6511,-0.7068,-0.7443,-0.7671,-0.8034,-0.8358,-0.8574,-1.0162,-1.1065,0.0,0.0,0.0,0.0,0.0,0.0,0.0,0.0,0.0,0.0,0.0,0.0,0.0,0.0,0.0,0.0,0.0,0.0,0.0,0.0,0.0,0.0,0.0,0.0,0.0,0.0,0.0,0.0,-0.6159,-0.6159,-0.6159,0.0,0.0,0.0,0.0,0.0,0.0,0.0,0.0,0.0,0.0,-0.7396,-0.7568,-0.778,-0.8288,-0.9153,-1.0351,-1.1774,-1.3404,-1.4587,-1.5421,-1.5468,0.0,0.0,0.0,0.0,0.0,0.0,0.0,0.0,0.0,0.0,0.0,0.0,0.0,0.0,0.0,0.0,0.0,0.0,0.0,0.0,0.0,0.0,0.0,0.0,0.0,0.0,0.0,0.0,0.0,0.0,-0.6368,0.0,0.0,0.0,0.0,0.0,0.0,0.0,0.0,0.0,0.0,0.0,0.0,0.0,0.0,0.0,0.0,0.0,0.0,0.0,0.0,0.0,0.0,-0.6328,-0.6392,-0.6935,-0.727,-0.7413,-0.7789,-0.8112,-0.8347,-0.9586,-1.048,-1.0988,0.0,0.0,0.0,0.0,0.0,0.0,0.0,0.0,0.0,0.0,0.0,0.0,0.0,0.0,0.0,0.0,0.0,0.0,0.0,0.0,0.0,0.0,0.0,0.0,0.0,0.0,-0.5918,-0.5912,-0.5918,0.0,0.0,0.0,0.0,0.0,0.0,0.0,0.0,0.0,0.0,-0.7111,-0.7277,-0.7345,-0.778,-0.8604,-0.9972,-1.1495,-1.2913,-1.4169,-1.5618,-1.6367,0.0,0.0,0.0,0.0,0.0,0.0,0.0,0.0,0.0,0.0,0.0,0.0,0.0,0.0,0.0,0.0,0.0,0.0,0.0,0.0,0.0,0.0,0.0,0.0,0.0,0.0,0.0,-0.6573,-0.6443,0.0,0.0,0.0,0.0,0.0,0.0,0.0,0.0,0.0,0.0,0.0,-0.6381,-0.6323,0.0,0.0,0.0,0.0,0.0,0.0,0.0,0.0,0.0,0.0,0.0,0.0,-0.6299,-0.662,-0.6915,-0.7282,-0.7645,-0.7792,-0.8004,-0.8272,-0.9272,-1.0294,-1.1323,0.0,0.0,0.0,0.0,0.0,0.0,0.0,0.0,0.0,0.0,0.0,0.0,0.0,0.0,0.0,0.0,0.0,0.0,0.0,0.0,0.0,0.0,0.0,0.0,0.0,-0.5991,0.0,0.0,0.0,0.0,0.0,0.0,0.0,0.0,0.0,0.0,0.0,-0.6603,-0.6888,-0.7027,-0.7404,-0.8146,-0.8733,-0.9613,0.0,0.0,0.0,0.0,0.0,0.0,0.0,0.0,0.0,0.0,0.0,0.0,0.0,0.0,-1.5439,-1.4829,-1.4642,-1.4552,-1.4467,0.0,0.0,0.0,0.0,0.0,0.0,0.0,0.0,0.0,0.0,0.0,0.0,0.0,0.0,-0.5904,0.0,-0.6213,0.0,0.0,0.0,0.0,0.0,0.0,0.0,0.0,-0.6518,-0.6425,-0.6384,-0.6361,-0.6285,0.0,-0.6208,-0.6146,0.0,0.0,0.0,0.0,0.0,0.0,0.0,0.0,-0.6175,-0.6492,-0.6845,-0.7226,-0.7566,-0.7772,-0.7981,-0.8191,-0.9474,-1.0521,-1.1217,-1.2535,-1.2806,0.0,0.0,0.0,0.0,0.0,0.0,0.0,0.0,0.0,0.0,0.0,0.0,0.0,0.0,0.0,0.0,0.0,0.0,0.0,0.0,0.0,0.0,0.0,-0.6021,0.0,0.0,0.0,0.0,0.0,0.0,0.0,0.0,0.0,-0.6592,-0.6586,-0.6755,-0.7422,-0.7588,-0.8019,-0.9031,0.0,0.0,0.0,0.0,0.0,0.0,0.0,-1.5354,-1.4926,-1.4859,-1.4877,-1.4968,-1.5197,-1.539,-1.5487,0.0,0.0,-1.5077,-1.4986,-1.4962,-1.4871,-1.4992,-1.5113,-1.5113,-1.4904,-1.4675,0.0,0.0,0.0,0.0,0.0,0.0,0.0,0.0,-0.4319,-0.4801,0.0,-0.5827,0.0,0.0,0.0,0.0,0.0,-0.6503,0.0,0.0,-0.6559,-0.6554,-0.6398,-0.6387,-0.6384,-0.6387,-0.6381,-0.6374,-0.6303,-0.6026,0.0,0.0,0.0,0.0,0.0,0.0,-0.5961,-0.6125,-0.6723,-0.714,-0.7217,-0.7723,-0.7975,-0.8021,-0.9985,-1.096,-1.0806,-1.2428,-1.3126,-1.2631,-1.2314,0.0,0.0,0.0,0.0,0.0,0.0,0.0,0.0,0.0,0.0,0.0,0.0,0.0,0.0,0.0,0.0,0.0,0.0,0.0,0.0,-0.6078,0.0,0.0,0.0,0.0,0.0,0.0,0.0,0.0,0.0,0.0,-0.664,-0.6761,-0.7211,-0.8207,0.0,0.0,0.0,0.0,-1.1657,-1.242,-1.309,-1.3751,-1.457,-1.5143,-1.5372,-1.5107,0.0,0.0,-1.5505,-1.527,-1.5197,-1.5439,-1.5481,-1.5487,-1.5469,-1.5451,-1.539,-1.5155,-1.5101,-1.5113,-1.5113,-1.4898,-1.4675,0.0,0.0,0.0,0.0,0.0,-0.1281,-0.1858,-0.2295,-0.3318,-0.4157,-0.4817,-0.512,0.0,0.0,0.0,0.0,0.0,0.0,-0.6516,-0.6562,-0.6462,-0.6516,-0.6514,-0.6427,-0.6387,-0.6387,-0.6387,-0.6377,-0.6314,-0.6111,-0.5991,-0.5901,0.0,0.0,0.0,0.0,-0.6015,-0.6241,-0.6546,-0.6864,-0.719,-0.7337,-0.7528,-0.7723,-0.916,-0.9758,-0.9528,-1.0769,-1.1171,-1.0651,-1.0345,0.0,0.0,0.0,0.0,0.0,0.0,0.0,0.0,0.0,0.0,0.0,0.0,0.0,0.0,0.0,0.0,0.0,0.0,0.0,-0.5783,-0.5907,-0.586,0.0,0.0,0.0,0.0,0.0,0.0,0.0,0.0,0.0,-0.7613,-0.7687,-0.7788,0.0,0.0,-0.9868,-1.0734,-1.177,-1.267,-1.3422,-1.431,0.0,0.0,-1.4841,-1.4847,-1.4576,-1.4823,-1.5028,-1.4956,-1.5034,-1.5131,-1.5209,-1.5221,-1.5215,-1.5228,-1.5378,-1.539,-1.5179,-1.5113,-1.5113,-1.5113,-1.5005,-1.4975,0.0,0.0,0.0,0.0,0.0,-0.0714,-0.1031,-0.1152,-0.2233,-0.3239,-0.4173,-0.4597,-0.53,-0.6162,-0.6236,0.0,0.0,0.0,-0.6425,-0.6545,-0.6422,-0.6425,-0.654,-0.6422,-0.6387,-0.6384,-0.6391,-0.6336,-0.6265,-0.6094,-0.5977,-0.5901,0.0,0.0,-0.5688,-0.5756,-0.5906,-0.6136,-0.6345,-0.6596,-0.6926,-0.712,-0.7261,-0.7456,-0.8666,-0.9233,-0.908,-0.9971,-1.0315,-1.0025,-0.9616,-0.9348,0.0,0.0,0.0,0.0,0.0,0.0,0.0,0.0,0.0,0.0,0.0,-0.5426,-0.535,0.0,0.0,0.0,-0.5632,-0.5782,-0.5694,-0.5833,0.0,0.0,0.0,0.0,0.0,0.0,0.0,-0.6442,-0.6453,-0.6809,-0.7945,-0.8428,-0.8824,-0.9392,-1.0028,-1.082,-1.1697,0.0,-1.3389,-1.372,-1.4468,-1.4914,-1.46,-1.4642,-1.469,-1.4636,-1.4757,-1.4871,-1.4877,-1.501,-1.5107,-1.5113,-1.5113,-1.5071,-1.4974,-1.5083,-1.5185,-1.5125,-1.5113,-1.5113,-1.5113,-1.5113,-1.5083,0.0,0.0,0.0,0.0,0.0,0.0,0.0,0.0,-0.1042,-0.2069,-0.3098,-0.411,-0.5137,-0.6184,-0.6282,0.0,-0.6387,-0.6387,-0.6387,-0.6387,-0.6387,-0.6387,-0.6387,-0.6379,-0.6423,-0.6371,-0.6309,-0.6244,-0.6262,-0.6007,-0.589,-0.5871,-0.5737,-0.5688,-0.5688,-0.5691,-0.5739,-0.5888,-0.6122,-0.6317,-0.647,-0.6895,-0.7129,-0.7129,-0.8353,-0.9013,-0.906,-0.9717,-1.0069,-1.0055,-0.9545,-0.9192,-0.9087,0.0,0.0,0.0,0.0,0.0,0.0,0.0,0.0,0.0,0.0,0.0,0.0,0.0,0.0,0.0,-0.567,0.0,-0.5696,-0.5828,0.0,0.0,0.0,-0.5694,-0.5702,-0.595,-0.6132,-0.6303,0.0,0.0,-0.7872,-0.8913,-1.0065,-1.1239,-1.1518,-1.1905,-1.2694,-1.3418,-1.3825,-1.3542,-1.3997,-1.4328,-1.4292,-1.4431,-1.4557,-1.4793,-1.498,-1.4908,-1.4896,-1.4914,-1.4962,-1.4914,-1.4968,-1.4883,-1.4648,-1.4594,-1.4647,-1.489,-1.4992,-1.5022,-1.4962,-1.495,-1.4859,0.0,0.0,0.0,0.0,0.0,0.0,0.0,0.0,-0.0255,-0.0965,-0.1979,-0.2221,-0.3416,-0.5202,-0.5999,-0.6363,-0.6387,-0.6387,-0.6387,-0.6387,-0.6387,-0.6387,-0.6431,-0.6347,-0.6309,-0.6301,-0.6187,-0.6034,-0.5869,-0.589,-0.5766,-0.5602,-0.5656,-0.5688,-0.5688,-0.5688,-0.5702,-0.5773,-0.5821,-0.5967,-0.6172,-0.6436,-0.6571,-0.6571,-0.7177,-0.7516,-0.7516,-0.7889,-0.8091,-0.8087,-0.7556,-0.7279,-0.7236,-0.6863,0.0,0.0,0.0,0.0,0.0,0.0,0.0,0.0,0.0,-0.514,-0.4895,0.0,-0.523,0.0,-0.5474,-0.5615,-0.5727,-0.5712,0.0,0.0,-0.5672,-0.5723,-0.5852,-0.5994,-0.6135,-0.6303,-0.6366,-0.6783,-0.7872,-0.8913,-1.0015,-1.1098,-1.1948,-1.2574,-1.2824,-1.3407,-1.3825,-1.3608,-1.4121,-1.4467,-1.4075,-1.3876,-1.3845,-1.3882,-1.39,-1.3894,-1.3847,-1.3894,-1.3894,-1.3894,-1.39,-1.3863,-1.3833,-1.3803,-1.3827,-1.3912,-1.4208,-1.4425,-1.4238,-1.4195,-1.4117,0.0,0.0,0.0,0.0,0.0,0.0,0.0,0.0,0.0,-0.0606,-0.1613,-0.2117,-0.2972,-0.4128,-0.5231,-0.5684,-0.5734,-0.6187,-0.636,-0.6363,-0.6361,-0.6331,-0.6276,-0.6217,-0.6187,-0.6229,-0.6013,-0.5863,-0.5694,-0.5696,-0.5634,-0.5513,-0.5629,-0.5661,-0.5615,-0.5661,-0.5661,-0.5607,-0.56,-0.5656,-0.5786,-0.5956,-0.6082,-0.6088,-0.6418,-0.6593,-0.6593,-0.6724,-0.6812,-0.6806,-0.6527,-0.6327,-0.6303,-0.5946,-0.5645,0.0,0.0,0.0,0.0,0.0,0.0,0.0,0.0,0.0,0.0,0.0,-0.5233,-0.5339,-0.5478,-0.5615,-0.5683,-0.5688,-0.5688,-0.5688,-0.5688,-0.5779,-0.589,-0.6331,-0.6517,-0.6221,-0.6623,-0.7122,-0.7811,-0.8412,-0.9413,-1.0956,-1.1637,-1.2154,-1.27,-1.322,-1.3459,-1.3371,-1.3824,-1.407,-1.3745,-1.3616,-1.3468,-1.3468,-1.3468,-1.3468,-1.3468,-1.3468,-1.3468,-1.3468,-1.3468,-1.3468,-1.3468,-1.3468,-1.3468,-1.355,-1.3743,-1.387,-1.3761,-1.3737,-1.3676,0.0,0.0,0.0,0.0,0.0,0.0,0.0,0.0,0.0,-0.0555,-0.1462,-0.267,-0.3225,-0.3274,-0.4479,-0.4985,-0.5083,-0.5974,-0.6363,-0.6317,-0.63,-0.6237,-0.6083,-0.6056,-0.604,-0.6032,-0.5801,-0.5687,-0.5681,-0.5537,-0.5483,-0.5489,-0.5635,-0.5588,-0.5494,-0.5588,-0.5591,-0.5486,-0.5423,-0.5413,-0.5413,-0.5582,-0.5669,-0.5666,-0.5913,-0.6037,-0.6037,-0.6079,-0.6117,-0.6117,-0.6079,-0.5982,-0.5904,-0.5695,-0.5523,0.0,-0.5111,0.0,0.0,0.0,0.0,0.0,0.0,0.0,0.0,-0.5148,-0.5322,-0.5491,-0.5618,-0.5688,-0.5688,-0.5688,-0.5688,-0.5688,-0.5688,-0.5729,-0.5866,-0.6618,-0.6857,-0.6142,-0.6913,-0.7584,-0.775,-0.7955,-0.8975,-1.0536,-1.0881,-1.1272,-1.2267,-1.2742,-1.3006,-1.3023,-1.3257,-1.3436,-1.3377,-1.3378,-1.3381,-1.3387,-1.3369,-1.3411,-1.3381,-1.3387,-1.3393,-1.3393,-1.3375,-1.3387,-1.3405,-1.3393,-1.3399,-1.3375,-1.3393,-1.3423,-1.3414,-1.3465,-1.3453,0.0,0.0,0.0,0.0,0.0,0.0,0.0,0.0,0.0,-0.0101,-0.0454,-0.2368,-0.3225,-0.3374,-0.5231,-0.6087,-0.6082,-0.6243,-0.6336,-0.6265,-0.6168,-0.6155,-0.6075,-0.589,-0.5756,-0.5739,-0.5556,-0.5439,-0.5436,-0.5415,-0.5404,-0.5404,-0.5428,-0.5426,-0.5404,0.0,0.0,0.0,-0.5382,-0.5413,-0.5413,-0.5413,-0.5455,-0.5455,-0.5663,0.0,-0.5791,-0.5996,-0.6117,-0.6117,-0.5913,0.0,0.0,0.0,0.0,0.0,0.0,0.0,0.0,0.0,0.0,0.0,-0.482,-0.4849,-0.5012,-0.5259,-0.5459,-0.5505,-0.5618,-0.5688,-0.5688,-0.5688,-0.5688,-0.5688,-0.5688,-0.5699,-0.5723,-0.6023,-0.6096,-0.598,-0.6855,-0.754,-0.7611,-0.8933,-0.9792,-0.9652,-1.017,-1.0673,-1.0996,-1.191,-1.249,-1.2567,-1.279,-1.2909,-1.2939,-1.2893,-1.2867,-1.2856,-1.2856,-1.2868,-1.2874,-1.2862,-1.2856,-1.2856,-1.2862,-1.2862,-1.2868,-1.2856,-1.288,-1.2862,-1.2868,-1.2922,-1.3101,-1.3194,-1.3127,0.0,0.0,0.0,0.0,0.0,0.0,0.0,0.0,0.0,0.0,0.0,-0.116,-0.1613,-0.1713,-0.3786,-0.4712,-0.4757,-0.5741,-0.6146,-0.6086,-0.6024,-0.5934,-0.5817,-0.5656,-0.561,-0.5545,-0.5366,-0.532,-0.532,-0.532,-0.5279,-0.532,-0.538,-0.538,-0.5279,-0.5224,-0.5222,-0.5279,-0.5224,-0.5195,-0.5195,-0.5195,-0.5195,-0.5195,0.0,0.0,0.0,0.0,0.0,0.0,0.0,0.0,0.0,0.0,0.0,-0.5021,-0.5035,-0.4971,-0.4876,-0.4833,-0.486,-0.4882,-0.4977,-0.5034,-0.5097,-0.5268,-0.5396,-0.5413,-0.5518,-0.5578,-0.5594,-0.5597,-0.5626,-0.568,-0.5688,-0.5688,-0.5738,-0.6185,-0.631,-0.6003,-0.6684,-0.7338,-0.7412,-0.8203,-0.9213,-0.9659,-0.9681,-0.9848,-1.0414,-1.1039,-1.1634,-1.2113,-1.2297,-1.2412,-1.24,-1.24,-1.2412,-1.2528,-1.2475,-1.2397,-1.2512,-1.2403,-1.2318,-1.2318,-1.2318,-1.2355,-1.2487,-1.2512,-1.2554,-1.2668,-1.2705,-1.2741,-1.2892,-1.2916,-1.288,0.0,0.0,0.0,0.0,0.0,0.0,0.0,0.0,0.0,0.0,0.0,-0.0202,-0.0302,-0.0401,-0.222,-0.3029,-0.316,-0.4959,-0.5764,-0.567,-0.5788,-0.5726,-0.554,-0.5494,-0.5469,-0.5407,-0.5224,-0.5167,-0.5186,-0.5167,-0.5167,-0.5192,-0.5309,-0.5298,-0.5154,-0.5064,-0.5053,-0.5118,-0.5053,-0.5018,-0.5018,-0.5018,-0.5018,-0.5018,-0.5018,-0.5018,-0.5018,-0.5018,-0.5018,-0.5018,-0.5018,-0.5018,-0.5018,-0.5018,-0.5018,-0.5018,-0.5018,-0.5018,-0.5018,-0.5018,-0.5018,-0.5018,-0.5105,-0.5165,-0.5184,-0.5205,-0.5301,-0.5402,-0.5413,-0.5454,-0.5467,-0.5475,-0.5516,-0.5615,-0.5642,-0.5656,-0.5703,-0.634,-0.6488,-0.5952,-0.6536,-0.7139,-0.725,-0.7497,-0.8038,-0.9379,-0.9153,-0.9024,-0.9943,-1.0229,-1.0534,-1.1334,-1.1565,-1.1693,-1.1852,-1.1921,-1.2037,-1.2145,-1.1998,-1.1964,-1.2093,-1.199,-1.1858,-1.1928,-1.1886,-1.2023,-1.2198,-1.2246,-1.2318,-1.2524,-1.2566,-1.2566,-1.2566,-1.2566,-1.2566,0.0,0.0,0.0,0.0,0.0,0.0,0.0,0.0,0.0,0.0,0.0,-0.0958,-0.1399,-0.1427,-0.2648,-0.3153,-0.3242,-0.4253,-0.4717,0.0,-0.5393,-0.5694,-0.5653,-0.5494,-0.5385,-0.5394,-0.5148,-0.5091,-0.5167,-0.5089,-0.5089,-0.5205,-0.5108,-0.5059,-0.5042,-0.4987,-0.4974,-0.4849,-0.4933,-0.5018,-0.5018,-0.5018,-0.5018,-0.5018,-0.5015,-0.5018,-0.5018,-0.5018,-0.5018,-0.5018,-0.5018,-0.5018,-0.5018,-0.5012,-0.5018,-0.5018,-0.5018,-0.5018,-0.5018,-0.5018,-0.5018,-0.5018,-0.5034,-0.508,-0.5178,-0.5284,-0.5394,-0.541,-0.5399,-0.5416,-0.5393,-0.5435,-0.5404,-0.5431,-0.5515,-0.5534,-0.5534,-0.5753,-0.5902,-0.5725,-0.6523,-0.7054,-0.7177,-0.7753,-0.803,-0.7867,-0.8215,-0.88,-0.9332,-0.9301,-0.9266,-0.9993,-1.04,-1.078,-1.1273,-1.1617,-1.1603,-1.1456,-1.1427,-1.1445,-1.1697,-1.1632,-1.1677,-1.1868,-1.1826,-1.1908,-1.1928,-1.194,-1.2017,-1.2077,-1.2101,-1.2042,-1.2048,-1.2036,-1.2079,0.0,0.0,0.0,0.0,0.0,0.0,0.0,0.0,0.0,0.0,0.0,-0.0497,-0.0738,-0.082,-0.1764,-0.2218,-0.2244,-0.3206,-0.3631,-0.3673,-0.4002,-0.4114,-0.4105,-0.4444,-0.4554,-0.4525,-0.4873,-0.5042,-0.5083,-0.504,-0.5042,-0.5083,-0.4977,-0.492,-0.4876,-0.4852,-0.4792,-0.4777,-0.4855,-0.4887,-0.4862,-0.4857,-0.4822,-0.486,-0.4882,-0.4879,-0.4879,-0.4944,-0.4985,-0.4882,-0.4879,-0.4849,-0.4825,-0.4819,-0.4857,-0.4822,-0.4882,-0.4879,-0.4879,-0.498,-0.5018,-0.5018,-0.5018,-0.5037,-0.5091,-0.5146,-0.5178,-0.5178,-0.5178,-0.5205,-0.5301,-0.5312,-0.5336,-0.5405,-0.5423,-0.545,-0.5464,-0.5516,-0.5588,-0.5638,-0.6042,-0.6526,-0.7051,-0.7492,-0.7885,-0.7793,-0.7905,-0.7754,-0.7609,-0.713,-0.7678,-0.9889,-1.0587,-1.0643,-1.0762,-1.0928,-1.0982,-1.0868,-1.0824,-1.0965,-1.1227,-1.1242,-1.1244,-1.1417,-1.1486,-1.1552,-1.1627,-1.167,-1.1763,-1.1908,-1.1886,-1.1886,-1.1754,-1.1545,-1.1494,0.0293,0.0098,0.0049,0.0,0.0,0.0,0.0,0.0,0.0,0.0,0.0,0.0,0.0,0.0,-0.0787,-0.1101,-0.1235,-0.2111,-0.2543,-0.2597,-0.2764,-0.2841,-0.2793,-0.335,-0.3592,-0.3594,-0.4162,-0.4428,-0.4426,-0.4426,-0.453,-0.4694,-0.4742,-0.4792,-0.4755,-0.4736,-0.4676,-0.4657,-0.4705,-0.4722,-0.4692,-0.469,-0.469,-0.4698,-0.4743,-0.4792,-0.4763,-0.4885,-0.489,-0.48,-0.4792,-0.4749,-0.4698,-0.469,-0.469,-0.4698,-0.4741,-0.4809,-0.4801,-0.4911,-0.5018,-0.5018,-0.5018,-0.5018,-0.5018,-0.5018,-0.5018,-0.5018,-0.5029,-0.5059,-0.5132,-0.5148,-0.5186,-0.532,-0.5355,-0.5328,-0.5339,-0.5392,-0.5467,-0.5478,-0.5575,-0.5951,-0.6518,-0.6708,-0.7007,-0.7636,-0.7392,-0.6658,-0.615,-0.5992,-0.7282,-0.916,-1.0244,-1.0165,-1.0091,-1.0247,-1.0313,-1.0306,-1.0265,-1.0421,-1.0711,-1.0697,-1.068,-1.0925,-1.0992,-1.1037,-1.1242,-1.1245,-1.1316,-1.1453,-1.1476,-1.1467,-1.1325,-1.1058,-1.0951,0.1158,0.0392,0.0147,0.0,0.0,0.0,0.0,0.0,0.0,0.0,0.0,0.0,0.0,0.0,0.0,0.0,0.0,-0.11,-0.154,-0.1651,-0.246,-0.2909,-0.2792,-0.2821,-0.2801,-0.2776,-0.2806,-0.2895,-0.2895,-0.2813,-0.3096,-0.3749,-0.436,-0.4667,-0.4667,-0.4654,-0.4632,-0.4525,-0.4531,-0.4586,-0.4684,-0.469,-0.469,-0.469,-0.4698,-0.4706,-0.4709,-0.4717,-0.4717,-0.4706,-0.4709,-0.4698,-0.4684,-0.4687,-0.4687,-0.4684,-0.4695,-0.475,-0.4828,-0.4909,-0.4973,-0.5018,-0.5018,-0.5018,-0.5018,-0.5018,-0.5018,-0.5018,-0.5018,-0.5023,-0.4992,-0.504,-0.5053,-0.508,-0.5151,-0.5243,-0.5219,-0.5311,-0.5385,-0.5427,-0.5437,-0.5564,-0.5703,-0.5712,-0.5945,-0.6729,-0.6644,-0.6698,-0.7211,-0.7278,-0.7306,-0.7932,-0.7973,-0.8446,-0.9194,-0.9647,-0.9579,-0.961,-0.9656,-0.9845,-1.014,-1.0299,-1.0335,-1.0477,-1.0525,-1.0579,-1.0594,-1.0585,-1.0622,-1.0767,-1.0746,-1.0636,-1.0587,-1.0555,-1.0646,0.2626,0.2223,0.139,0.0634,0.0,0.0,0.0,0.0,0.0,0.0,0.0,0.0,0.0,0.0,0.0,0.0,0.0,-0.0391,-0.0564,-0.0606,-0.0997,-0.12,-0.121,-0.1681,-0.1853,-0.1947,-0.2319,-0.2503,-0.2497,-0.2506,-0.2665,-0.2933,-0.3192,-0.3268,-0.3264,-0.3217,-0.3138,-0.3105,-0.351,-0.3769,-0.3875,-0.4232,-0.4479,-0.4452,-0.4545,-0.458,-0.4588,-0.4649,-0.4654,-0.4588,-0.458,-0.4547,-0.4482,-0.4444,-0.4447,-0.4484,-0.4545,-0.4629,-0.4782,-0.4844,-0.4901,-0.5012,-0.5018,-0.5018,-0.5018,-0.5018,-0.5018,-0.5018,-0.5018,-0.5018,-0.5018,-0.5018,-0.5018,-0.5023,-0.5061,-0.5089,-0.5089,-0.5189,-0.5279,-0.5184,-0.5262,-0.5309,-0.5246,-0.5192,-0.5331,-0.5676,-0.5726,-0.5954,-0.6398,-0.6288,-0.6352,-0.6587,-0.6525,-0.6882,-0.7825,-0.8202,-0.8413,-0.8639,-0.8728,-0.8906,-0.9669,-0.9789,-0.9814,-1.0026,-1.0094,-1.0162,-1.0315,-1.017,-1.0107,-1.0222,-1.0191,-1.0154,-1.0154,-1.0155,-1.0219,0.3941,0.3556,0.2686,0.1631,0.0584,0.0535,0.0337,0.0094,0.0046,0.0,0.0,0.0,0.0,0.0,0.0,0.0,0.0,0.0,0.0,0.0,0.0,0.0,0.0,-0.0605,-0.0957,-0.1022,-0.1528,-0.1795,-0.1857,-0.2042,-0.2121,-0.2133,-0.2192,-0.2248,-0.2243,-0.2166,-0.2114,-0.2181,-0.2648,-0.2915,-0.2986,-0.3422,-0.3894,-0.4275,-0.4413,-0.446,-0.4425,-0.4545,-0.4553,-0.4465,-0.4423,-0.4387,-0.4308,-0.4303,-0.4303,-0.4311,-0.444,-0.4594,-0.477,-0.4777,-0.4849,-0.4999,-0.5018,-0.5018,-0.5018,-0.5018,-0.5018,-0.5018,-0.5018,-0.5018,-0.5018,-0.5018,-0.5018,-0.5018,-0.5018,-0.5018,-0.5026,-0.5075,-0.5056,-0.4988,-0.5045,-0.5045,-0.4947,-0.492,-0.4977,-0.5068,-0.4999,-0.498,-0.5089,-0.5079,-0.5126,-0.556,-0.5591,-0.5938,-0.6686,-0.7169,-0.741,-0.7628,-0.7818,-0.8076,-0.8981,-0.8954,-0.9077,-0.9193,-0.9469,-0.9714,-0.9835,-0.9764,-0.9805,-0.9929,-0.9891,-0.9766,-0.9849,-0.9797,-0.9862,0.4795,0.3922,0.3623,0.2897,0.2002,0.1811,0.1225,0.0462,0.0181,0.0,0.0,0.0,0.0,0.0,0.0,0.0,0.0,0.0,0.0,0.0,0.0,0.0,0.0,-0.004,0.0,0.0,0.0,0.0,0.0,-0.0851,-0.1153,-0.1196,-0.171,-0.2052,-0.1987,-0.195,-0.2079,-0.198,-0.208,-0.2147,-0.2181,-0.2214,-0.2919,-0.403,-0.4275,-0.4213,-0.428,-0.4283,-0.4317,-0.4311,-0.4314,-0.4308,-0.4303,-0.4267,-0.4267,-0.4311,-0.4404,-0.452,-0.4651,-0.4725,-0.4798,-0.4944,-0.4929,-0.4976,-0.4924,-0.4932,-0.494,-0.4979,-0.4968,-0.4965,-0.4965,-0.4971,-0.4971,-0.5004,-0.501,-0.5007,-0.4963,-0.4906,-0.482,-0.4793,-0.479,-0.4795,-0.4725,-0.4703,-0.4714,-0.4734,-0.4717,-0.4797,-0.4963,-0.4963,-0.5024,-0.5068,-0.5162,-0.5413,-0.6491,-0.6548,-0.6743,-0.7029,-0.7053,-0.7101,-0.7457,-0.7798,-0.8082,-0.8418,-0.8897,-0.9181,-0.9324,-0.9452,-0.9612,-0.9654,-0.9431,-0.9373,-0.948,-0.9585,-0.961,0.5832,0.4883,0.478,0.4098,0.3075,0.2982,0.238,0.1509,0.1366,0.0999,0.0468,0.0374,0.0369,0.0407,0.04,0.024,0.0,0.0,0.0,0.0,0.0,0.0,0.0,0.0,0.0,0.0,0.0,0.0,0.0,-0.0295,-0.0396,-0.0421,-0.0614,-0.074,-0.074,-0.0774,-0.0774,-0.0807,-0.1176,-0.1478,-0.1478,-0.1878,-0.2348,-0.2718,-0.2852,-0.3119,-0.3589,-0.3589,-0.3792,-0.4267,-0.42,-0.4097,-0.4097,-0.403,-0.3995,-0.3966,-0.403,-0.4101,-0.4177,-0.429,-0.437,-0.4417,-0.4548,-0.4585,-0.455,-0.458,-0.4621,-0.4608,-0.4663,-0.467,-0.4724,-0.4851,-0.4947,-0.4876,-0.486,-0.4871,-0.4835,-0.4777,-0.4728,-0.4613,-0.4545,-0.4496,-0.4566,-0.4509,-0.4458,-0.4555,-0.4572,-0.4651,-0.479,-0.486,-0.489,-0.4996,-0.5012,-0.5112,-0.5321,-0.5507,-0.5608,-0.6021,-0.6264,-0.6456,-0.6764,-0.6863,-0.7085,-0.7245,-0.7859,-0.8577,-0.8645,-0.904,-0.9227,-0.9174,-0.8969,-0.8937,-0.9133,-0.9187,-0.9254,0.6659,0.6012,0.5927,0.5267,0.4244,0.4105,0.3497,0.2616,0.2467,0.1895,0.112,0.1016,0.0885,0.0642,0.0593,0.0471,0.0197,0.0,0.0,0.0197,0.02,0.0199,0.0197,0.0196,0.0196,0.0,0.0195,0.0153,0.0111,0.0145,0.0178,0.0173,0.017,0.0169,0.0169,0.0135,0.0101,0.0034,-0.037,-0.0639,-0.0639,-0.1008,-0.1243,-0.1142,-0.1209,-0.1735,-0.2647,-0.2701,-0.2885,-0.3377,-0.3324,-0.3374,-0.3544,-0.3473,-0.3558,-0.3758,-0.3828,-0.384,-0.3904,-0.3985,-0.4042,-0.4114,-0.4231,-0.4289,-0.4271,-0.4284,-0.4277,-0.4306,-0.4342,-0.4365,-0.4425,-0.4654,-0.483,-0.4766,-0.4773,-0.4743,-0.4701,-0.469,-0.4597,-0.4523,-0.439,-0.4374,-0.4431,-0.4399,-0.4374,-0.449,-0.4469,-0.4558,-0.4722,-0.4777,-0.4817,-0.4903,-0.4991,-0.4953,-0.502,-0.5061,-0.502,-0.5333,-0.5473,-0.5738,-0.5924,-0.5988,-0.6082,-0.6201,-0.6711,-0.7503,-0.8104,-0.8505,-0.8659,-0.8662,-0.8544,-0.8425,-0.8581,-0.8721,-0.8829,0.7098,0.7017,0.7098,0.6405,0.5486,0.5208,0.4489,0.3597,0.328,0.2767,0.2024,0.1943,0.1575,0.0904,0.0904,0.0707,0.0746,0.067,0.0591,0.055,0.0551,0.0551,0.055,0.055,0.0549,0.0547,0.0575,0.048,0.0318,0.0387,0.0451,0.0475,0.0439,0.0438,0.0472,0.0371,0.0371,0.0405,0.0236,0.027,0.0472,0.0303,0.0269,0.0336,0.0336,-0.0298,-0.1577,-0.1618,-0.1736,-0.1847,-0.1841,-0.2056,-0.2559,-0.2645,-0.2952,-0.3456,-0.3658,-0.3741,-0.3788,-0.3781,-0.3798,-0.3992,-0.4077,-0.4067,-0.4048,-0.4058,-0.4072,-0.4074,-0.4099,-0.4082,-0.413,-0.439,-0.4604,-0.4681,-0.4673,-0.4667,-0.466,-0.4575,-0.4506,-0.4487,-0.4371,-0.4355,-0.4446,-0.4371,-0.4352,-0.4471,-0.4506,-0.4564,-0.4714,-0.4765,-0.4779,-0.482,-0.489,-0.4871,-0.4803,-0.4772,-0.4712,-0.4717,-0.4722,-0.4843,-0.4984,-0.5087,-0.5197,-0.5389,-0.6089,-0.6878,-0.758,-0.7939,-0.8069,-0.8054,-0.7952,-0.7991,-0.8161,-0.8323,-0.8388,0.7095,0.7085,0.6991,0.6797,0.6435,0.6259,0.5598,0.4709,0.4587,0.4054,0.3326,0.3219,0.3052,0.2701,0.2195,0.1883,0.1884,0.1374,0.0904,0.0668,0.0629,0.0628,0.0628,0.0628,0.0623,0.0614,0.0608,0.0553,0.0459,0.049,0.0484,0.0474,0.0506,0.0472,0.0506,0.0438,0.0472,0.0472,0.0472,0.0472,0.0472,0.0506,0.0568,0.0689,0.0687,0.0484,0.0157,-0.0491,-0.1085,-0.1615,-0.1567,-0.1545,-0.1584,-0.1587,-0.1712,-0.1879,-0.1947,-0.2218,-0.2686,-0.2801,-0.3024,-0.3379,-0.3566,-0.3638,-0.3637,-0.3638,-0.367,-0.3713,-0.3819,-0.3869,-0.3821,-0.4022,-0.4252,-0.4473,-0.4506,-0.45,-0.4493,-0.4425,-0.4401,-0.4476,-0.4368,-0.436,-0.4417,-0.4371,-0.4346,-0.4471,-0.4498,-0.4564,-0.4705,-0.4708,-0.4754,-0.4819,-0.4809,-0.4757,-0.4664,-0.4621,-0.4561,-0.4509,-0.4435,-0.433,-0.4386,-0.4424,-0.449,-0.481,-0.5533,-0.6173,-0.6854,-0.7204,-0.7299,-0.7532,-0.7552,-0.7682,-0.7832,-0.7941,-0.798,0.7065,0.7011,0.6923,0.6858,0.6756,0.6651,0.6249,0.5652,0.5601,0.5114,0.4384,0.4222,0.4064,0.3752,0.321,0.2976,0.2937,0.2429,0.1882,0.1295,0.0942,0.086,0.0813,0.0844,0.0759,0.071,0.0739,0.072,0.0623,0.069,0.0718,0.0709,0.074,0.074,0.0707,0.064,0.064,0.0707,0.064,0.0674,0.0706,0.07,0.076,0.0885,0.0909,0.0933,0.0991,0.0396,-0.0164,-0.0598,-0.0592,-0.0595,-0.0697,-0.0716,-0.0798,-0.104,-0.1143,-0.1344,-0.1749,-0.1842,-0.1987,-0.2376,-0.2534,-0.26,-0.2603,-0.2777,-0.3013,-0.3081,-0.3442,-0.3612,-0.3603,-0.3779,-0.3998,-0.4143,-0.4211,-0.4215,-0.4214,-0.4172,-0.4154,-0.4206,-0.4201,-0.4269,-0.4346,-0.4342,-0.4333,-0.4427,-0.4443,-0.4468,-0.4591,-0.4599,-0.4651,-0.4694,-0.4731,-0.4654,-0.4545,-0.4436,-0.4371,-0.4319,-0.4265,-0.4205,-0.4186,-0.4157,-0.4171,-0.4471,-0.5037,-0.5371,-0.5994,-0.6255,-0.6411,-0.6734,-0.6944,-0.7011,-0.7084,-0.7454,-0.7565,0.7021,0.6903,0.6876,0.6756,0.6569,0.6521,0.6393,0.6281,0.6232,0.5796,0.516,0.5082,0.473,0.4105,0.3949,0.3871,0.3832,0.3638,0.3171,0.2469,0.1919,0.1513,0.1172,0.1113,0.1027,0.0943,0.0997,0.0972,0.0813,0.0947,0.1109,0.1042,0.1042,0.1076,0.1008,0.0876,0.0909,0.1009,0.0873,0.0904,0.1035,0.1012,0.1008,0.106,0.1008,0.1006,0.1058,0.0965,0.0936,0.087,0.0685,0.0452,0.0092,0.0032,-0.0229,-0.0737,-0.0941,-0.0941,-0.1008,-0.1045,-0.1146,-0.1279,-0.1349,-0.1109,-0.1386,-0.1866,-0.2189,-0.2265,-0.2777,-0.3162,-0.3209,-0.3356,-0.3499,-0.3689,-0.3841,-0.3924,-0.3816,-0.3828,-0.39,-0.3925,-0.3961,-0.4032,-0.4158,-0.4186,-0.4224,-0.4268,-0.4279,-0.4282,-0.432,-0.4391,-0.4445,-0.4477,-0.446,-0.4437,-0.4306,-0.4293,-0.4219,-0.4175,-0.4113,-0.4092,-0.4011,-0.3971,-0.3884,-0.4172,-0.4417,-0.4737,-0.5012,-0.5285,-0.5438,-0.5587,-0.5826,-0.6014,-0.6407,-0.6872,-0.7189,0.7075,0.7021,0.6854,0.6712,0.661,0.6457,0.634,0.63,0.63,0.6141,0.5944,0.5986,0.5786,0.5553,0.4927,0.4691,0.4574,0.4105,0.3752,0.3482,0.3287,0.2331,0.1408,0.1206,0.1153,0.1064,0.1088,0.107,0.1044,0.1076,0.1109,0.1109,0.1109,0.1108,0.1076,0.104,0.1043,0.1072,0.0988,0.098,0.1008,0.1017,0.1003,0.1008,0.1006,0.1018,0.1042,0.1045,0.1026,0.0981,0.0924,0.0867,0.0679,0.0699,0.0588,0.0468,0.0437,0.0235,-0.0202,-0.0302,-0.0504,-0.1041,-0.0941,-0.1109,-0.1109,-0.1276,-0.1382,-0.1437,-0.1683,-0.1789,-0.1752,-0.1899,-0.2197,-0.2701,-0.3258,-0.3698,-0.3655,-0.3727,-0.3806,-0.3823,-0.384,-0.3883,-0.389,-0.3926,-0.3953,-0.401,-0.4035,-0.405,-0.4099,-0.4094,-0.4163,-0.4084,-0.4062,-0.4081,-0.4071,-0.4102,-0.4089,-0.4006,-0.4003,-0.4043,-0.3943,-0.3871,-0.3788,-0.3826,-0.3961,-0.4209,-0.4255,-0.4396,-0.4467,-0.468,-0.5117,-0.5555,-0.5987,-0.6422,-0.6779,0.7061,0.6991,0.68,0.6664,0.658,0.6395,0.63,0.63,0.63,0.63,0.63,0.63,0.63,0.6219,0.5789,0.5553,0.5473,0.5082,0.4691,0.4206,0.3827,0.2931,0.1952,0.1658,0.1405,0.1121,0.1108,0.1093,0.1111,0.1109,0.1069,0.1062,0.1104,0.1097,0.107,0.1052,0.1051,0.1038,0.1022,0.1015,0.1012,0.0998,0.1,0.1003,0.1008,0.1022,0.1046,0.1008,0.0983,0.0979,0.0934,0.0975,0.0973,0.0991,0.1046,0.1073,0.1109,0.0873,0.0571,0.047,0.0269,-0.0067,-0.0168,-0.0168,-0.0235,-0.0437,-0.064,-0.0687,-0.0987,-0.114,-0.1144,-0.1197,-0.1434,-0.1804,-0.2338,-0.2904,-0.3263,-0.346,-0.3525,-0.3558,-0.3627,-0.3663,-0.3661,-0.3727,-0.3821,-0.3859,-0.3898,-0.3929,-0.3961,-0.3909,-0.3851,-0.3803,-0.3825,-0.3862,-0.3914,-0.3945,-0.39,-0.3858,-0.3755,-0.3823,-0.3845,-0.373,-0.3665,-0.3607,-0.3593,-0.3613,-0.3749,-0.3833,-0.3971,-0.4242,-0.468,-0.5007,-0.5359,-0.5741,-0.6133,0.7024,0.6939,0.679,0.6634,0.6542,0.6388,0.632,0.63,0.63,0.63,0.63,0.63,0.63,0.63,0.618,0.6257,0.6257,0.606,0.575,0.5054,0.4363,0.3528,0.2888,0.2409,0.2022,0.1588,0.1357,0.1348,0.1344,0.1276,0.113,0.1053,0.1064,0.1075,0.102,0.0993,0.1016,0.1001,0.1004,0.0999,0.0996,0.1022,0.1001,0.0993,0.1037,0.1044,0.1056,0.1015,0.1016,0.0927,0.0976,0.0999,0.0995,0.1001,0.1048,0.1069,0.1109,0.1076,0.1076,0.1008,0.1042,0.0907,0.0941,0.1109,0.084,0.0403,0.0102,0.0069,-0.0594,-0.0708,-0.0822,-0.0959,-0.1009,-0.1054,-0.1112,-0.1748,-0.2587,-0.2989,-0.3025,-0.3092,-0.3261,-0.3328,-0.3496,-0.3594,-0.3727,-0.3587,-0.3626,-0.3641,-0.366,-0.3644,-0.3628,-0.365,-0.3672,-0.3699,-0.3761,-0.3794,-0.3737,-0.3673,-0.3497,-0.3513,-0.3627,-0.3585,-0.3509,-0.3454,-0.3418,-0.3416,-0.3471,-0.3555,-0.361,-0.3691,-0.399,-0.4236,-0.4512,-0.4889,-0.5266,0.7082,0.7038,0.6939,0.6793,0.6641,0.6535,0.6399,0.63,0.63,0.63,0.63,0.63,0.63,0.63,0.63,0.63,0.63,0.63,0.6141,0.6021,0.5574,0.4915,0.4162,0.3445,0.2898,0.2671,0.2727,0.2414,0.2013,0.1846,0.1607,0.1198,0.1181,0.1004,0.1058,0.1024,0.1018,0.0997,0.1009,0.1007,0.1021,0.102,0.1003,0.1,0.1052,0.1055,0.1049,0.1059,0.1049,0.0989,0.0971,0.1009,0.0998,0.1004,0.1049,0.1068,0.1109,0.1109,0.1109,0.1109,0.1109,0.1109,0.1109,0.1109,0.1109,0.0974,0.0842,0.0817,0.0691,0.0455,0.0352,0.0,-0.0207,-0.0304,-0.0672,-0.1076,-0.1479,-0.1578,-0.1914,-0.2283,-0.245,-0.2686,-0.3125,-0.3159,-0.3224,-0.3293,-0.3326,-0.3326,-0.336,-0.3393,-0.3426,-0.346,-0.346,-0.3491,-0.356,-0.3591,-0.3555,-0.3507,-0.3384,-0.3259,-0.3378,-0.3399,-0.3323,-0.327,-0.319,-0.3246,-0.3302,-0.3274,-0.333,-0.3327,-0.3383,-0.3685,-0.3984,-0.4229,-0.4442,0.7095,0.7071,0.6912,0.6776,0.6675,0.6508,0.6371,0.6306,0.63,0.63,0.63,0.63,0.63,0.63,0.63,0.63,0.63,0.63,0.63,0.619,0.5919,0.5587,0.5235,0.4523,0.3984,0.3384,0.3184,0.2915,0.2681,0.2577,0.2462,0.2045,0.1706,0.1586,0.1401,0.1218,0.1016,0.0996,0.1003,0.1003,0.1021,0.1019,0.1003,0.0996,0.1048,0.1052,0.1057,0.11,0.1067,0.1053,0.1038,0.1067,0.1049,0.1053,0.1061,0.1105,0.1109,0.1109,0.1109,0.1109,0.1109,0.1109,0.1109,0.1109,0.1109,0.1109,0.1109,0.1112,0.1089,0.1065,0.1065,0.0858,0.0544,0.0473,0.0168,-0.0067,-0.0168,-0.0638,-0.1209,-0.1612,-0.1713,-0.1847,-0.2083,-0.2385,-0.2552,-0.2586,-0.2684,-0.2718,-0.3259,-0.3293,-0.3259,-0.3293,-0.3259,-0.3259,-0.3328,-0.3357,-0.338,-0.3354,-0.3287,-0.3206,-0.3223,-0.3194,-0.3134,-0.3091,-0.3065,-0.3132,-0.316,-0.3105,-0.3077,-0.316,-0.3241,-0.335,-0.3477,-0.368,-0.3843,0.7346,0.7092,0.6988,0.6854,0.6634,0.643,0.6354,0.63,0.63,0.63,0.63,0.63,0.63,0.63,0.63,0.63,0.63,0.6296,0.6293,0.6197,0.5932,0.5757,0.5553,0.5225,0.4722,0.3618,0.3685,0.3582,0.3416,0.3345,0.3222,0.3063,0.2596,0.2305,0.2114,0.1588,0.1241,0.1272,0.1101,0.1166,0.1253,0.1285,0.1309,0.1523,0.134,0.132,0.1301,0.1208,0.1108,0.1143,0.1143,0.1143,0.1176,0.1109,0.1109,0.1109,0.1109,0.1109,0.1109,0.1109,0.1109,0.1109,0.1109,0.1109,0.1109,0.1109,0.1109,0.1109,0.1113,0.1113,0.111,0.1012,0.1045,0.1041,0.1076,0.1109,0.0873,-0.0034,-0.0538,-0.0907,-0.0974,-0.1075,-0.1243,-0.1478,-0.1679,-0.1846,-0.198,-0.2214,-0.2686,-0.2924,-0.2788,-0.2889,-0.2822,-0.3092,-0.3228,-0.3226,-0.3218,-0.3211,-0.3201,-0.3183,-0.3151,-0.3113,-0.3073,-0.3014,-0.2997,-0.3037,-0.3026,-0.2968,-0.2968,-0.3049,-0.3049,-0.3074,-0.3114,-0.317,-0.3307,0.845,0.7013,0.7859,0.7574,0.6634,0.6627,0.6464,0.632,0.63,0.63,0.63,0.63,0.63,0.63,0.63,0.63,0.63,0.6282,0.6221,0.6071,0.5874,0.5745,0.562,0.5498,0.5196,0.5123,0.4924,0.4622,0.422,0.4084,0.39,0.3346,0.3109,0.3021,0.2825,0.2311,0.1917,0.1859,0.1546,0.1529,0.1837,0.1945,0.2159,0.2476,0.2176,0.1928,0.1773,0.1411,0.1143,0.1244,0.1244,0.1378,0.1479,0.1311,0.121,0.1143,0.1143,0.1176,0.1143,0.1143,0.1109,0.1109,0.1109,0.1111,0.1111,0.1109,0.1109,0.1109,0.1109,0.1109,0.1109,0.1109,0.1109,0.1109,0.1109,0.1109,0.1008,0.0739,0.0302,-0.0101,-0.0202,-0.0302,-0.047,-0.0672,-0.0906,-0.1108,-0.1242,-0.141,-0.178,-0.1914,-0.1847,-0.2048,-0.2348,-0.272,-0.3125,-0.3125,-0.3121,-0.3088,-0.3109,-0.3181,-0.316,-0.3095,-0.3063,-0.2975,-0.2895,-0.2824,-0.2813,-0.2805,-0.283,-0.2856,-0.28,-0.2772,-0.2863,-0.2963,-0.3025,0.9347,0.8445,0.8351,0.7909,0.7278,0.6696,0.6436,0.6313,0.63,0.63,0.63,0.63,0.63,0.63,0.63,0.63,0.6279,0.6166,0.6101,0.5989,0.5803,0.5667,0.5603,0.5527,0.5442,0.5462,0.5495,0.5392,0.4927,0.4858,0.4652,0.4375,0.3992,0.3773,0.361,0.3056,0.2738,0.2598,0.2377,0.2301,0.2659,0.2704,0.2952,0.2985,0.296,0.2644,0.2312,0.2546,0.228,0.2181,0.2347,0.2382,0.2182,0.2016,0.178,0.1512,0.1378,0.1344,0.1344,0.1379,0.1387,0.1404,0.129,0.1221,0.1226,0.119,0.111,0.1109,0.1109,0.1109,0.1109,0.1109,0.1109,0.1109,0.1109,0.1109,0.1109,0.1109,0.084,0.0571,0.0504,0.0403,0.0336,0.0134,-0.0134,-0.0336,-0.0504,-0.0706,-0.0907,-0.0974,-0.1007,-0.1376,-0.1678,-0.1981,-0.2418,-0.2586,-0.2654,-0.2721,-0.2818,-0.2893,-0.2969,-0.2839,-0.292,-0.2984,-0.2865,-0.2644,-0.2703,-0.2747,-0.2719,-0.2691,-0.2719,-0.2723,-0.2715,-0.2762,-0.2848,1.0177,0.9724,0.8944,0.8404,0.7858,0.7064,0.6521,0.6342,0.63,0.63,0.63,0.63,0.63,0.63,0.6289,0.6269,0.6214,0.6051,0.6003,0.5911,0.5779,0.5655,0.5644,0.5635,0.562,0.5591,0.5727,0.576,0.5425,0.5428,0.5491,0.5253,0.4818,0.4619,0.4508,0.3934,0.3616,0.3482,0.3313,0.3313,0.3493,0.3673,0.3754,0.3687,0.3722,0.3446,0.3174,0.3247,0.328,0.3182,0.3316,0.3482,0.3119,0.3021,0.2753,0.2217,0.1849,0.1614,0.158,0.158,0.156,0.158,0.1461,0.1399,0.1405,0.1324,0.1244,0.121,0.1143,0.1143,0.1143,0.1143,0.1109,0.1109,0.1109,0.1109,0.1109,0.1109,0.1109,0.1008,0.1109,0.1008,0.0806,0.0739,0.047,0.0403,0.0235,0.0134,-0.0067,-0.0235,-0.0369,-0.0739,-0.1041,-0.1209,-0.1511,-0.1847,-0.1914,-0.1981,-0.2116,-0.2241,-0.2394,-0.2509,-0.2523,-0.2412,-0.2579,-0.2394,-0.2533,-0.2663,-0.2691,-0.2691,-0.2691,-0.2697,-0.2709,-0.273,-0.2808,1.1211,0.9456,1.0171,0.9374,0.7831,0.7764,0.7219,0.6458,0.6412,0.63,0.6451,0.6335,0.637,0.6321,0.6286,0.6143,0.5966,0.5939,0.5943,0.5839,0.5804,0.5804,0.5844,0.5844,0.5822,0.5789,0.5892,0.5789,0.5686,0.5756,0.5793,0.5723,0.5657,0.5653,0.5422,0.4851,0.4649,0.4517,0.4013,0.4013,0.458,0.5127,0.5347,0.5278,0.4946,0.4521,0.4276,0.4146,0.3913,0.3949,0.3949,0.4048,0.4051,0.412,0.4087,0.352,0.2684,0.1614,0.1781,0.1915,0.1925,0.1976,0.1755,0.1618,0.1522,0.1524,0.1479,0.1547,0.1378,0.1277,0.1277,0.1176,0.1109,0.1143,0.1176,0.1143,0.1143,0.1244,0.121,0.121,0.1244,0.121,0.1076,0.1076,0.1042,0.1008,0.0941,0.0806,0.0706,0.047,0.0336,-0.0034,-0.0269,-0.0437,-0.0638,-0.094,-0.1176,-0.1243,-0.1478,-0.1647,-0.1773,-0.1822,-0.1518,-0.1508,-0.1757,-0.2029,-0.2087,-0.2268,-0.2549,-0.2691,-0.2691,-0.2691,-0.2693,-0.2728,-0.2788,1.227,1.1356,1.0999,1.0332,0.9416,0.8957,0.8467,0.7987,0.7514,0.7326,0.7288,0.7176,0.7049,0.6825,0.6394,0.601,0.5873,0.5904,0.586,0.5855,0.5841,0.5859,0.5911,0.5987,0.602,0.5991,0.6053,0.6115,0.5984,0.5888,0.5892,0.5892,0.5892,0.5855,0.5925,0.5587,0.5455,0.5319,0.515,0.5117,0.5418,0.5723,0.5892,0.5892,0.5683,0.5382,0.5084,0.5279,0.5011,0.5014,0.508,0.5183,0.5017,0.4885,0.4782,0.4223,0.3654,0.3184,0.3151,0.3117,0.3038,0.2961,0.268,0.2186,0.1782,0.1648,0.1648,0.158,0.1513,0.1512,0.1512,0.1412,0.1412,0.1378,0.1311,0.1344,0.1344,0.1378,0.1412,0.1412,0.1378,0.1344,0.1277,0.121,0.1176,0.1143,0.1109,0.1041,0.0974,0.0907,0.0773,0.0672,0.0504,0.037,0.0168,-0.0067,-0.0403,-0.0571,-0.1041,-0.1176,-0.1176,-0.1095,-0.0746,-0.0696,-0.0988,-0.1278,-0.1502,-0.2015,-0.2437,-0.2579,-0.2691,-0.2613,-0.2563,-0.2649,-0.2711,1.302,1.2941,1.1669,1.1018,1.0731,0.997,0.9485,0.9188,0.8651,0.8385,0.8347,0.8223,0.7952,0.7487,0.6873,0.6452,0.6133,0.596,0.5902,0.5902,0.5963,0.6006,0.609,0.6185,0.6185,0.602,0.6255,0.6284,0.6218,0.6119,0.6053,0.6024,0.6053,0.6057,0.6024,0.5987,0.5954,0.5954,0.5921,0.5921,0.5991,0.6024,0.6024,0.6086,0.6086,0.598,0.562,0.5921,0.5984,0.5848,0.5984,0.5984,0.5716,0.5617,0.5448,0.5084,0.4785,0.4785,0.4586,0.4428,0.4406,0.4123,0.3854,0.3088,0.2618,0.2283,0.2283,0.2484,0.2382,0.2249,0.1982,0.1949,0.1747,0.168,0.1547,0.158,0.158,0.158,0.1547,0.1512,0.1479,0.1513,0.1445,0.1344,0.1277,0.1244,0.1244,0.121,0.121,0.1176,0.1176,0.1076,0.0941,0.0806,0.0773,0.0571,0.0336,0.0134,-0.0336,-0.0437,-0.0269,-0.0133,0.0131,0.0032,-0.0217,-0.0386,-0.0568,-0.1465,-0.2296,-0.2128,-0.2074,-0.2315,-0.2407,-0.2488,-0.2516,1.318,1.3107,1.229,1.1403,1.0643,1.0645,1.019,0.9599,0.9334,0.9263,0.9221,0.9163,0.8842,0.8447,0.7866,0.7305,0.6842,0.6313,0.6233,0.6219,0.6189,0.6218,0.6288,0.6321,0.6354,0.6321,0.6387,0.6387,0.6387,0.6321,0.6321,0.6354,0.6288,0.6354,0.6321,0.6288,0.6288,0.6288,0.6288,0.6321,0.6321,0.6321,0.6321,0.6321,0.6354,0.6354,0.6284,0.6354,0.6354,0.6181,0.6317,0.6387,0.6185,0.6185,0.6017,0.5951,0.5885,0.5888,0.5752,0.512,0.4459,0.4331,0.4228,0.4054,0.3651,0.3951,0.4054,0.3787,0.3482,0.3318,0.3021,0.272,0.2484,0.2115,0.1982,0.1849,0.1816,0.1715,0.1681,0.1614,0.1648,0.1715,0.1748,0.1648,0.1479,0.1445,0.1412,0.1412,0.1412,0.1412,0.1412,0.1378,0.121,0.1176,0.121,0.1076,0.0873,0.084,0.0638,0.0706,0.0907,0.103,0.0923,0.0929,0.0715,0.0565,0.0288,-0.0547,-0.1146,-0.1295,-0.1492,-0.1954,-0.211,-0.2108,-0.208,1.3273,1.336,1.2518,1.1966,1.162,1.1694,1.1508,1.1099,1.0651,1.0319,1.0207,0.9734,0.9569,0.9362,0.8679,0.8135,0.775,0.7096,0.6895,0.6663,0.6572,0.6387,0.642,0.6453,0.642,0.6453,0.642,0.642,0.6387,0.6486,0.642,0.642,0.642,0.642,0.642,0.642,0.642,0.642,0.642,0.642,0.642,0.642,0.642,0.642,0.642,0.642,0.6387,0.6387,0.642,0.642,0.642,0.642,0.642,0.642,0.642,0.642,0.642,0.642,0.642,0.5818,0.5451,0.5014,0.4948,0.4815,0.4519,0.4353,0.432,0.4251,0.4317,0.412,0.3887,0.3687,0.3451,0.285,0.2482,0.2351,0.2151,0.2051,0.1884,0.1884,0.1918,0.1985,0.2018,0.1985,0.1816,0.1648,0.1614,0.158,0.1614,0.158,0.1614,0.1614,0.1445,0.1412,0.1445,0.1445,0.1378,0.1412,0.1412,0.1445,0.1479,0.1612,0.1559,0.1612,0.1603,0.1373,0.0987,0.0416,-0.0147,-0.0721,-0.1308,-0.184,-0.187,-0.1735,-0.1701,1.3367,1.3387,1.2739,1.2432,1.2425,1.2338,1.2305,1.2194,1.1669,1.1372,1.1223,1.0677,1.046,1.0325,0.9669,0.8962,0.8594,0.8015,0.7694,0.7414,0.7097,0.6778,0.6745,0.6778,0.6843,0.6778,0.697,0.7068,0.6811,0.6745,0.6613,0.6486,0.642,0.642,0.642,0.642,0.642,0.642,0.642,0.642,0.642,0.642,0.642,0.642,0.642,0.642,0.642,0.642,0.642,0.642,0.642,0.642,0.642,0.642,0.642,0.642,0.642,0.642,0.642,0.6354,0.6185,0.5782,0.5679,0.5415,0.5084,0.4921,0.5153,0.5084,0.5017,0.4851,0.4719,0.455,0.4217,0.3649,0.3449,0.3284,0.2785,0.2552,0.2319,0.2188,0.2188,0.2153,0.2153,0.2153,0.2119,0.195,0.1918,0.1884,0.1849,0.1816,0.1782,0.1748,0.1681,0.1648,0.1648,0.158,0.1513,0.1547,0.158,0.1648,0.1748,0.1884,0.1933,0.1878,0.1903,0.2003,0.161,0.098,0.0271,-0.0443,-0.0959,-0.1434,-0.1456,-0.135,-0.1386,1.3427,1.3193,1.2898,1.275,1.271,1.2455,1.2305,1.2305,1.2231,1.2157,1.2083,1.1996,1.1709,1.1242,1.0531,1.0,0.9444,0.8825,0.8474,0.8338,0.7792,0.7526,0.7508,0.7512,0.7461,0.7624,0.7814,0.7809,0.7456,0.7293,0.7036,0.6646,0.6515,0.642,0.642,0.642,0.642,0.642,0.642,0.642,0.642,0.642,0.642,0.642,0.642,0.642,0.642,0.642,0.642,0.642,0.642,0.642,0.642,0.642,0.642,0.642,0.642,0.642,0.642,0.642,0.6321,0.6251,0.6148,0.6086,0.6222,0.6222,0.6086,0.5851,0.602,0.5848,0.5613,0.5312,0.4915,0.455,0.435,0.4018,0.3518,0.322,0.3021,0.2822,0.2455,0.2221,0.2255,0.2255,0.2321,0.2287,0.222,0.2153,0.2119,0.2052,0.1985,0.1951,0.1884,0.1884,0.1849,0.1715,0.1648,0.1681,0.1748,0.1849,0.1918,0.2018,0.2056,0.2078,0.2098,0.2085,0.1877,0.1543,0.0778,0.0,-0.0495,-0.0868,-0.0903,-0.0944,-0.0996,1.3414,1.3434,1.2746,1.2603,1.2723,1.2432,1.2305,1.2305,1.2305,1.2305,1.2305,1.2305,1.2111,1.1658,1.1276,1.0812,1.0391,0.9534,0.9206,0.9354,0.8614,0.8395,0.8334,0.8223,0.8172,0.8199,0.8425,0.8517,0.8134,0.7907,0.7489,0.7101,0.6741,0.642,0.642,0.642,0.642,0.642,0.642,0.642,0.642,0.642,0.642,0.642,0.642,0.642,0.642,0.642,0.642,0.642,0.642,0.642,0.642,0.642,0.642,0.642,0.642,0.642,0.642,0.642,0.642,0.642,0.642,0.642,0.642,0.642,0.642,0.642,0.642,0.6218,0.6115,0.605,0.5719,0.5213,0.4948,0.4616,0.4217,0.402,0.3854,0.362,0.332,0.2721,0.2522,0.2922,0.3054,0.2822,0.2721,0.2421,0.2287,0.222,0.2119,0.2119,0.2085,0.2085,0.2052,0.1918,0.1884,0.1951,0.1985,0.2085,0.2153,0.2153,0.2144,0.2149,0.2145,0.2141,0.1949,0.1673,0.1132,0.0517,0.0193,-0.0191,-0.0404,-0.052,-0.0638,1.3347,1.326,1.2705,1.2536,1.2596,1.2378,1.2305,1.2305,1.2305,1.2305,1.2305,1.2305,1.2138,1.1877,1.1663,1.1382,1.1109,1.0534,1.0088,1.0249,0.9464,0.9155,0.9023,0.894,0.8861,0.8909,0.9069,0.9166,0.8844,0.8425,0.7944,0.7489,0.7228,0.6905,0.6679,0.642,0.642,0.642,0.642,0.642,0.642,0.642,0.642,0.642,0.642,0.642,0.642,0.642,0.642,0.642,0.642,0.642,0.642,0.642,0.642,0.642,0.642,0.642,0.642,0.642,0.642,0.642,0.642,0.642,0.642,0.642,0.642,0.642,0.642,0.6387,0.6387,0.642,0.6218,0.5679,0.558,0.5249,0.4915,0.4716,0.4486,0.4317,0.4054,0.3422,0.3023,0.3489,0.392,0.3589,0.3255,0.2921,0.2621,0.2587,0.2488,0.2388,0.2321,0.222,0.2186,0.2119,0.2119,0.2188,0.2188,0.2188,0.2188,0.2188,0.2188,0.2188,0.2174,0.216,0.2077,0.1806,0.1482,0.1324,0.1229,0.0752,0.0192,-0.0031,-0.0123,1.328,1.2824,1.2777,1.2596,1.2331,1.2311,1.2305,1.2305,1.2305,1.2305,1.2305,1.2305,1.2144,1.1946,1.1886,1.1663,1.139,1.1221,1.1061,1.0797,1.0168,0.9878,0.9671,0.9592,0.9562,0.9779,0.9945,0.9881,0.9556,0.9198,0.8587,0.7977,0.8004,0.7587,0.7068,0.6811,0.6679,0.6519,0.642,0.642,0.642,0.642,0.6453,0.6453,0.6486,0.6486,0.6453,0.6453,0.6416,0.6416,0.642,0.642,0.642,0.642,0.642,0.642,0.642,0.642,0.642,0.642,0.642,0.642,0.642,0.642,0.642,0.642,0.642,0.642,0.642,0.642,0.642,0.642,0.6387,0.6251,0.6251,0.5951,0.558,0.5312,0.5084,0.4885,0.4686,0.432,0.402,0.432,0.4752,0.4519,0.4217,0.4084,0.3751,0.3286,0.3155,0.2755,0.2622,0.2354,0.2321,0.2354,0.2188,0.2188,0.2188,0.2188,0.2188,0.2188,0.2188,0.2188,0.2188,0.2178,0.2129,0.2131,0.2075,0.1985,0.1782,0.1385,0.0737,0.0587,0.0453,1.3106,1.277,1.2556,1.2378,1.2311,1.2305,1.2305,1.2305,1.2305,1.2305,1.2305,1.2305,1.2151,1.1919,1.1899,1.1683,1.1456,1.1263,1.1216,1.0982,1.0647,1.0536,1.0419,1.0296,1.0295,1.0301,1.0428,1.0466,1.0168,0.9875,0.9166,0.8431,0.8587,0.8231,0.7972,0.7874,0.726,0.6778,0.6613,0.6585,0.6519,0.6515,0.6548,0.6581,0.6613,0.6613,0.6613,0.6613,0.6576,0.6453,0.642,0.642,0.642,0.642,0.642,0.642,0.642,0.642,0.642,0.642,0.642,0.642,0.642,0.642,0.642,0.642,0.642,0.642,0.642,0.642,0.642,0.642,0.642,0.642,0.642,0.6251,0.5947,0.5881,0.565,0.5617,0.5418,0.515,0.4885,0.5286,0.565,0.5415,0.5246,0.5113,0.4815,0.4314,0.3785,0.3389,0.3155,0.2954,0.272,0.272,0.2421,0.2188,0.2287,0.2287,0.2188,0.2188,0.2188,0.2188,0.2188,0.2188,0.2183,0.2188,0.2188,0.2188,0.2014,0.1678,0.1349,0.1182,0.0977,1.2884,1.2603,1.2385,1.2305,1.2305,1.2305,1.2305,1.2305,1.2305,1.2305,1.2305,1.2305,1.2204,1.2051,1.1931,1.177,1.161,1.1349,1.1229,1.1062,1.0908,1.0763,1.0742,1.07,1.0581,1.0586,1.0586,1.0555,1.0491,1.0199,0.9588,0.9005,0.9102,0.8935,0.8678,0.8554,0.8258,0.7679,0.7293,0.7101,0.6966,0.6868,0.69,0.6839,0.6839,0.6839,0.6839,0.6839,0.6745,0.6613,0.6618,0.6618,0.6618,0.6618,0.6618,0.6618,0.6618,0.6581,0.6581,0.6618,0.6581,0.6548,0.6548,0.6618,0.6552,0.6519,0.6453,0.642,0.642,0.642,0.642,0.642,0.642,0.642,0.642,0.642,0.6387,0.6387,0.6354,0.6354,0.6152,0.5851,0.5918,0.6317,0.6449,0.6115,0.6013,0.6079,0.5679,0.5147,0.455,0.402,0.382,0.362,0.342,0.322,0.3019,0.282,0.272,0.2653,0.2388,0.2253,0.2287,0.2253,0.2188,0.2221,0.2321,0.2221,0.2188,0.2221,0.2249,0.1984,0.1756,0.1689,0.1453,1.2616,1.2311,1.2305,1.2305,1.2305,1.2305,1.2305,1.2305,1.2305,1.2285,1.2258,1.2258,1.2198,1.2011,1.1857,1.1777,1.1603,1.139,1.1149,1.0995,1.0882,1.0775,1.0673,1.0586,1.0586,1.0586,1.0618,1.0688,1.0681,1.0523,1.0231,0.9684,1.0168,1.0034,0.932,0.9518,0.9384,0.9005,0.8678,0.8517,0.7897,0.7707,0.7577,0.7297,0.7232,0.7204,0.7106,0.7073,0.7012,0.6975,0.7007,0.7012,0.6885,0.6848,0.6848,0.6848,0.6815,0.6778,0.6741,0.6778,0.6778,0.6778,0.6843,0.6811,0.6749,0.6651,0.6585,0.6552,0.6585,0.6585,0.6585,0.6585,0.6585,0.6585,0.6585,0.6585,0.6585,0.6585,0.6585,0.6585,0.6519,0.628,0.6313,0.6651,0.6683,0.6548,0.6548,0.6679,0.6478,0.591,0.5444,0.4818,0.4586,0.445,0.4251,0.4051,0.3782,0.3585,0.3418,0.3284,0.3253,0.2854,0.2388,0.2455,0.2555,0.2455,0.2421,0.2388,0.2388,0.2423,0.2412,0.2259,0.2132,0.2075,0.1898,1.2603,1.2305,1.2305,1.2305,1.2305,1.2305,1.2305,1.2305,1.2305,1.2171,1.204,1.1964,1.1857,1.169,1.1597,1.153,1.147,1.1249,1.1082,1.0909,1.0795,1.0727,1.0606,1.0624,1.0586,1.0649,1.0719,1.0814,1.0909,1.0902,1.0933,1.0713,1.094,1.0548,1.0288,1.0548,1.0383,1.0129,1.0098,0.9576,0.8763,0.857,0.8447,0.8544,0.8608,0.8264,0.8231,0.8388,0.7809,0.7265,0.7549,0.7391,0.6946,0.6946,0.6913,0.6913,0.6942,0.6909,0.6909,0.6909,0.6909,0.6876,0.6913,0.6881,0.6881,0.6815,0.6782,0.6782,0.6745,0.6745,0.6745,0.6745,0.6745,0.6745,0.6745,0.6745,0.6745,0.6745,0.6745,0.6745,0.6745,0.6745,0.6745,0.6782,0.6815,0.6815,0.6815,0.6843,0.6881,0.6544,0.6441,0.591,0.5514,0.5315,0.515,0.4948,0.468,0.4444,0.4278,0.4181,0.4084,0.3685,0.3286,0.3056,0.2991,0.2956,0.2855,0.2688,0.2688,0.2723,0.2621,0.2503,0.2469,0.2416,0.2225,1.2489,1.2311,1.2305,1.2305,1.2305,1.2305,1.2305,1.2305,1.2305,1.2058,1.1737,1.1777,1.1703,1.141,1.1303,1.1236,1.1182,1.0935,1.0847,1.0754,1.0713,1.0633,1.0593,1.0656,1.0681,1.0713,1.087,1.0996,1.1129,1.1097,1.1097,1.1129,1.1129,1.1129,1.1129,1.1129,1.1129,1.1066,1.1129,1.0604,0.9697,0.9633,0.9346,0.9506,0.9314,0.9096,0.9096,0.9192,0.8807,0.8328,0.8549,0.8258,0.7879,0.7717,0.7456,0.7297,0.7199,0.7138,0.7138,0.7171,0.7171,0.7171,0.7171,0.7265,0.7232,0.7167,0.7007,0.6975,0.6848,0.6848,0.6848,0.6848,0.6848,0.6848,0.6848,0.6848,0.6848,0.6848,0.6848,0.6848,0.6848,0.6848,0.6876,0.6975,0.7012,0.6946,0.6979,0.7073,0.7077,0.7045,0.7007,0.6872,0.6375,0.6181,0.6115,0.5881,0.5609,0.5375,0.514,0.4875,0.468,0.4483,0.4217,0.3987,0.3756,0.3553,0.342,0.3255,0.3023,0.3025,0.2891,0.2753,0.2757,0.2755,0.2661,1.2348,1.2305,1.2305,1.2305,1.2305,1.2305,1.2305,1.2298,1.2251,1.1937,1.1469,1.165,1.1563,1.1303,1.1082,1.0995,1.0882,1.076,1.0646,1.0658,1.0676,1.0656,1.0713,1.0769,1.0839,1.0933,1.1059,1.1122,1.1223,1.1223,1.1223,1.1153,1.1153,1.116,1.1153,1.1185,1.1216,1.1216,1.1247,1.1279,1.0982,1.0755,1.0313,0.9926,0.9767,0.9741,0.9678,0.9741,0.9735,0.9416,0.9294,0.9005,0.8775,0.8517,0.8296,0.8069,0.8004,0.7874,0.7749,0.7879,0.7782,0.7717,0.7684,0.7717,0.7749,0.7684,0.7526,0.7396,0.7297,0.704,0.704,0.704,0.704,0.704,0.704,0.704,0.704,0.704,0.704,0.704,0.7007,0.7007,0.704,0.7171,0.7171,0.711,0.7138,0.7237,0.7302,0.7297,0.7265,0.7199,0.697,0.6876,0.6848,0.6613,0.6243,0.6239,0.5972,0.5606,0.5345,0.5345,0.5213,0.4915,0.4649,0.4483,0.4154,0.3956,0.3725,0.356,0.3125,0.3025,0.3157,0.3157,0.3125,1.2452,1.2305,1.2305,1.2305,1.2305,1.2305,1.2305,1.2265,1.2051,1.1737,1.1422,1.1182,1.1028,1.0767,1.0713,1.0725,1.0823,1.067,1.06,1.0593,1.0744,1.0744,1.0807,1.0926,1.109,1.1185,1.1272,1.1341,1.1373,1.1435,1.1498,1.1466,1.1466,1.1466,1.1498,1.1466,1.1435,1.1435,1.1435,1.1466,1.1435,1.1272,1.1272,1.1146,1.1209,1.0825,1.0636,1.0951,1.0408,0.9869,0.9582,0.9518,0.939,0.9288,0.9102,0.8877,0.8807,0.8807,0.8742,0.8748,0.8683,0.8748,0.878,0.8844,0.8844,0.8877,0.8716,0.8587,0.8328,0.7684,0.7587,0.7587,0.7587,0.7587,0.7587,0.7587,0.7587,0.7554,0.7554,0.7521,0.7461,0.7396,0.733,0.7396,0.7396,0.7363,0.733,0.7428,0.7428,0.7461,0.7489,0.7428,0.7363,0.7171,0.6942,0.6946,0.6741,0.6839,0.6835,0.647,0.6305,0.6375,0.621,0.5877,0.5683,0.5521,0.519,0.4755,0.4655,0.4392,0.3594,0.3259,0.3491,0.3625,0.3625]}]]